     2              OBSERVATION DATA    GPS                 RINEX VERSION / TYPE
teqc 2000Feb29 Duncan Agnew 20000426 17:39:55UTC            PGM / RUN BY / DATE
                                                            COMMENT
L2: 1 -> 1; 150 -> 5; 250 -> 9                              COMMENT
L2: 1 -> 1; 150 -> 5; 250 -> 9                              COMMENT
L2: 1 -> 1; 150 -> 5; 250 -> 9                              COMMENT
L2: 1 -> 1; 150 -> 5; 250 -> 9                              COMMENT
L2: 1 -> 1; 150 -> 5; 250 -> 9                              COMMENT
Original Marker Name: CROS                                  COMMENT
Campaign Name: Hector Postseismic                           COMMENT
4-Character Station Name: CROS                              COMMENT
6-Character Antenna Code: DMRCHT                            COMMENT
Vertical Measurement Point: BCR                             COMMENT
Vertical Offset to Rinex Ref. Point: 0.0348                 COMMENT
Radial Measurement Point: ECF                               COMMENT
Radial Offset to Rinex Ref. Point: 0.1897                   COMMENT
Antenna Height from Field Measurement: 0.7880 m             COMMENT
Additional Antenna Identification Info.:                    COMMENT
Turborogue and Ashtech Choke Ring                           COMMENT
Original XYZ: -2329497.4850 -4722060.1905 3588799.0054      COMMENT
New XYZ position is based on association with SCEC monument COMMENT
E1F2L1F2+0011. Position of that monument is believed to be  COMMENT
valid to within 1 m horizontally; vertical accuracy         COMMENT
should be no worse than 3-times this value.                 COMMENT
                                                            COMMENT
Revised Rinex header created by UCSD GPS archive for        COMMENT
GSAC on 31-Jul-2000 (2000:213) 22:09:19 GMT                 COMMENT
For assistance contact dagnew@ucsd.edu                      COMMENT
or anderson@python.ucsd.edu                                 COMMENT
                                                            COMMENT
CROSSING 1964                                               MARKER NAME
SEO USC                                                     OBSERVER / AGENCY
312 ASHTECH Z-XII3 CC00                                     REC # / TYPE / VERS
404 DORNE-MARGOL. TYPE T                                    ANT # / TYPE
 -2310624.4188 -4712447.5334  3612906.6995                  APPROX POSITION XYZ
        0.7300        0.0000        0.0000                  ANTENNA: DELTA H/E/N
     1     1     0                                          WAVELENGTH FACT L1/2
     7    C1    L1    L2    P1    P2    S1    S2            # / TYPES OF OBSERV
     0                                                      INTERVAL
  2000     4    20    21    33    0.000000                  TIME OF FIRST OBS
  2000     4    20    23    59   30.000000                  TIME OF LAST OBS
                                                            END OF HEADER
 00  4 20 21 33  0.0000000  0  6G17G30G24G 6G 5G10
  22733983.651     -357555.84549   -263375.80846  22733983.061    22733997.770
       233.000         184.000
  21015043.228      -64781.86249    -47673.94147  21015043.438    21015054.840
       242.000         207.000
  23389415.640       30027.74549     21940.49546  23389415.445    23389430.416
       220.000         164.000
  21287610.157     -318797.04749   -227124.12747  21287610.154    21287620.728
       239.000         203.000
  22379031.998       80036.75349     53762.45746  22379031.579    22379048.614
       229.000         180.000
  21280039.629      -71858.27649    -51165.19147  21280038.776    21280050.419
       240.000         204.000
 00  4 20 21 33 29.9990000  0  6G17G30G24G 6G 5G10
  22410296.472     -483120.94349   -361218.50146  22410296.185    22410310.939
       231.000         184.000
  20710341.693      -90579.22949    -67775.84247  20710341.969    20710353.542
       240.000         206.000
  23091657.545       40721.79549     30273.42446  23091658.847    23091672.756
       222.000         166.000
  20965533.936     -435898.00049   -318371.54047  20965533.853    20965544.845
       241.000         206.000
  22084661.647      108531.16949     75965.66246  22084661.707    22084679.366
       231.000         179.000
  20976125.809      -93515.46449    -68040.88847  20976125.251    20976136.661
       239.000         203.000
 00  4 20 21 34  0.0000000  0  6G17G30G24G 6G 5G10
  22522735.369    -1467671.03649  -1128400.16846  22522734.815    22522749.443
       231.000         184.000
  20841826.746     -975040.99749   -756966.88547  20841827.283    20841838.415
       243.000         208.000
  23229977.725     -807823.48049   -630930.78145  23229977.871    23229996.063
       202.000         152.000
  21079577.627    -1412014.59749  -1078981.78447  21079577.632    21079588.363
       242.000         206.000
  22226421.715     -721936.79949   -571152.48546  22226421.539    22226438.758
       228.000         179.000
  21108397.187     -973845.20349   -754012.10447  21108396.561    21108407.864
       241.000         198.000
 00  4 20 21 34 30.0000000  0  6G17G30G24G 6G 5G10
  22511189.811    -1528343.10849  -1175676.89746  22511189.358    22511204.354
       229.000         184.000
  20849391.499     -935288.32749   -725990.83847  20849391.916    20849403.227
       243.000         208.000
  23244269.348     -732721.33849   -572409.69845  23244269.877    23244283.188
       219.000         155.000
  21069631.002    -1464284.30849  -1119711.35547  21069630.788    21069641.923
       242.000         207.000
  22244202.037     -628501.56349   -498346.05546  22244202.199    22244219.302
       229.000         180.000
  21116744.127     -929982.18249   -719833.11647  21116743.503    21116754.780
       240.000         203.000
 00  4 20 21 35  0.0000000  0  6G17G30G24G 6G 5G10
  22499687.479    -1588787.43249  -1222776.14846  22499686.231    22499701.384
       229.000         184.000
  20857062.142     -894978.95949   -694580.98547  20857062.676    20857074.010
       243.000         208.000
  23258563.661     -657605.03449   -513877.60945  23258564.431    23258578.709
       221.000         162.000
  21059721.052    -1516361.39449  -1160290.81347  21059721.058    21059731.698
       242.000         208.000
  22262030.116     -534815.45149   -425344.12946  22262030.437    22262046.996
       229.000         180.000
  21125191.874     -885589.21749   -685241.17947  21125190.935    21125202.437
       240.000         204.000
 00  4 20 21 35 30.0000000  0  6G17G30G24G 6G 5G10
  22488223.363    -1649030.99149  -1269718.95946  22488222.707    22488237.855
       230.000         184.000
  20864833.715     -854139.42849   -662758.02547  20864834.256    20864845.634
       243.000         208.000
  23272857.627     -582490.66949   -455347.02346  23272857.456    23272872.298
       220.000         164.000
  21049844.805    -1568261.45849  -1200732.33847  21049844.936    21049855.317
       242.000         208.000
  22279902.961     -440893.96849   -352158.81146  22279903.524    22279920.782
       229.000         181.000
  21133736.390     -840687.54249   -650252.84747  21133735.829    21133747.220
       240.000         203.000
 00  4 20 21 36  0.0000000  0  6G17G30G24G 6G 5G10
  22476794.077    -1709092.07749  -1316519.58846  22476792.520    22476807.944
       230.000         186.000
  20872704.597     -812777.84749   -630528.27347  20872705.127    20872716.598
       243.000         208.000
  23287150.179     -507382.97949   -396821.65446  23287149.762    23287164.829
       220.000         164.000
  21040001.818    -1619986.76649  -1241037.69247  21040001.730    21040012.337
       242.000         208.000
  22297821.015     -346734.94249   -278788.39646  22297821.250    22297837.958
       230.000         180.000
  21142379.530     -795267.52749   -614860.60847  21142378.756    21142390.317
       240.000         203.000
 00  4 20 21 36 30.0000000  0  6G17G30G24G 6G 5G10
  22465399.942    -1768968.11349  -1363176.03746  22465399.418    22465413.743
       230.000         186.000
  20880676.919     -770883.38149   -597883.29547  20880677.358    20880688.944
       244.000         208.000
  23301441.872     -432279.98049   -338299.92646  23301441.947    23301456.503
       219.000         163.000
  21030198.107    -1671505.62449  -1281182.18147  21030197.947    21030208.788
       242.000         208.000
  22315783.991     -252339.94949   -205234.11346  22315784.364    22315802.054
       229.000         181.000
  21151123.999     -749314.90349   -579053.35947  21151123.312    21151134.669
       239.000         203.000
 00  4 20 21 37  0.0000000  0  6G17G30G24G 6G 5G10
  22454044.329    -1828641.69349  -1409674.73346  22454043.609    22454058.077
       230.000         186.000
  20888753.365     -728441.50249   -564811.75647  20888754.096    20888765.494
       244.000         208.000
  23315732.546     -357182.64049   -279782.59346  23315732.544    23315747.769
       219.000         163.000
  21020439.602    -1722786.76849  -1321141.44247  21020439.373    21020450.022
       242.000         208.000
  22333793.686     -157699.39049   -131488.48946  22333793.467    22333811.278
       229.000         181.000
  21159973.176     -702812.10249   -542817.39547  21159972.676    21159984.024
       240.000         203.000
 00  4 20 21 37 30.0000000  0  6G17G30G24G 6G 5G10
  22442732.398    -1888085.66049  -1455994.51446  22442731.390    22442745.803
       230.000         186.000
  20896939.954     -685420.62249   -531289.04947  20896940.619    20896951.957
       244.000         208.000
  23330023.417     -282084.23349   -221264.44245  23330023.531    23330038.049
       219.000         162.000
  21010730.423    -1773808.58849  -1360898.62947  21010730.204    21010740.960
       242.000         208.000
  22351854.057      -62792.65949    -57535.46246  22351854.373    22351872.137
       228.000         180.000
  21168930.549     -655740.73649   -506138.39847  21168929.935    21168941.309
       239.000         203.000
 00  4 20 21 38  0.0000000  0  6G17G30G24G 6G 5G10
  22431467.421    -1947282.53449  -1502121.76146  22431466.449    22431480.881
       229.000         185.000
  20905237.603     -641816.62649   -497311.96647  20905238.215    20905249.986
       245.000         208.000
  23344318.268     -206964.77749   -162729.87145  23344318.774    23344333.115
       219.000         160.000
  21001071.941    -1824563.98549  -1400448.21847  21001071.761    21001082.361
       242.000         208.000
  22369966.296       32386.88349     16630.14346  22369966.754    22369983.770
       228.000         179.000
  21177994.537     -608109.27149   -469022.96447  21177993.920    21178005.234
       240.000         203.000
 00  4 20 21 38 30.0000000  0  6G17G30G24G 6G 5G10
  22420248.790    -2006236.18549  -1548059.49846  22420248.275    22420262.450
       232.000         185.000
  20913641.419     -597654.83449   -462900.23747  20913642.027    20913653.459
       244.000         208.000
  23358617.682     -131820.87149   -104176.25945  23358618.785    23358632.236
       220.000         160.000
  20991461.074    -1875069.29449  -1439802.94047  20991460.864    20991471.448
       242.000         209.000
  22388127.255      127822.71449     90995.44846  22388127.732    22388145.090
       227.000         178.000
  21187160.496     -559942.09749   -431490.09847  21187159.954    21187171.441
       240.000         203.000
 00  4 20 21 39  0.0000000  0  6G17G30G24G 6G 5G10
  22409071.916    -2064970.56449  -1593826.36346  22409070.783    22409085.899
       232.000         187.000
  20922145.126     -552967.66149   -428079.11747  20922145.760    20922157.439
       245.000         208.000
  23372917.909      -56673.34449    -45619.83445  23372917.476    23372932.618
       219.000         160.000
  20981888.124    -1925375.23749  -1479002.30747  20981887.771    20981898.778
       242.000         209.000
  22406334.251      223499.75549    165548.71246  22406334.637    22406352.278
       227.000         177.000
  21196423.245     -511266.10349   -393560.74247  21196422.852    21196434.062
       239.000         203.000
 00  4 20 21 39 30.0000000  0  6G17G30G24G 6G 5G10
  22397929.993    -2123521.05249  -1639449.94646  22397929.686    22397943.214
       233.000         187.000
  20930742.987     -507786.17549   -392872.82947  20930743.388    20930755.093
       244.000         208.000
  23387216.945       18467.93549     12931.72645  23387217.546    23387232.348
       218.000         160.000
  20972349.286    -1975501.75249  -1518061.87047  20972349.035    20972359.641
       242.000         209.000
  22424584.750      319405.62349    240280.28246  22424585.403    22424602.025
       226.000         176.000
  21205777.961     -462106.93949   -355254.90247  21205777.306    21205788.753
       239.000         202.000
 00  4 20 21 40  0.0000000  0  6G17G30G24G 6G 5G10
  22386818.226    -2181913.50249  -1684950.39047  22386817.099    22386832.210
       232.000         188.000
  20939429.019     -462140.95849   -357305.19147  20939429.545    20939441.316
       244.000         208.000
  23401511.929       93588.09249     71466.81045  23401511.920    23401526.660
       217.000         160.000
  20962843.095    -2025456.89949  -1556987.90347  20962843.126    20962853.783
       244.000         209.000
  22442875.882      415525.07449    315178.27946  22442876.280    22442893.665
       226.000         175.000
  21215223.006     -412472.92249   -316579.04047  21215222.117    21215233.794
       239.000         202.000
 00  4 20 21 40 30.0000000  0  6G17G30G24G 6G 5G10
  22375737.350    -2240143.13949  -1730323.95447  22375736.470    22375750.707
       232.000         188.000
  20948205.314     -416021.49049   -321368.00247  20948205.819    20948217.786
       244.000         208.000
  23415799.860      168670.86449    129972.76445  23415799.369    23415814.169
       216.000         159.000
  20953372.082    -2075227.31649  -1595769.98447  20953371.992    20953382.490
       244.000         209.000
  22461205.367      511846.29249    390233.49046  22461205.981    22461223.080
       227.000         175.000
  21224759.975     -362355.93449   -277526.83247  21224759.385    21224770.852
       239.000         202.000
 00  4 20 21 41  0.0000000  0  6G17G30G24G 6G 5G10
  22364691.758    -2298187.55249  -1775553.19546  22364691.156    22364705.790
       232.000         187.000
  20957075.513     -369408.49049   -285046.25447  20957076.018    20957087.843
       244.000         208.000
  23430079.917      243713.21549    188447.21945  23430079.623    23430094.672
       215.000         158.000
  20943940.664    -2124789.70249  -1634389.96047  20943940.612    20943951.338
       244.000         210.000
  22479575.258      608379.32449    465453.75946  22479575.794    22479592.754
       228.000         175.000
  21234392.031     -311739.25349   -238085.25847  21234391.357    21234402.828
       239.000         202.000
 00  4 20 21 41 30.0000000  0  7G17G30G26G24G 6G 5G10
  22353685.262    -2356026.69349  -1820622.49446  22353684.576    22353698.442
       233.000         187.000
  20966043.655     -322280.87649   -248323.51147  20966044.489    20966056.240
       244.000         208.000
  24298992.924    -3657092.54449  -2101016.81045  24298991.908    24299020.284
       203.000         139.000
  23444353.389      318720.38849    246894.26745  23444353.252    23444367.621
       217.000         157.000
  20934553.533    -2174119.20249  -1672828.47547  20934553.750    20934564.167
       244.000         210.000
  22497986.098      705127.59649    540841.72746  22497986.228    22498004.903
       227.000         176.000
  21244119.776     -260619.45649   -198251.64747  21244119.262    21244130.769
       239.000         202.000
 00  4 20 21 42  0.0000000  0  7G17G30G26G24G 6G 5G10
  22342723.637    -2413629.77249  -1865507.83446  22342722.905    22342736.736
       234.000         187.000
  20975117.950     -274595.73149   -211166.33047  20975118.578    20975130.188
       244.000         208.000
  24282387.738    -3744351.22349  -2169010.06045  24282385.834    24282415.030
       200.000         138.000
  23458621.953      393701.83049    305321.26845  23458622.054    23458637.285
       215.000         156.000
  20925213.800    -2223199.84349  -1711073.06647  20925213.806    20925224.523
       244.000         210.000
  22516439.065      802097.21649    616402.18846  22516439.533    22516457.880
       228.000         177.000
  21253947.680     -208973.53649   -158008.06347  21253947.059    21253958.581
       239.000         202.000
 00  4 20 21 42 30.0000000  0  7G17G30G26G24G 6G 5G10
  22331808.782    -2470987.26649  -1910201.82146  22331807.971    22331821.829
       234.000         187.000
  20984300.647     -226340.81049   -173565.15847  20984301.340    20984313.030
       244.000         208.000
  24265788.408    -3831579.22649  -2236979.43045  24265786.715    24265814.112
       201.000         138.000
  23472888.412      468672.36349    363739.76045  23472888.517    23472903.916
       217.000         157.000
  20915922.354    -2272026.74749  -1749119.93747  20915922.398    20915932.812
       244.000         210.000
  22534935.281      899293.91649    692139.58246  22534935.918    22534953.678
       225.000         176.000
  21263876.673     -156796.25549   -117350.42747  21263875.975    21263887.609
       239.000         201.000
 00  4 20 21 43  0.0000000  0  8G17G30G26G24G 6G 5G10G13
  22320939.322    -2528106.00649  -1954709.73846  22320938.366    22320952.361
       233.000         187.000
  20993592.550     -177512.02649   -135516.82947  20993593.438    20993605.034
       243.000         208.000
  24249194.272    -3918779.66249  -2304927.31745  24249193.713    24249221.273
       203.000         140.000
  23487153.236      543633.83749    422151.20945  23487153.632    23487167.590
       215.000         156.000
  20906677.589    -2320608.19849  -1786975.54847  20906677.458    20906688.142
       244.000         211.000
  22553476.713      996728.36149    768062.24046  22553477.123    22553495.463
       226.000         176.000
  21273906.924     -104087.17349    -76278.39847  21273906.221    21273917.675
       239.000         201.000
                  -1503117.63149  -1154985.68744                  24848122.217
       207.000         122.000
 00  4 20 21 43 30.0000000  0  8G17G30G26G24G 6G 5G10G13
  22310118.265    -2584970.46449  -1999019.52447  22310117.387    22310131.631
       233.000         188.000
  21003001.146     -128070.00249    -96990.65347  21003001.884    21003013.461
       244.000         208.000
  24232608.887    -4005934.92249  -2372839.97445  24232607.965    24232634.956
       208.000         143.000
  23501424.167      618627.44849    480587.69145  23501424.652    23501439.590
       216.000         156.000
  20897484.550    -2368917.82949  -1824619.35347  20897484.413    20897495.140
       244.000         211.000
  22572067.516     1094422.49049    844187.23346  22572067.523    22572085.831
       224.000         175.000
  21284042.536      -50824.17749    -34774.74947  21284041.755    21284053.374
       238.000         201.000
  24847227.909    -1507755.79449  -1158599.72345  24847223.935    24847240.668
       203.000         133.000
 00  4 20 21 44  0.0000000  0  8G17G30G26G24G 6G 5G10G13
  22299345.304    -2641582.38349  -2043132.54047  22299344.435    22299358.451
       233.000         189.000
  21012523.585      -78029.72849    -57998.30947  21012524.132    21012536.092
       243.000         208.000
  24216031.087    -4093050.04949  -2440721.39645  24216029.741    24216056.716
       208.000         145.000
  23515702.498      693660.24849    539054.70145  23515703.347    23515717.227
       216.000         156.000
  20888345.026    -2416946.29849  -1862044.06947  20888344.850    20888355.328
       244.000         211.000
  22590706.860     1192372.03849    920511.25746  22590707.299    22590725.698
       224.000         175.000
  21294283.477        2992.38349      7160.24347  21294282.875    21294294.214
       239.000         201.000
  24846450.198    -1511832.66949  -1161776.37245  24846449.031    24846464.721
       203.000         137.000
 00  4 20 21 44 30.0000000  0  8G17G30G26G24G 6G 5G10G13
  22288616.868    -2697960.19749  -2087063.14047  22288616.062    22288629.837
       234.000         189.000
  21022150.679      -27439.33349    -18577.30647  21022151.457    21022163.207
       243.000         207.000
  24199453.923    -4180161.47849  -2508599.92245  24199452.867    24199479.942
       210.000         145.000
  23529982.982      768704.17449    597530.38845  23529983.481    23529998.281
       218.000         157.000
  20879254.794    -2464715.56149  -1899266.80947  20879254.543    20879265.155
       244.000         211.000
  22609390.415     1290553.78149    997016.18946  22609390.305    22609409.943
       222.000         174.000
  21304623.364       57328.64549     49500.20147  21304622.926    21304634.127
       239.000         201.000
  24845773.103    -1515389.09049  -1164547.46445  24845772.879    24845787.096
       204.000         136.000
 00  4 20 21 45  0.0000000  0  8G17G30G26G24G 6G 5G10G13
  22277929.302    -2754123.50149  -2130826.58447  22277928.551    22277942.077
       233.000         189.000
  21031879.464       23685.12949     21259.87247  21031879.992    21031891.869
       243.000         207.000
  24182875.792    -4267278.59349  -2576482.84945  24182874.824    24182901.214
       210.000         145.000
  23544259.719      843728.13449    655990.52945  23544260.378    23544274.008
       218.000         157.000
  20870210.481    -2512243.32649  -1936301.36547  20870210.254    20870220.979
       244.000         211.000
  22628112.979     1388940.39649   1073680.77446  22628113.633    22628131.824
       222.000         174.000
  21315058.136      112163.56449     92228.71747  21315057.503    21315069.139
       239.000         201.000
  24845188.760    -1518459.32949  -1166939.70345  24845188.074    24845202.502
       204.000         137.000
 00  4 20 21 45 30.0000000  0  8G17G30G26G24G 6G 5G10G13
  22267281.594    -2810076.94149  -2174426.48247  22267280.912    22267294.223
       233.000         189.000
  21041705.892       75323.34549     61497.37047  21041706.170    21041718.340
       243.000         207.000
  24166295.582    -4354406.25949  -2644373.99245  24166294.442    24166320.499
       208.000         143.000
  23558533.858      918738.88149    714440.38045  23558534.096    23558549.584
       218.000         156.000
  20861214.090    -2559519.64949  -1973139.99647  20861214.052    20861224.441
       245.000         211.000
  22646873.152     1487524.39549   1150499.17146  22646874.015    22646892.124
       223.000         173.000
  21325586.247      167488.89249    135339.36547  21325585.524    21325597.136
       239.000         201.000
  24844693.835    -1521056.04949  -1168962.92045  24844692.997    24844708.727
       206.000         136.000
 00  4 20 21 46  0.0000000  0  8G17G30G26G24G 6G 5G10G13
  22256675.257    -2865812.85249  -2217856.87147  22256674.525    22256688.217
       233.000         189.000
  21051628.172      127464.80649    102126.99547  21051628.821    21051640.889
       243.000         207.000
  24149717.369    -4441523.61749  -2712257.09045  24149715.770    24149741.870
       208.000         142.000
  23572805.332      993735.30749    772879.07545  23572805.027    23572820.894
       218.000         156.000
  20852266.594    -2606539.06949  -2009778.44347  20852266.596    20852277.085
       245.000         211.000
  22665670.849     1586305.62949   1227471.25246  22665671.632    22665689.680
       222.000         172.000
  21336210.761      223320.95649    178844.86747  21336210.139    21336221.592
       239.000         201.000
  24844289.818    -1523180.07049  -1170617.89045  24844289.896    24844305.278
       202.000         137.000
 00  4 20 21 46 30.0000000  0  8G17G30G26G24G 6G 5G10G13
  22246110.775    -2921328.64049  -2261115.73347  22246109.899    22246124.006
       233.000         190.000
  21061648.640      180122.27649    143158.69947  21061649.264    21061660.990
       243.000         207.000
  24133143.878    -4528615.51449  -2780120.32945  24133142.913    24133170.010
       202.000         141.000
  23587075.167     1068723.14749    831311.06645  23587073.889    23587090.663
       216.000         156.000
  20843367.271    -2653305.42949  -2046219.69847  20843367.197    20843377.702
       245.000         211.000
  22684507.057     1685288.95449   1304600.81446  22684506.963    22684526.258
       223.000         171.000
  21346935.007      279677.11349    222758.75147  21346934.405    21346945.805
       238.000         200.000
  24843976.985    -1524820.93749  -1171896.34045  24843976.043    24843993.356
       205.000         137.000
 00  4 20 21 47  0.0000000  0  8G17G30G26G24G 6G 5G10G13
  22235587.720    -2976627.18849  -2304205.33647  22235586.943    22235600.560
       234.000         190.000
  21071769.014      233304.85449    184599.58547  21071769.657    21071781.523
       243.000         207.000
  24116579.747    -4615658.15049  -2847945.17045  24116578.630    24116604.481
       201.000         140.000
  23601345.923     1143716.05749    889747.01645  23601346.108    23601361.391
       217.000         156.000
  20834517.386    -2699811.80649  -2082458.37047  20834517.294    20834527.512
       244.000         212.000
  22703382.205     1784477.38649   1381890.18146  22703382.166    22703401.184
       223.000         172.000
  21357761.129      336568.86949    267089.98247  21357760.240    21357771.959
       238.000         200.000
  24843760.302    -1525961.55449  -1172785.05945  24843760.912    24843774.216
       202.000         137.000
 00  4 20 21 47 30.0000000  0  9G17G30G26G24G 6G23G 5G10G13
  22225105.843    -3031709.40449  -2347126.36647  22225105.000    22225118.560
       233.000         191.000
  21081985.991      286994.87149    226435.87847  21081986.584    21081998.577
       243.000         207.000
  24100024.605    -4702654.21049  -2915733.71745  24100023.371    24100049.339
       202.000         141.000
  23615616.770     1218709.57349    948183.44445  23615616.349    23615632.867
       216.000         156.000
  20825715.712    -2746064.62949  -2118499.47147  20825715.537    20825725.906
       243.000         212.000
  24579443.954    -4706689.57649  -3626373.05345  24579441.577    24579474.575
       208.000         143.000
  22722294.714     1883861.90249   1459332.34846  22722295.142    22722313.289
       225.000         173.000
  21368687.200      393985.79349    311830.43647  21368686.536    21368698.112
       238.000         200.000
  24843638.804    -1526599.06949  -1173281.69845  24843638.477    24843653.493
       202.000         136.000
 00  4 20 21 48  0.0000000  0  9G17G30G26G24G 6G23G 5G10G13
  22214663.901    -3086581.32749  -2389883.53647  22214662.989    22214676.593
       233.000         190.000
  21092297.673      341182.72549    268660.10447  21092298.216    21092310.288
       243.000         207.000
  24083475.191    -4789618.28249  -2983497.30245  24083474.647    24083500.525
       200.000         140.000
  23629881.864     1293672.31749   1006595.87245  23629881.673    23629896.303
       217.000         156.000
  20816958.100    -2792085.89349  -2154360.13647  20816958.060    20816968.496
       244.000         212.000
  24559236.117    -4812879.01649  -3709117.35245  24559233.676    24559266.797
       206.000         144.000
  22741240.805     1983422.72949   1536911.89546  22741240.797    22741260.253
       225.000         172.000
  21379709.897      451910.31949    356966.41547  21379709.335    21379720.534
       239.000         200.000
  24843611.869    -1526739.59449  -1173391.05945  24843612.875    24843627.076
       206.000         136.000
 00  4 20 21 48 30.0000000  0  9G17G30G26G24G 6G23G 5G10G13
  22204263.337    -3141235.71849  -2432471.20847  22204262.109    22204276.006
       232.000         189.000
  21102703.301      395864.28749    311269.03447  21102703.832    21102715.717
       243.000         206.000
  24066931.001    -4876556.51949  -3051240.76645  24066929.821    24066956.266
       199.000         140.000
  23644139.611     1368597.25849   1064978.85345  23644140.732    23644156.066
       217.000         155.000
  20808247.227    -2837861.80049  -2190029.61947  20808247.230    20808257.450
       244.000         212.000
  24539044.459    -4918983.86949  -3791795.70645  24539042.384    24539074.802
       200.000         141.000
  22760221.303     2083164.65549   1614632.57646  22760221.107    22760240.848
       225.000         171.000
  21390824.489      510317.76849    402478.69547  21390823.751    21390835.255
       238.000         200.000
  24843678.861    -1526387.76049  -1173116.77545  24843678.050    24843693.722
       206.000         136.000
 00  4 20 21 49  0.0000000  0  9G17G30G26G24G 6G23G 5G10G13
  22193905.143    -3195667.52449  -2474885.42447  22193904.190    22193917.622
       233.000         190.000
  21113201.430      451032.29449    354257.01747  21113201.994    21113213.991
       243.000         206.000
  24050392.826    -4963463.37149  -3118959.77445  24050391.920    24050416.860
       201.000         140.000
  23658391.818     1443492.41249   1123338.61045  23658392.626    23658408.083
       217.000         156.000
  20799586.976    -2883371.72149  -2225491.83347  20799586.886    20799597.071
       244.000         212.000
  24518860.470    -5025048.83148  -3874442.97145  24518857.298    24518888.912
       192.000         138.000
  22779236.360     2183088.16349   1692494.72946  22779236.463    22779256.453
       223.000         171.000
  21402027.281      569188.50649    448351.97947  21402026.605    21402038.252
       238.000         200.000
  24843839.338    -1525543.89549  -1172459.07645  24843840.177    24843855.244
       204.000         136.000
 00  4 20 21 49 30.0000000  0  9G17G30G26G24G 6G23G 5G10G13
  22183590.115    -3249872.73249  -2517123.07447  22183589.351    22183603.195
       234.000         191.000
  21123791.743      506684.39949    397622.21047  21123792.193    21123804.005
       243.000         206.000
  24033859.924    -5050341.85749  -3186656.69645  24033858.606    24033883.912
       203.000         143.000
  23672639.054     1518362.02749   1181678.47845  23672639.123    23672654.150
       217.000         156.000
  20790978.569    -2928608.90449  -2260741.52947  20790978.585    20790988.758
       244.000         212.000
  24498682.649    -5131080.59148  -3957064.35145  24498679.917    24498714.130
       186.000         134.000
  22798283.657     2283181.39149   1770489.11446  22798284.226    22798303.289
       222.000         170.000
  21413316.820      628515.40849    494580.71647  21413316.340    21413327.603
       238.000         199.000
  24844093.264    -1524210.24649  -1171419.78845  24844092.453    24844107.458
       204.000         137.000
 00  4 20 21 50  0.0000000  0  9G17G30G26G24G 6G23G 5G10G13
  22173316.934    -3303858.21249  -2559189.51247  22173316.093    22173329.490
       234.000         192.000
  21134474.447      562821.89349    441365.62847  21134474.997    21134486.998
       243.000         206.000
  24017334.308    -5137182.10449  -3254323.84245  24017332.727    24017359.086
       206.000         146.000
  23686885.775     1593228.54949   1240015.91845  23686885.470    23686900.817
       217.000         155.000
  20782423.057    -2973568.10449  -2295774.61647  20782422.928    20782433.281
       244.000         212.000
  24478512.216    -5237071.61948  -4039653.96745  24478511.049    24478543.136
       185.000         132.000
  22817362.173     2383438.12249   1848610.92446  22817362.689    22817382.113
       223.000         170.000
  21424692.630      688295.73249    541162.77147  21424691.904    21424703.578
       238.000         199.000
  24844439.675    -1522390.03449  -1170001.32345  24844440.092    24844453.701
       206.000         137.000
 00  4 20 21 50 30.0000000  0  9G17G30G26G24G 6G23G 5G10G13
  22163084.143    -3357631.24549  -2601090.40547  22163083.277    22163097.029
       234.000         192.000
  21145248.575      619439.79449    485483.38547  21145249.179    21145261.250
       243.000         206.000
  24000818.682    -5223970.16549  -3321950.34445  24000818.059    24000842.859
       209.000         148.000
  23701134.489     1668105.23849   1298361.28045  23701135.026    23701150.137
       218.000         156.000
  20773920.551    -3018248.81449  -2330590.69347  20773920.364    20773930.376
       244.000         212.000
  24458353.015    -5343005.61149  -4122199.20545  24458351.236    24458383.839
       202.000         137.000
  22836469.700     2483847.14449   1926851.37846  22836470.261    22836489.976
       222.000         171.000
  21436154.604      748528.51049    588097.38947  21436153.929    21436165.421
       238.000         199.000
  24844876.592    -1520092.51449  -1168210.94945  24844876.590    24844891.957
       202.000         137.000
 00  4 20 21 51  0.0000000  0  9G17G30G26G24G 6G23G 5G10G13
  22152890.425    -3411198.94849  -2642831.31147  22152889.764    22152903.401
       234.000         192.000
  21156114.389      676539.53249    529976.59647  21156115.006    21156126.942
       243.000         206.000
  23984314.096    -5310700.35249  -3389531.76345  23984312.956    23984339.113
       207.000         148.000
  23715384.224     1742987.22649   1356710.76545  23715384.401    23715399.102
       217.000         157.000
  20765465.839    -3062678.65049  -2365211.29047  20765465.647    20765476.103
       244.000         212.000
  24438212.924    -5448840.25249  -4204667.06745  24438211.628    24438242.156
       202.000         140.000
  22855603.994     2584396.86249   2005201.47246  22855604.454    22855624.032
       220.000         170.000
  21447703.836      809220.00449    635389.44347  21447703.044    21447714.395
       238.000         199.000
  24845405.204    -1517312.77349  -1166044.80545  24845403.985    24845420.889
       207.000         137.000
 00  4 20 21 51 30.0000000  0  9G17G30G26G24G 6G23G 5G10G13
  22142734.207    -3464569.81749  -2684418.84947  22142733.934    22142746.732
       235.000         192.000
  21167071.038      734116.80849    574841.91447  21167071.461    21167083.835
       243.000         206.000
  23967818.230    -5397384.67749  -3457077.42345  23967817.475    23967841.743
       208.000         148.000
  23729631.774     1817857.79649   1415051.37445  23729631.198    23729647.476
       217.000         157.000
  20757054.322    -3106881.36849  -2399654.90848  20757054.250    20757064.499
       244.000         213.000
  24418097.374    -5554546.65649  -4287034.96945  24418095.314    24418126.301
       207.000         142.000
  22874763.120     2685077.59849   2083653.65146  22874762.841    22874782.322
       218.000         167.000
  21459341.004      870373.92349    683041.83847  21459340.418    21459351.934
       238.000         199.000
  24846025.407    -1514055.35249  -1163506.42245  24846024.735    24846039.043
       208.000         135.000
 00  4 20 21 52  0.0000000  0  9G17G30G26G24G 6G23G 5G10G13
  22132615.297    -3517744.76049  -2725853.71747  22132614.470    22132627.774
       235.000         193.000
  21178118.117      792169.09749    620077.36947  21178118.694    21178130.636
       242.000         206.000
  23951329.309    -5484032.60549  -3524594.77745  23951328.380    23951352.143
       209.000         146.000
  23743871.495     1892687.71849   1473360.28045  23743872.209    23743887.137
       217.000         156.000
  20748684.426    -3150865.11349  -2433927.90348  20748684.405    20748694.746
       245.000         213.000
  24398005.759    -5660126.88557  -4369304.62944  24398003.464    24398039.346
       158.000         130.000
  22893951.054     2785910.12549   2162224.08246  22893950.818    22893971.102
       219.000         168.000
  21471063.475      931975.61849    731043.14847  21471062.992    21471074.576
       238.000         198.000
  24846736.950    -1510317.75249  -1160593.91045  24846735.573    24846751.463
       208.000         136.000
 00  4 20 21 52 30.0000000  0  9G17G30G26G24G 6G23G 5G10G13
  22122535.308    -3570715.23249  -2767129.25247  22122534.218    22122548.110
       235.000         193.000
  21189255.430      850695.74049    665682.45347  21189255.863    21189268.222
       242.000         205.000
  23934846.311    -5570649.17649  -3592087.68445  23934845.132    23934869.634
       211.000         144.000
  23758097.535     1967445.45149   1531612.94245  23758097.272    23758112.463
       215.000         156.000
  20740356.003    -3194631.28149  -2468031.36048  20740355.840    20740365.850
       244.000         213.000
  24377937.787    -5765581.32648  -4451476.40844                  24377931.729
       188.000         114.000
  22913171.045     2886910.54149   2240925.35846  22913171.352    22913191.532
       219.000         168.000
  21482871.119      994025.28749    779393.52947  21482870.168    21482882.259
       237.000         198.000
  24847543.099    -1506081.79149  -1157293.05845  24847542.734    24847558.247
       202.000         135.000
 00  4 20 21 53  0.0000000  0  9G17G30G26G24G 6G23G 5G10G13
  22112492.991    -3623487.11049  -2808250.04347  22112492.100    22112505.258
       234.000         193.000
  21200481.683      909689.85749    711651.80047  21200482.042    21200494.140
       242.000         205.000
  23918368.362    -5657239.07549  -3659559.80945  23918366.859    23918392.241
       211.000         147.000
  23772309.659     2042130.70249   1589809.12745  23772310.132    23772325.324
       215.000         155.000
  20732070.766    -3238170.07049  -2501957.63948  20732070.746    20732081.021
       244.000         213.000
  24357889.719    -5870932.55948  -4533567.59244  24357888.175    24357910.962
       175.000         111.000
  22932424.833     2988088.56649   2319765.01646  22932425.492    22932445.367
       220.000         169.000
  21494763.158     1056518.39849    828089.45247  21494762.546    21494774.096
       237.000         198.000
  24848446.638    -1501330.45349  -1153590.55045  24848446.548    24848460.694
       208.000         135.000
 00  4 20 21 53 30.0000000  0  9G17G30G26G24G 6G23G 5G10G13
  22102490.890    -3676047.98149  -2849206.41947  22102490.005    22102503.017
       235.000         193.000
  21211800.615      969170.81149    758000.49747  21211801.365    21211813.650
       242.000         205.000
  23901897.356    -5743792.48649  -3727003.49145  23901896.082    23901921.426
       210.000         147.000
  23786512.906     2116768.88149   1647968.63545  23786513.339    23786528.874
       216.000         154.000
  20723836.406    -3281441.76749  -2535675.79648  20723836.347    20723846.661
       244.000         213.000
  24038067.387    -5976188.86158  -4615584.78344  24038067.452    24038094.317
       183.000         113.000
  22951716.513     3089465.77349   2398759.87046  22951717.017    22951736.700
       223.000         170.000
  21506743.566     1119475.75849    877147.12347  21506743.092    21506754.473
       237.000         198.000
  24849450.963    -1496054.50649  -1149479.30045  24849450.493    24849464.770
       209.000         136.000
 00  4 20 21 54  0.0000000  0  8G17G30G26G24G 6G 5G10G13
  22092536.712    -3728357.08649  -2889966.61847  22092536.086    22092549.034
       236.000         193.000
  21223220.770     1029183.76849    804763.74547  21223221.629    21223233.911
       242.000         205.000
  23885443.313    -5830257.35549  -3794378.19545  23885442.992    23885466.025
       212.000         148.000
  23800716.375     2191407.98449   1706128.86445  23800716.157    23800731.089
       216.000         154.000
  20715664.389    -3324385.81349  -2569138.64148  20715664.544    20715674.530
       245.000         213.000
  22971053.493     3191080.80949   2477940.05646  22971054.050    22971073.702
       223.000         170.000
  21518819.844     1182937.16949    926597.56647  21518819.271    21518830.837
       237.000         198.000
  24850561.939    -1490213.20749  -1144927.52845  24850561.075    24850576.663
       202.000         136.000
 00  4 20 21 54 30.0000000  0  8G17G30G26G24G 6G 5G10G13
  22082617.817    -3780480.99149  -2930582.51147  22082617.182    22082630.313
       236.000         194.000
  21234731.029     1089670.10949    851895.85947  21234731.771    21234743.967
       242.000         204.000
  23868999.150    -5916670.23249  -3861712.39245  23868997.847    23869022.014
       213.000         150.000
  23814914.506     2266018.99949   1764267.21445  23814915.197    23814930.249
       215.000         154.000
  20707545.102    -3367052.81749  -2602385.60748  20707545.235    20707555.064
       244.000         213.000
  22990419.656     3292848.94949   2557239.54046  22990420.433    22990439.202
       223.000         169.000
  21530985.063     1246865.31049    976411.69747  21530984.729    21530996.011
       237.000         197.000
  24851767.837    -1483874.00249  -1139987.74545  24851766.960    24851782.483
       202.000         136.000
 00  4 20 21 55  0.0000000  0  8G17G30G26G24G 6G 5G10G13
  22072734.383    -3832418.13649  -2971052.87447  22072733.355    22072746.421
       235.000         194.000
  21246333.602     1150641.60049    899406.01247  21246334.219    21246346.627
       242.000         204.000
  23852568.605    -6003011.63049  -3928990.85145  23852567.361    23852591.451
       213.000         150.000
  23829111.779     2340625.78749   1822402.26345  23829112.199    23829126.038
       216.000         154.000
  20699481.365    -3409428.15549  -2635405.29848  20699481.177    20699491.349
       245.000         213.000
  23009812.848     3394759.24149   2636649.80546  23009813.288    23009833.884
       222.000         168.000
  21543241.652     1311273.84149   1026600.15247  21543241.144    21543252.506
       237.000         197.000
  24853064.814    -1477057.41949  -1134675.97145  24853064.551    24853080.631
       203.000         136.000
 00  4 20 21 55 30.0000000  0  8G17G30G26G24G 6G 5G10G13
  22062892.704    -3884135.58949  -3011352.04547  22062892.038    22062905.088
       235.000         194.000
  21258036.999     1212142.86249    947328.96747  21258037.727    21258049.921
       242.000         204.000
  23836158.297    -6089246.23249  -3996186.15645  23836157.621    23836180.571
       214.000         151.000
  23843312.307     2415249.24949   1880550.31345  23843312.049    23843327.253
       216.000         154.000
  20691476.488    -3451493.95049  -2668183.79248  20691476.479    20691486.533
       245.000         213.000
  23029235.328     3496823.50749   2716180.02946  23029236.301    23029256.284
       220.000         168.000
  21555593.919     1376185.47349   1077180.63647  21555593.313    21555604.869
       236.000         197.000
  24854455.323    -1469750.89049  -1128982.43745  24854454.989    24854469.815
       206.000         136.000
 00  4 20 21 56  0.0000000  0  9G17G30G26G24G 6G23G 5G10G13
  22053096.570    -3935613.89349  -3051464.86147  22053095.660    22053108.844
       235.000         194.000
  21269841.476     1274175.42349    995665.92047  21269841.875    21269854.479
       242.000         204.000
  23819773.101    -6175349.10449  -4063278.77245  23819771.865    23819796.457
       214.000         152.000
  23857516.856     2489893.91549   1938714.88945  23857518.014    23857531.523
       214.000         154.000
  20683531.480    -3493245.06049  -2700717.07748  20683531.319    20683541.565
       244.000         213.000
                  -1544335.55149  -1184109.07243
       211.000          74.000
  23048686.583     3599039.02049   2795828.08446  23048687.436    23048707.433
       223.000         166.000
  21568040.398     1441592.15849   1128146.87247  21568039.647    21568051.462
       236.000         196.000
  24855943.537    -1461929.56949  -1122887.73345  24855942.379    24855957.767
       203.000         135.000
 00  4 20 21 56 30.0000000  0  8G17G30G26G24G 6G 5G10G13
  22043347.213    -3986846.59349  -3091386.31447  22043346.349    22043359.769
       236.000         195.000
  21281742.875     1336717.44049   1044399.84747  21281743.396    21281755.919
       241.000         203.000
  23803411.054    -6261330.24949  -4130276.56845  23803409.852    23803433.206
       215.000         152.000
  23871722.794     2564545.93449   1996885.16345  23871722.660    23871737.240
       213.000         153.000
  20675644.289    -3534692.42049  -2733013.67648  20675644.349    20675654.378
       244.000         213.000
  23068165.408     3701399.57049   2875589.19846  23068166.331    23068186.700
       219.000         165.000
  21580578.395     1507479.80449   1179487.88047  21580577.807    21580589.270
       236.000         196.000
  24857527.606    -1453601.59749  -1116398.29145  24857528.341    24857541.825
       209.000         135.000
 00  4 20 21 57  0.0000000  0  8G17G30G26G24G 6G 5G10G13
  22033643.491    -4037839.52149  -3131120.92647  22033642.577    22033656.201
       235.000         194.000
  21293737.462     1399749.03449   1093515.26547  21293738.032    21293750.563
       241.000         203.000
  23787068.928    -6347206.75649  -4197192.80545  23787067.806    23787090.697
       214.000         152.000
  23885924.005     2639173.55849   2055036.45545  23885923.469    23885939.634
       213.000         153.000
  20667813.363    -3575844.09249  -2765079.86348  20667813.351    20667823.464
       244.000         213.000
  23087669.553     3803893.02349   2955453.84546  23087670.348    23087690.574
       218.000         165.000
  21593201.445     1573814.11749   1231176.93747  21593200.868    21593212.183
       236.000         196.000
  24859209.698    -1444759.85649  -1109508.51245  24859211.466    24859224.751
       210.000         135.000
 00  4 20 21 57 30.0000000  0  9G17G30G26G24G 6G23G 5G10G13
  22023983.410    -4088602.93349  -3170676.69047  22023982.724    22023995.892
       235.000         195.000
  21305820.131     1463243.29149   1142991.19947  21305820.807    21305833.418
       241.000         203.000
  23770743.339    -6432996.23249  -4264041.21745  23770742.907    23770765.624
       214.000         147.000
  23900114.625     2713745.87349   2113144.61845  23900115.135    23900129.789
       211.000         152.000
  20660036.600    -3616711.13049  -2796924.26448  20660036.404    20660046.549
       244.000         214.000
                  -1070486.10349   -801886.16543
       213.000          74.000
  23107197.947     3906513.76349   3035417.64146  23107197.750    23107218.785
       220.000         164.000
  21605903.364     1640563.18249   1283189.18347  21605902.925    21605913.955
       236.000         196.000
  24860992.735    -1435391.82249  -1102208.63645  24860993.522    24861007.395
       203.000         136.000
 00  4 20 21 58  0.0000000  0  9G17G30G26G24G 6G23G 5G10G13
  22014363.937    -4139153.16349  -3210066.34647  22014363.134    22014376.208
       236.000         195.000
  21317981.994     1527153.84449   1192791.51347  21317982.818    21317994.862
       242.000         203.000
  23754432.246    -6518709.50049  -4330830.28545  23754432.369    23754454.799
       214.000         145.000
  23914291.057     2788243.25949   2171194.40945  23914290.911    23914307.676
       211.000         152.000
  20652313.137    -3657298.15849  -2828550.47748  20652313.121    20652323.215
       245.000         214.000
                  -1174589.95849   -883005.67143
       215.000          74.000
  23126750.955     4009263.83549   3115482.25646  23126750.933    23126771.621
       220.000         163.000
  21618682.222     1707716.34049   1335516.29847  21618681.428    21618692.603
       236.000         196.000
  24862873.034    -1425511.76449  -1094509.76945  24862873.011    24862887.127
       206.000         137.000
 00  4 20 21 58 30.0000000  0  8G17G30G26G24G 6G 5G10G13
  22004781.451    -4189509.15549  -3249304.65747  22004780.567    22004793.694
       236.000         196.000
  21330220.723     1591468.31249   1242906.57147  21330221.365    21330233.928
       242.000         203.000
  23738136.619    -6604341.56249  -4397556.04645  23738134.721    23738158.190
       215.000         143.000
  23928453.076     2862664.54149   2229184.89245  23928453.017    23928467.659
       211.000         152.000
  20644641.980    -3697610.16349  -2859962.38848  20644641.702    20644651.851
       244.000         214.000
  23146329.437     4112147.69349   3195651.10145  23146329.090    23146351.310
       216.000         160.000
  21631537.599     1775271.82149   1388156.91747  21631537.069    21631548.687
       236.000         195.000
  24864848.671    -1415130.05749  -1086420.01345  24864848.673    24864863.680
       207.000         137.000
 00  4 20 21 59  0.0000000  0  9G17G30G26G24G 6G23G 5G10G13
  21995233.642    -4239682.80649  -3288400.86947  21995232.807    21995245.408
       236.000         196.000
  21342539.527     1656203.37249   1293349.36647  21342539.987    21342552.611
       242.000         203.000
  23721860.136    -6689873.02749  -4464203.44745  23721858.779    23721882.339
       215.000         145.000
  23942603.815     2937027.11649   2287129.63245  23942604.180    23942619.678
       212.000         151.000
  20637025.525    -3737634.47349  -2891150.11748  20637025.445    20637035.427
       245.000         214.000
                  -1382414.34649   -644879.33043
       212.000          74.000
  23165933.574     4215166.75949   3275925.30145  23165933.088    23165955.346
       213.000         157.000
  21644469.598     1843229.91449   1441111.26047  21644469.036    21644480.676
       236.000         195.000
  24866920.172    -1404243.97149  -1077937.23045  24866921.079    24866934.240
       205.000         137.000
 00  4 20 21 59 30.0000000  0  9G17G30G26G24G 6G23G 5G10G13
  21985721.265    -4289670.27849  -3327352.01647  21985720.482    21985733.511
       236.000         195.000
  21354938.530     1721360.05849   1344120.68347  21354939.283    21354951.955
       242.000         203.000
  23705602.842    -6775303.74449  -4530772.32245  23705602.503    23705625.436
       214.000         147.000
  23956749.124     3011361.82149   2345052.65145  23956748.478    23956765.222
       210.000         150.000
  20629464.336    -3777368.89249  -2922111.96148  20629464.229    20629474.194
       244.000         214.000
                  -1486165.06049   -725723.79743
       211.000          74.000
  23185563.372     4318321.00449   3356304.82145  23185563.738    23185584.624
       214.000         157.000
  21657480.586     1911603.09049   1494389.04047  21657480.119    21657491.449
       236.000         195.000
  24869083.920    -1392874.02749  -1069077.38645  24869083.692    24869097.880
       206.000         137.000
 00  4 20 22  0  0.0000000  0  9G17G30G26G24G 6G23G 5G10G13
  21976245.768    -4339463.64849  -3366151.91147  21976244.912    21976258.075
       236.000         195.000
  21367419.105     1786945.56249   1395226.14847  21367419.283    21367432.140
       241.000         203.000
  23689365.921    -6860627.54249  -4597257.88445  23689364.754    23689388.102
       212.000         148.000
  23970895.351     3085699.99749   2402978.39545  23970896.494    23970911.527
       211.000         149.000
  20621960.164    -3816803.41249  -2952840.11948  20621959.944    20621970.097
       244.000         214.000
                  -1589799.16149   -806476.91644                  24079589.036
       209.000         130.000
  23205216.627     4421598.16949   3436780.10345  23205217.262    23205238.551
       216.000         157.000
  21670572.484     1980401.21349   1547997.94247  21670571.965    21670583.901
       236.000         195.000
  24871339.092    -1381021.02649  -1059841.15945  24871340.020    24871353.920
       206.000         137.000
 00  4 20 22  0 30.0000000  0  9G17G30G26G24G 6G23G 5G10G13
  21966809.704    -4389050.05149  -3404790.54347  21966809.334    21966821.781
       237.000         196.000
  21379985.807     1852983.56849   1446684.20947  21379986.763    21379999.068
       241.000         203.000
  23673148.227    -6945850.11849  -4663664.56945  23673147.241    23673170.040
       210.000         147.000
  23985044.741     3160054.69849   2460917.00145  23985045.079    23985060.800
       211.000         149.000
  20614514.375    -3855931.13249  -2983329.21248  20614514.179    20614524.364
       244.000         214.000
  24059863.543    -1693317.27549   -887139.62045  24059861.644    24059889.908
       203.000         135.000
  23224889.816     4524979.49049   3517336.56445  23224890.783    23224911.734
       218.000         161.000
  21683745.540     2049626.03949   1601939.34447  21683744.936    21683756.605
       236.000         195.000
  24873687.815    -1368678.53949  -1050223.49845  24873687.934    24873703.365
       205.000         136.000
 00  4 20 22  1  0.0000000  0  9G17G30G26G24G 6G23G 5G10G13
  21957416.360    -4438412.12849  -3443254.37647  21957415.607    21957428.174
       236.000         196.000
  21392640.246     1919482.43349   1498501.38447  21392641.093    21392653.622
       241.000         202.000
  23656948.810    -7030976.10849  -4729995.99645  23656947.926    23656970.500
       210.000         147.000
  23999197.425     3234426.87949   2518869.23045  23999197.022    23999213.215
       210.000         149.000
  20607129.065    -3894741.05549  -3013570.66948  20607128.882    20607138.934
       245.000         214.000
  24040190.154    -1796699.60849   -967696.49845  24040188.784    24040216.213
       201.000         136.000
  23244581.953     4628460.09549   3597970.38346  23244582.920    23244604.154
       219.000         164.000
  21697002.045     2119289.26349   1656222.35947  21697001.638    21697012.813
       236.000         194.000
  24876130.321    -1355842.80249  -1040221.50245  24876130.343    24876144.179
       202.000         136.000
 00  4 20 22  1 30.0000000  0  9G17G30G26G24G 6G23G 5G10G13
  21948066.205    -4487546.82449  -3481541.02247  21948065.261    21948077.989
       236.000         196.000
  21405380.841     1986434.30149   1550671.54947  21405381.643    21405394.391
       241.000         202.000
  23640766.054    -7116015.50549  -4796259.94545  23640765.099    23640786.949
       210.000         149.000
  24013348.332     3308790.08249   2576814.44945  24013349.234    24013365.461
       210.000         149.000
  20599802.097    -3933244.38149  -3043573.21348  20599801.984    20599812.085
       244.000         214.000
  24020547.745    -1899918.17949  -1048125.78145  24020546.022    24020573.370
       203.000         140.000
  23264293.013     4732040.81249   3678682.20245  23264293.195    23264314.674
       216.000         162.000
  21710340.867     2189384.77249   1710842.21747  21710340.334    21710351.751
       236.000         194.000
  24878667.930    -1342507.38649  -1029830.18245  24878667.637    24878681.474
       204.000         135.000
 00  4 20 22  2  0.0000000  0  9G17G30G26G24G 6G23G 5G10G13
  21938758.037    -4536460.90649  -3519655.77647  21938757.035    21938770.209
       236.000         195.000
  21418208.138     2053841.78449   1603196.72647  21418208.923    21418221.443
       241.000         202.000
  23624601.752    -7200957.03149  -4862447.64045  23624599.420    23624623.000
       210.000         149.000
  24027491.235     3383110.86649   2634726.61345  24027491.314    24027507.389
       211.000         150.000
  20592531.926    -3971449.19549  -3073343.16248  20592531.927    20592541.976
       244.000         214.000
  24000937.725    -2002967.06949  -1128422.84845  24000936.028    24000963.995
       209.000         145.000
  23284024.182     4835727.73849   3759476.77845  23284023.856    23284046.509
       216.000         159.000
  21723757.426     2259889.13849   1765780.65647  21723756.856    21723768.258
       236.000         194.000
  24881301.651    -1328667.11449  -1019045.45745  24881300.474    24881315.660
       206.000         135.000
 00  4 20 22  2 30.0000000  0  9G17G30G26G24G 6G23G 5G10G13
  21929490.805    -4585160.14049  -3557603.11347  21929490.120    21929502.699
       237.000         196.000
  21431121.176     2121699.43349   1656072.69247  21431121.733    21431134.584
       241.000         202.000
  23608460.237    -7285778.77849  -4928541.99145  23608458.204    23608481.867
       209.000         150.000
  24041622.832     3457372.65549   2692592.83945  24041623.560    24041639.109
       211.000         149.000
  20585318.181    -4009357.53549  -3102882.08548  20585318.021    20585328.211
       245.000         214.000
  23981358.123    -2105856.78649  -1208595.91445  23981356.283    23981383.845
       209.000         150.000
  23303776.417     4939524.60849   3840357.03845  23303777.121    23303798.301
       217.000         159.000
  21737251.054     2330798.47849   1821034.66047  21737250.515    21737261.711
       236.000         194.000
  24884030.031    -1314328.59849  -1007872.49945  24884030.324    24884044.837
       205.000         135.000
 00  4 20 22  3  0.0000000  0  9G17G30G26G24G 6G23G 5G10G13
  21920262.234    -4633656.51549  -3595392.37647  21920261.579    21920273.918
       237.000         197.000
  21444119.673     2190006.64049   1709298.95247  21444120.494    21444133.297
       240.000         202.000
  23592346.402    -7370455.42749  -4994523.26845  23592346.009    23592368.550
       209.000         150.000
  24055744.023     3531579.15849   2750415.98545  24055744.295    24055760.230
       210.000         149.000
  20578161.559    -4046965.99449  -3132187.33848  20578161.315    20578171.242
       244.000         214.000
  23961811.938    -2208570.06349  -1288631.48845  23961809.664    23961837.328
       210.000         153.000
  23323551.693     5043442.40149   3921331.49645  23323552.391    23323574.021
       218.000         161.000
  21750822.033     2402114.14249   1876605.27347  21750821.550    21750832.911
       235.000         194.000
  24886856.944    -1299472.23849   -996296.04645  24886856.528    24886870.858
       204.000         134.000
 00  4 20 22  3 30.0000000  0  9G17G30G26G24G 6G23G 5G10G13
  21911071.615    -4681952.90349  -3633025.78847  21911070.721    21911083.435
       236.000         196.000
  21457204.834     2258769.36249   1762880.17047  21457205.326    21457218.201
       240.000         202.000
  23576263.425    -7454970.35649  -5060378.52445  23576262.443    23576284.709
       209.000         151.000
  24069856.583     3605740.65949   2808204.05745  24069857.265    24069873.570
       212.000         148.000
  20571062.209    -4084272.94449  -3161257.64148  20571061.990    20571072.000
       244.000         214.000
  23942297.712    -2311115.71249  -1368536.44745  23942296.083    23942322.652
       210.000         154.000
  23343348.000     5147470.86849   4002392.18546  23343348.826    23343371.087
       220.000         164.000
  21764470.128     2473835.20649   1932491.79647  21764469.811    21764480.810
       236.000         193.000
  24889783.724    -1284091.29449   -984310.81645  24889783.282    24889797.200
       204.000         133.000
 00  4 20 22  4  0.0000000  0  9G17G30G26G24G 6G23G 5G10G13
  21901919.678    -4730045.85449  -3670500.69147  21901918.927    21901931.835
       237.000         197.000
  21470375.186     2327979.45949   1816809.97847  21470375.748    21470388.959
       240.000         201.000
  23560213.765    -7539309.77749  -5126097.03245  23560212.634    23560234.304
       210.000         151.000
  24083965.301     3679881.89649   2865976.33245  24083965.408    24083981.632
       211.000         147.000
  20564020.093    -4121279.22349  -3190093.66848  20564019.865    20564029.721
       244.000         214.000
  23922812.947    -2413506.15649  -1448320.47745  23922809.903    23922837.571
       206.000         152.000
  23363163.545     5251600.28149   4083531.54746  23363164.388    23363185.586
       220.000         165.000
  21778198.302     2545976.98749   1988706.14147  21778197.608    21778209.201
       235.000         193.000
  24892810.635    -1268185.04149   -971916.23345  24892811.815    24892824.749
       206.000         134.000
 00  4 20 22  4 30.0000000  0  9G17G30G26G24G 6G23G 5G10G13
  21892804.311    -4777947.11149  -3707826.21447  21892803.617    21892816.371
       237.000         197.000
  21483628.702     2397626.65749   1871080.38847  21483629.603    21483642.104
       241.000         201.000
  23544194.482    -7623489.79349  -5191691.32145  23544194.064    23544215.436
       212.000         153.000
  24098072.056     3754013.37649   2923741.00745  24098072.412    24098088.503
       211.000         146.000
  20557034.128    -4157990.72849  -3218699.99548  20557034.101    20557044.141
       245.000         214.000
  23903357.530    -2515742.53349  -1527984.44945  23903355.411    23903382.312
       207.000         151.000
  23382994.202     5355808.98349   4164732.69246  23382995.269    23383016.223
       217.000         163.000
  21792008.144     2618548.17449   2045255.09247  21792007.577    21792019.159
       235.000         193.000
  24895938.888    -1251746.35249   -959106.75245  24895939.430    24895953.117
       203.000         133.000
 00  4 20 22  5  0.0000000  0  9G17G30G26G24G 6G23G 5G10G13
  21883725.051    -4825658.60549  -3745003.89547  21883724.403    21883736.749
       237.000         197.000
  21496966.112     2467714.59749   1925694.23647  21496966.440    21496979.850
       240.000         201.000
  23528201.178    -7707533.19949  -5257179.18645  23528200.286    23528221.423
       213.000         154.000
  24112175.673     3828127.68149   2981492.31745  24112176.268    24112191.562
       212.000         146.000
  20550103.508    -4194411.42249  -3247079.72148  20550103.349    20550113.364
       244.000         214.000
  23883933.040    -2617816.29149  -1607521.71245  23883930.539    23883957.135
       208.000         151.000
  23402840.284     5460099.33849   4245997.42345  23402840.661    23402862.959
       215.000         160.000
  21805899.158     2691546.11549   2102136.57547  21805898.431    21805910.307
       234.000         192.000
  24899168.332    -1234775.33249   -945882.50845  24899169.094    24899182.577
       207.000         134.000
 00  4 20 22  5 30.0000000  0  9G17G30G26G24G 6G23G 5G10G13
  21874683.716    -4873170.73249  -3782026.21347  21874682.932    21874695.413
       236.000         197.000
  21510386.543     2538238.69349   1980647.94447  21510387.159    21510400.482
       240.000         201.000
  23512232.395    -7791447.63349  -5322566.55345  23512230.971    23512253.045
       213.000         155.000
  24126273.852     3902213.72549   3039221.59245  24126274.817    24126291.122
       210.000         146.000
  20543228.104    -4230541.53649  -3275233.01848  20543228.059    20543237.934
       244.000         214.000
  23864536.003    -2719745.21149  -1686946.13145  23864534.087    23864560.294
       211.000         151.000
  23422702.060     5564471.97549   4327326.27145  23422702.331    23422725.332
       215.000         158.000
  21819870.069     2764963.86849   2159345.19347  21819869.659    21819881.086
       235.000         192.000
  24902494.808    -1217293.90949   -932260.57145  24902495.081    24902509.136
       203.000         134.000
 00  4 20 22  6  0.0000000  0  9G17G30G26G24G 6G23G 5G10G13
  21865679.540    -4920487.21249  -3818896.08047  21865678.905    21865691.148
       237.000         197.000
  21523888.170     2609189.72249   2035934.32547  21523889.092    21523901.742
       240.000         201.000
  23496287.812    -7875234.79249  -5387854.74345  23496287.079    23496308.441
       213.000         155.000
  24140365.414     3976265.04649   3096923.80145  24140365.723    24140381.400
       212.000         147.000
  20536410.398    -4266368.79349  -3303150.32448  20536410.449    20536420.305
       244.000         214.000
  23845167.713    -2821523.51649  -1766253.21645  23845166.175    23845191.855
       212.000         154.000
  23442582.106     5668940.44849   4408729.82845  23442583.967    23442605.684
       214.000         156.000
  21833917.964     2838786.07149   2216868.95547  21833917.453    21833929.316
       234.000         192.000
  24905918.391    -1199302.63349   -918241.36145  24905917.752    24905933.433
       204.000         134.000
 00  4 20 22  6 30.0000000  0  9G17G30G26G24G 6G23G 5G10G13
  21856713.528    -4967603.56749  -3855610.00747  21856713.102    21856725.281
       237.000         197.000
  21537471.407     2680569.37149   2091554.69947  21537471.878    21537485.045
       239.000         200.000
  23480368.423    -7958890.05149  -5453040.15545  23480367.440    23480388.358
       214.000         156.000
  24154448.523     4050271.37649   3154590.95545  24154449.223    24154465.564
       210.000         148.000
  20529654.796    -4301869.45349  -3330813.13848  20529654.686    20529664.729
       244.000         214.000
  23825829.729    -2923142.73849  -1845436.33545  23825827.673    23825853.720
       216.000         157.000
  23462481.523     5773510.61649   4490212.61545  23462482.361    23462504.939
       214.000         154.000
  21848040.705     2913001.34849   2274699.01347  21848040.197    21848051.270
       234.000         191.000
  24909439.322    -1180799.03049   -903822.93345  24909439.324    24909452.310
       201.000         134.000
 00  4 20 22  7  0.0000000  0  8G17G30G26G24G 6G23G 5G10
  21847788.442    -5014504.98449  -3892156.45747  21847787.441    21847800.093
       237.000         197.000
  21551135.635     2752374.98049   2147506.98447  21551136.269    21551149.480
       240.000         200.000
  23464478.681    -8042389.05249  -5518103.81645  23464477.420    23464498.868
       211.000         156.000
  24168524.233     4124238.80849   3212227.79145  24168524.659    24168541.190
       213.000         148.000
  20522966.926    -4337014.44149  -3358198.81048  20522966.856    20522976.896
       244.000         214.000
  23806521.684    -3024604.93949  -1924497.12145  23806519.629    23806545.323
       217.000         159.000
  23482403.574     5878200.09249   4571788.33445  23482404.170    23482427.742
       218.000         154.000
  21862238.519     2987611.29849   2332836.60447  21862238.337    21862249.872
       234.000         191.000
 00  4 20 22  7 30.0000000  0  8G17G30G26G24G 6G23G 5G10
  21838907.528    -5061173.94149  -3928521.76547  21838906.749    21838919.121
       237.000         197.000
  21564883.099     2824617.67949   2203799.86047  21564883.971    21564897.129
       240.000         200.000
  23448625.513    -8125695.67549  -5583017.56245  23448624.005    23448645.443
       212.000         156.000
  24182600.120     4198207.67249   3269865.74745  24182600.874    24182616.546
       212.000         147.000
  20516352.875    -4371771.40349  -3385282.12248  20516352.864    20516362.889
       244.000         214.000
  23787247.467    -3125888.81449  -2003418.93545  23787245.373    23787270.598
       216.000         160.000
  23502350.070     5983017.64349   4653463.87645  23502350.711    23502373.225
       211.000         154.000
  21876514.633     3062632.32749   2391294.51447  21876514.064    21876525.390
       234.000         191.000
 00  4 20 22  8  0.0000000  0  8G17G30G26G24G 6G23G 5G10
  21830071.796    -5107605.58049  -3964702.15047  21830071.416    21830083.518
       238.000         198.000
  21578712.005     2897288.50449   2260426.34047  21578712.678    21578725.584
       240.000         199.000
  23432810.395    -8208803.07349  -5647776.09645  23432809.983    23432830.072
       214.000         158.000
  24196678.488     4272189.58349   3327513.85545  24196678.798    24196694.490
       212.000         146.000
  20509813.865    -4406134.06749  -3412058.19048  20509813.582    20509823.730
       244.000         214.000
  23768010.377    -3226977.44349  -2082188.62145  23768008.470    23768033.800
       216.000         160.000
  23522321.490     6087966.53149   4735241.73145  23522322.075    23522344.709
       211.000         152.000
  21890869.351     3138066.69749   2450074.51247  21890868.877    21890880.416
       234.000         190.000
 00  4 20 22  8 30.0000000  0  8G17G30G26G24G 6G23G 5G10
  21821279.634    -5153808.48949  -4000704.30247  21821279.073    21821291.488
       238.000         199.000
  21592618.760     2970368.25049   2317371.46247  21592619.421    21592632.664
       240.000         200.000
  23417029.353    -8291731.71349  -5712395.36145  23417028.788    23417048.843
       213.000         158.000
  24210757.381     4346174.28349   3385164.13645  24210757.321    24210773.425
       213.000         146.000
  20503346.363    -4440120.85949  -3438541.36848  20503346.279    20503356.382
       244.000         214.000
  23748809.787    -3327874.68649  -2160809.19145  23748808.052    23748832.611
       214.000         158.000
  23542315.194     6193032.62749   4817110.91945  23542316.733    23542339.379
       212.000         151.000
  21905303.426     3213917.50649   2509179.00647  21905302.714    21905314.433
       234.000         190.000
 00  4 20 22  9  0.0000000  0  8G17G30G26G24G 6G23G 5G10
  21812530.662    -5199784.45549  -4036529.61347  21812529.750    21812542.051
       237.000         199.000
  21606601.188     3043845.63749   2374626.42247  21606601.951    21606614.961
       240.000         200.000
  23401280.810    -8374488.78449  -5776880.93245  23401279.731    23401300.300
       213.000         156.000
  24224838.089     4420168.16749   3442821.57145  24224838.753    24224854.362
       211.000         145.000
  20496947.077    -4473749.19449  -3464745.22648  20496946.909    20496956.867
       245.000         214.000
  23729644.904    -3428584.06549  -2239283.35045  23729643.460    23729668.136
       213.000         156.000
  23562328.638     6298202.10749   4899060.67845  23562329.199    23562353.067
       213.000         150.000
  21919813.472     3290168.19649   2568595.09347  21919813.479    21919824.484
       233.000         190.000
 00  4 20 22  9 30.0000000  0  8G17G30G26G24G 6G23G 5G10
  21803823.082    -5245542.37149  -4072185.01547  21803822.128    21803834.423
       237.000         198.000
  21620656.094     3117704.01049   2432178.25647  21620656.611    21620669.953
       239.000         199.000
  23385559.394    -8457103.71649  -5841255.74845  23385558.195    23385578.751
       210.000         154.000
  24238913.707     4494135.61849   3500458.43345  24238913.589    24238929.664
       213.000         145.000
  20490605.465    -4507074.47249  -3490712.93948  20490605.429    20490615.579
       244.000         215.000
  23710515.266    -3529108.67549  -2317613.55945  23710513.073    23710537.826
       215.000         155.000
  23582355.298     6403440.68249   4981064.28045  23582355.755    23582380.043
       214.000         152.000
  21934393.348     3366785.73649   2628297.04047  21934392.806    21934404.213
       234.000         190.000
 00  4 20 22 10  0.0000000  0  8G17G30G26G24G 6G23G 5G10
  21795154.625    -5291094.95349  -4107680.42947  21795154.139    21795165.874
       238.000         198.000
  21634778.647     3191918.01849   2490007.20847  21634779.384    21634792.495
       240.000         199.000
  23369859.308    -8539605.89049  -5905542.71545  23369857.974    23369879.064
       211.000         153.000
  24252976.492     4568035.42649   3558042.58245  24252976.464    24252993.880
       212.000         144.000
  20484314.478    -4540133.85849  -3516473.46848  20484314.494    20484324.385
       244.000         215.000
  23691417.512    -3629465.56249  -2395813.08945  23691415.245    23691439.453
       215.000         153.000
  23602389.184     6508717.43549   5063097.61145  23602389.326    23602413.861
       213.000         152.000
  21949037.979     3443743.68849   2688264.23747  21949037.547    21949048.768
       233.000         190.000
 00  4 20 22 10 30.0000000  0  8G17G30G26G24G 6G23G 5G10
  21786520.487    -5336467.66849  -4143035.67747  21786520.026    21786532.386
       238.000         199.000
  21648968.085     3266483.30549   2548109.88047  21648968.771    21648982.035
       239.000         199.000
  23354179.021    -8622003.98349  -5969748.56445  23354177.689    23354198.814
       211.000         153.000
  24267023.220     4641851.03449   3615561.13545  24267024.049    24267038.478
       209.000         142.000
  20478071.380    -4572941.31249  -3542037.68348  20478071.436    20478081.261
       244.000         215.000
  23672347.488    -3729676.81649  -2473899.15145  23672345.146    23672369.575
       214.000         152.000
  23622423.051     6613993.94949   5145130.75445  23622423.826    23622446.994
       215.000         152.000
  21963742.327     3521015.57349   2748476.06447  21963741.978    21963753.148
       233.000         189.000
 00  4 20 22 11  0.0000000  0  8G17G30G26G24G 6G23G 5G10
  21777919.923    -5381663.80749  -4178253.33047  21777918.980    21777931.356
       237.000         199.000
  21663227.337     3341415.61249   2606498.53947  21663228.159    21663241.203
       239.000         198.000
  23338520.914    -8704286.44149  -6033864.33245  23338520.099    23338541.176
       213.000         157.000
  24281054.087     4715583.26049   3673014.70945  24281053.886    24281070.177
       208.000         140.000
  20471876.224    -4605497.19949  -3567405.87148  20471876.135    20471886.154
       244.000         215.000
  23653307.108    -3829732.25449  -2551863.79445  23653304.848    23653328.963
       213.000         150.000
  23642453.382     6719251.70849   5227149.28945  23642454.100    23642478.295
       216.000         155.000
  21978504.866     3598592.90549   2808925.89647  21978504.448    21978515.810
       233.000         189.000
 00  4 20 22 11 30.0000000  0  8G17G30G26G24G 6G23G 5G10
  21769349.498    -5426700.71549  -4213346.90147  21769348.634    21769360.802
       238.000         199.000
  21677558.448     3416725.27649   2665181.24747  21677559.228    21677572.318
       239.000         198.000
  23322888.061    -8786436.06849  -6097876.58845  23322887.361    23322906.896
       213.000         157.000
  24295068.371     4789228.25249   3730400.31845  24295068.434    24295086.386
       207.000         138.000
  20465733.302    -4637778.55849  -3592560.14548  20465733.238    20465742.955
       245.000         215.000
  23634297.954    -3929623.31449  -2629700.33345  23634295.548    23634319.110
       213.000         150.000
  23662480.125     6824491.09649   5309153.48345  23662480.656    23662504.609
       214.000         157.000
  21993330.679     3676502.98549   2869635.00547  21993330.024    21993341.384
       233.000         189.000
 00  4 20 22 12  0.0000000  0  8G17G30G26G24G 6G23G 5G10
  21760810.457    -5471573.42549  -4248312.53847  21760809.975    21760821.708
       238.000         199.000
  21691965.693     3492435.27749   2724175.90847  21691966.564    21691979.807
       239.000         198.000
  23307289.480    -8868405.40549  -6161748.36145  23307288.680    23307308.711
       214.000         157.000
  24309074.487     4862830.32049   3787752.43045  24309073.808    24309091.055
       209.000         138.000
  20459656.979    -4669709.69749  -3617441.51848  20459656.894    20459666.761
       245.000         215.000
  23615322.040    -4029339.63649  -2707400.71445  23615319.794    23615344.156
       212.000         152.000
  23682509.038     6929741.69249   5391166.40645  23682510.629    23682533.881
       214.000         158.000
  22008227.053     3754783.79749   2930633.00047  22008226.772    22008237.992
       233.000         189.000
 00  4 20 22 12 30.0000000  0  8G17G30G26G24G 6G23G 5G10
  21752307.718    -5516255.39049  -4283129.54347  21752307.111    21752318.881
       238.000         199.000
  21706454.344     3568572.97349   2783503.83747  21706455.114    21706468.489
       240.000         197.000
  23291734.639    -8950145.30449  -6225441.34845  23291733.588    23291753.229
       214.000         158.000
  24323080.280     4936431.16849   3845103.62845  24323079.962    24323095.635
       209.000         139.000
  20453654.881    -4701250.77449  -3642018.93948  20453654.719    20453664.465
       245.000         215.000
  23596386.814    -4128842.72249  -2784934.92645  23596383.733    23596408.300
       215.000         153.000
  23702547.880     7035044.22349   5473219.78945  23702548.547    23702573.144
       217.000         159.000
  22023198.668     3833459.91649   2991939.02447  22023198.467    22023209.551
       233.000         188.000
 00  4 20 22 13  0.0000000  0  8G17G30G26G24G 6G23G 5G10
  21743845.162    -5560725.95249  -4317781.80247  21743844.000    21743856.600
       239.000         199.000
  21721025.781     3645145.86249   2843170.86747  21721026.586    21721039.897
       239.000         197.000
  23276226.655    -9031638.28249  -6288941.94045  23276225.954    23276245.091
       217.000         159.000
  24337087.324     5010038.19649   3902459.63545  24337087.855    24337103.283
       211.000         139.000
  20447729.224    -4732390.02149  -3666283.25348  20447729.232    20447739.057
       245.000         215.000
  23577496.118    -4228111.45849  -2862286.54145  23577494.530    23577517.391
       215.000         155.000
  23722602.873     7140431.73449   5555339.38745  23722603.313    23722627.218
       216.000         160.000
  22038249.235     3912550.81449   3053568.24947  22038248.618    22038260.060
       233.000         188.000
 00  4 20 22 13 30.0000000  0  8G17G30G26G24G 6G23G 5G10
  21735426.064    -5604967.93949  -4352255.94247  21735425.228    21735437.480
       239.000         199.000
  21735679.828     3722152.66549   2903176.01947  21735680.711    21735694.050
       239.000         197.000
  23260770.131    -9112861.58149  -6352232.42045  23260769.614    23260788.668
       218.000         159.000
  24351093.937     5083642.59249   3959813.59745  24351093.439    24351111.112
       212.000         141.000
  20441881.139    -4763122.09849  -3690230.28648  20441881.150    20441890.926
       244.000         215.000
  23558646.825    -4327162.82949  -2939468.77945  23558644.150    23558668.372
       216.000         157.000
  23742678.901     7245929.36449   5637544.80845  23742679.575    23742704.036
       218.000         160.000
  22053377.915     3992052.48749   3115517.56446  22053377.195    22053388.674
       232.000         187.000
 00  4 20 22 14  0.0000000  0  8G17G30G26G24G 6G23G 5G10
  21727053.998    -5648963.05749  -4386537.73347  21727053.194    21727065.091
       239.000         200.000
  21750415.596     3799589.11049   2963515.93847  21750416.350    21750429.791
       239.000         196.000
  23245363.771    -9193821.06649  -6415317.31145  23245362.710    23245383.480
       217.000         159.000
  24365100.453     5157246.65849   4017167.32245  24365100.552    24365116.543
       215.000         142.000
  20436106.516    -4793467.88349  -3713876.31948  20436106.458    20436116.225
       244.000         215.000
  23539841.068    -4425984.94049  -3016472.37745  23539838.619    23539861.560
       214.000         158.000
  23762777.387     7351545.44449   5719842.53145  23762779.280    23762802.227
       216.000         159.000
  22068579.313     4071936.15649   3177764.52746  22068578.741    22068590.553
       232.000         187.000
 00  4 20 22 14 30.0000000  0  8G17G30G26G24G 6G23G 5G10
  21718725.458    -5692729.29049  -4420641.17447  21718724.660    21718735.882
       239.000         199.000
  21765229.231     3877434.78549   3024174.74247  21765229.815    21765243.190
       238.000         196.000
  23230001.473    -9274548.88449  -6478221.64745  23230000.265    23230020.166
       217.000         160.000
  24379102.065     5230824.60549   4074500.69245  24379101.399    24379119.114
       214.000         142.000
  20430395.715    -4823478.04049  -3737260.81848  20430395.801    20430405.491
       245.000         215.000
  23521078.173    -4524581.81949  -3093300.46245  23521076.228    23521099.741
       214.000         158.000
  23782894.546     7457259.65649   5802216.70045  23782895.714    23782919.454
       214.000         158.000
  22083849.185     4152179.76349   3240291.96746  22083848.640    22083860.199
       232.000         187.000
 00  4 20 22 15  0.0000000  0  8G17G30G26G24G 6G23G 5G10
  21710435.512    -5736292.79449  -4454586.64047  21710434.949    21710446.804
       239.000         199.000
  21780115.664     3955662.96349   3085131.60447  21780116.849    21780129.757
       239.000         196.000
  23214678.476    -9355070.00549  -6540964.93945  23214678.083    23214696.820
       217.000         161.000
  24393092.043     5304341.87349   4131786.77645  24393092.024    24393109.044
       211.000         141.000
  20424745.917    -4853168.02749  -3760395.83548  20424745.853    20424755.764
       245.000         215.000
  23502352.153    -4622985.26549  -3169977.82745  23502350.291    23502372.999
       217.000         159.000
  23803023.170     7563033.74749   5884637.53045  23803024.229    23803048.530
       212.000         156.000
  22099185.316     4232771.45249   3303090.63746  22099184.643    22099196.486
       232.000         186.000
 00  4 20 22 15 30.0000000  0  8G17G30G26G24G 6G23G 5G10
  21702182.585    -5779661.68349  -4488380.45347  21702181.542    21702193.889
       239.000         200.000
  21795069.361     4034244.39649   3146363.71947  21795069.897    21795083.816
       239.000         196.000
  23199394.101    -9435388.30249  -6603550.19845  23199393.134    23199411.799
       218.000         161.000
  24407070.632     5377799.97549   4189026.73845  24407071.526    24407086.796
       214.000         140.000
  20419156.007    -4882543.13449  -3783285.49848  20419155.803    20419165.614
       245.000         215.000
  23483663.788    -4721190.50649  -3246500.75845  23483661.649    23483685.474
       217.000         161.000
  23823158.811     7668845.33549   5967087.55845  23823159.790    23823183.158
       209.000         152.000
  22114585.722     4313700.88849   3366152.48246  22114585.101    22114596.679
       231.000         186.000
 00  4 20 22 16  0.0000000  0  8G17G30G26G24G 6G23G 5G10
  21693962.650    -5822857.10649  -4522039.10447  21693961.983    21693974.001
       239.000         200.000
  21810084.392     4113148.16249   3207847.01047  21810085.092    21810098.590
       238.000         196.000
  23184143.901    -9515527.08849  -6665995.56345  23184143.651    23184161.900
       219.000         161.000
  24421038.227     5451199.07649   4246220.75445  24421038.947    24421053.706
       212.000         140.000
  20413626.625    -4911599.93949  -3805927.12448  20413626.640    20413636.498
       245.000         215.000
  23465015.925    -4819183.29749  -3322858.12546  23465013.569    23465036.805
       219.000         163.000
  23843296.020     7774665.33249   6049544.16245  23843297.119    23843321.271
       208.000         149.000
  22130047.407     4394952.49549   3429465.38246  22130046.358    22130058.499
       231.000         186.000
 00  4 20 22 16 30.0000000  0  8G17G30G26G24G 6G23G 5G10
  21685776.015    -5865877.91449  -4555561.70647  21685775.190    21685786.829
       239.000         200.000
  21825159.377     4192367.28149   3269576.02447  21825160.096    21825173.908
       238.000         196.000
  23168929.356    -9595478.76349  -6728295.14245  23168928.614    23168947.039
       218.000         162.000
  24434993.003     5524531.34149   4303362.67245  24434993.236    24435008.716
       213.000         140.000
  20408161.403    -4940319.82649  -3828306.22448  20408161.334    20408171.107
       244.000         215.000
  23446406.578    -4916973.75349  -3399057.86046  23446405.481    23446427.242
       220.000         164.000
  23863433.218     7880485.54849   6132000.91945  23863434.778    23863459.158
       204.000         147.000
  22145571.021     4476529.56149   3493031.88246  22145570.241    22145582.074
       231.000         185.000
 00  4 20 22 17  0.0000000  0  8G17G30G26G24G 6G23G 5G10
  21677626.109    -5908705.11249  -4588933.43747  21677625.032    21677637.093
       239.000         199.000
  21840294.792     4271903.62249   3331552.23247  21840295.418    21840309.126
       238.000         195.000
  23153754.270    -9675222.63649  -6790432.78945  23153753.120    23153772.420
       218.000         162.000
  24448935.687     5597800.13749   4360455.14945  24448936.344    24448953.372
       212.000         139.000
  20402765.607    -4968674.65549  -3850400.85548  20402765.429    20402775.234
       245.000         215.000
  23427837.541    -5014552.73349  -3475092.82846  23427835.197    23427858.399
       217.000         164.000
  23883573.855     7986323.62249   6214471.56345  23883574.955    23883600.245
       208.000         148.000
  22161155.518     4558426.37649   3556847.54546  22161154.892    22161167.132
       231.000         185.000
 00  4 20 22 17 30.0000000  0  8G17G30G26G24G 6G23G 5G10
  21669515.350    -5951326.78849  -4622145.02547  21669514.567    21669527.078
       240.000         200.000
  21855494.337     4351777.11849   3393791.14847  21855495.196    21855508.768
       238.000         195.000
  23138619.811    -9754752.99449  -6852404.04346  23138618.278    23138637.322
       219.000         163.000
  24462870.275     5671026.00549   4417514.17545  24462869.978    24462887.007
       211.000         139.000
  20397440.404    -4996658.49449  -3872206.41348  20397440.306    20397450.047
       244.000         215.000
  23409311.287    -5111906.02749  -3550951.91345  23409309.312    23409332.369
       216.000         161.000
  23903721.850     8092199.79549   6296971.92345  23903723.497    23903748.272
       211.000         152.000
  22176799.459     4640635.73649   3620906.74346  22176798.722    22176810.971
       231.000         185.000
 00  4 20 22 18  0.0000000  0  8G17G30G26G24G 6G23G 5G10
  21661445.439    -5993734.41849  -4655189.83047  21661444.904    21661456.695
       240.000         201.000
  21870763.334     4432015.29749   3456314.24047  21870764.105    21870777.538
       238.000         194.000
  23123528.356    -9834057.33249  -6914199.21246  23123527.025    23123545.766
       220.000         164.000
  24476797.174     5744211.90649   4474542.03345  24476798.455    24476815.803
       211.000         138.000
  20392188.202    -5024258.86649  -3893713.16248  20392188.062    20392197.945
       245.000         215.000
  23390826.495    -5209041.39349  -3626641.18145  23390824.109    23390846.590
       216.000         160.000
  23923878.269     8198119.83849   6379506.47145  23923878.753    23923904.587
       209.000         153.000
  22192503.723     4723161.90149   3685212.80746  22192503.290    22192514.890
       231.000         185.000
 00  4 20 22 18 30.0000000  0  8G17G30G26G24G 6G23G 5G10
  21653417.654    -6035920.43649  -4688061.95047  21653416.911    21653428.532
       240.000         201.000
  21886105.182     4512636.56049   3519135.83047  21886105.774    21886119.846
       237.000         194.000
  23108483.694    -9913115.90149  -6975802.86946  23108482.510    23108501.730
       219.000         164.000
  24490718.954     5817371.23449   4531549.19045  24490719.348    24490736.513
       211.000         139.000
  20387006.968    -5051486.50449  -3914929.46748  20387006.929    20387016.647
       246.000         215.000
  23372382.524    -5305962.71149  -3702163.68045  23372380.458    23372401.656
       218.000         161.000
  23944042.014     8304078.77549   6462071.30645  23944043.544    23944069.241
       210.000         152.000
  22208272.137     4806025.16249   3749781.54146  22208272.133    22208283.597
       230.000         185.000
 00  4 20 22 19  0.0000000  0  8G17G30G26G24G 6G23G 5G10
  21645430.236    -6077894.03849  -4720768.56047  21645429.331    21645441.278
       240.000         200.000
  21901518.546     4593634.11049   3582250.62647  21901519.274    21901533.308
       236.000         193.000
  23093485.396    -9991931.12149  -7037216.90646  23093484.643    23093502.727
       220.000         164.000
  24504636.006     5890505.41449   4588536.75645  24504636.763    24504651.751
       208.000         140.000
  20381892.438    -5078363.52549  -3935872.56648  20381892.469    20381902.050
       246.000         215.000
  23353979.144    -5402670.93749  -3777520.15946  23353977.608    23353998.656
       220.000         163.000
  23964207.739     8410047.81149   6544644.02045  23964208.694    23964234.603
       208.000         151.000
  22224104.311     4889223.98249   3814611.75446  22224103.963    22224116.035
       230.000         185.000
 00  4 20 22 19 30.0000000  0  8G17G30G26G24G 6G23G 5G10
  21637481.478    -6119664.68449  -4753317.03447  21637481.144    21637492.623
       240.000         201.000
  21917000.694     4674992.61349   3645646.68647  21917001.516    21917015.410
       237.000         194.000
  23078531.048   -10070515.32149  -7098450.92546  23078529.766    23078548.182
       219.000         164.000
  24518546.628     5963605.78949   4645497.96445  24518546.234    24518563.949
       206.000         140.000
  20376840.754    -5104910.07149  -3956558.16248  20376840.637    20376850.375
       246.000         215.000
  23335614.626    -5499174.74549  -3852717.33946  23335612.442    23335634.448
       218.000         164.000
  23984367.699     8515987.01149   6627193.49745  23984368.297    23984394.965
       206.000         147.000
  22239999.202     4972751.67149   3879698.22046  22239998.360    22240010.424
       230.000         184.000
 00  4 20 22 20  0.0000000  0  8G17G30G26G24G 6G23G 5G10
  21629568.603    -6161246.95049  -4785718.70347  21629567.792    21629579.812
       240.000         202.000
  21932546.470     4756685.33849   3709303.17747  21932547.074    21932561.032
       237.000         194.000
  23063621.200   -10148865.13049  -7159502.31446  23063620.668    23063638.670
       220.000         165.000
  24532447.898     6036657.22449   4702421.03045  24532448.269    24532465.916
       207.000         139.000
  20371851.517    -5131128.59849  -3976988.15148  20371851.341    20371861.275
       247.000         215.000
  23317287.708    -5595480.88449  -3927760.49246  23317285.949    23317307.440
       219.000         163.000
  24004518.621     8621879.48149   6709706.55745  24004519.477    24004545.671
       203.000         143.000
  22255956.152     5056605.97249   3945039.20246  22255955.623    22255967.633
       230.000         184.000
 00  4 20 22 20 30.0000000  0  8G17G30G26G24G 6G23G 5G10
  21621688.628    -6202655.89149  -4817985.31247  21621687.897    21621699.719
       239.000         201.000
  21948151.287     4838688.48149   3773201.54147  21948151.931    21948166.153
       236.000         193.000
  23048753.347   -10226994.36549  -7220381.81746  23048752.221    23048770.615
       218.000         164.000
  24546340.519     6109662.98649   4759308.53245  24546340.772    24546357.445
       205.000         139.000
  20366925.059    -5157017.13649  -3997161.00648  20366925.061    20366934.828
       246.000         215.000
  23298997.936    -5691591.71749  -4002651.47545  23298995.881    23299016.946
       217.000         161.000
  24024659.479     8727718.33049   6792177.81845  24024660.524    24024685.284
       206.000         140.000
  22271974.324     5140781.86049   4010630.76046  22271973.564    22271986.146
       230.000         184.000
 00  4 20 22 21  0.0000000  0  8G17G30G26G24G 6G23G 5G10
  21613841.657    -6243891.81049  -4850117.11547  21613841.219    21613852.387
       240.000         202.000
  21963813.792     4920994.71149   3837336.07647  21963814.737    21963828.813
       236.000         194.000
  23033927.259   -10304904.20349  -7281090.37346  23033926.734    23033944.079
       220.000         163.000
  24560224.645     6182624.34549   4816161.42945  24560224.161    24560240.815
       206.000         138.000
  20362066.446    -5182549.34249  -4017056.20648  20362066.445    20362076.058
       246.000         215.000
  23280747.317    -5787496.48349  -4077381.87545  23280745.385    23280766.662
       219.000         160.000
  24044796.573     8833536.66949   6874633.09645  24044798.572    24044823.047
       207.000         139.000
  22288050.812     5225264.29749   4076461.18646  22288050.234    22288062.217
       230.000         183.000
 00  4 20 22 21 30.0000000  0  8G17G30G26G24G 6G23G 5G10
  21606028.480    -6284950.19649  -4882110.57747  21606027.668    21606039.540
       239.000         202.000
  21979536.118     5003615.29649   3901715.56047  21979536.783    21979550.949
       236.000         193.000
  23019146.949   -10382573.13349  -7341611.22046  23019145.917    23019163.682
       218.000         163.000
  24574102.755     6255554.56149   4872990.05045  24574103.982    24574121.595
       200.000         136.000
  20357282.980    -5207686.45749  -4036643.53748  20357282.806    20357292.601
       246.000         215.000
  23262539.325    -5883177.87649  -4151938.25246  23262537.281    23262558.646
       220.000         163.000
  24064936.911     8939372.42149   6957101.93845  24064936.861    24064964.256
       208.000         139.000
  22304186.255     5310056.23349   4142532.78446  22304185.514    22304197.646
       229.000         183.000
 00  4 20 22 22  0.0000000  0  8G17G30G26G24G 6G23G 5G10
  21598251.115    -6325819.76949  -4913956.90647  21598250.512    21598262.130
       239.000         202.000
  21995322.532     5086573.11249   3966357.81147  21995323.464    21995337.368
       235.000         192.000
  23004418.322   -10459970.65049  -7401920.57145  23004417.713    23004435.403
       218.000         162.000
  24587980.408     6328482.18549   4929816.64645  24587980.625    24587998.884
       201.000         137.000
  20352580.820    -5232396.21249  -4055897.87048  20352580.861    20352590.551
       246.000         215.000
  23244377.336    -5978617.33349  -4226306.08046  23244374.984    23244396.446
       219.000         165.000
  24085088.117     9045265.56549   7039615.55845  24085089.120    24085115.406
       212.000         139.000
  22320385.052     5395181.47749   4208864.10046  22320384.409    22320396.982
       229.000         183.000
 00  4 20 22 22 30.0000000  0  8G17G30G26G24G 6G23G 5G10
  21590513.967    -6366478.49749  -4945638.94647  21590513.469    21590525.229
       240.000         202.000
  22011176.524     5169885.37249   4031276.25447  22011177.089    22011191.659
       236.000         192.000
  22989744.496   -10537080.98249  -7462006.15345  22989743.562    22989761.737
       217.000         162.000
  24601860.329     6401421.16149   4986652.09045  24601861.256    24601878.064
       197.000         136.000
  20347961.855    -5256669.20449  -4074811.86548  20347961.839    20347971.704
       247.000         215.000
  23226264.457    -6073798.70249  -4300472.83346  23226262.663    23226283.474
       221.000         165.000
  24105252.230     9151226.65149   7122182.11545  24105253.370    24105279.701
       215.000         143.000
  22336646.630     5480636.74449   4275452.57746  22336645.812    22336658.185
       229.000         182.000
 00  4 20 22 23  0.0000000  0  7G17G30G26G 6G23G 5G10
  21582819.678    -6406912.14549  -4977145.60347  21582819.145    21582830.433
       239.000         203.000
  22027098.569     5253555.45549   4096473.51847  22027099.516    22027113.649
       235.000         192.000
  22975129.390   -10613882.57149  -7521851.15945  22975128.889    22975145.777
       217.000         161.000
  20343424.450    -5280513.36349  -4093391.70148  20343424.360    20343433.847
       246.000         215.000
  23208202.996    -6168710.13549  -4374429.22846  23208201.277    23208222.154
       219.000         166.000
  24125428.886     9257253.32449   7204799.74645  24125430.542    24125456.899
       215.000         147.000
  22352968.768     5566410.04849   4342288.86846  22352968.582    22352979.877
       228.000         182.000
 00  4 20 22 23 30.0000000  0  7G17G30G26G 6G23G 5G10
  21575160.023    -6447163.39749  -5008510.13047  21575159.268    21575170.639
       239.000         202.000
  22043080.167     5337538.80149   4161914.88147  22043081.272    22043095.560
       235.000         191.000
  22960565.140   -10690416.23549  -7581487.38445  22960564.012    22960581.886
       217.000         161.000
  20338956.780    -5303990.94649  -4111685.89648  20338956.703    20338966.389
       247.000         215.000
  23190181.997    -6263408.98949  -4448219.99546  23190180.212    23190200.853
       220.000         166.000
  24145603.829     9363271.08149   7287410.38945  24145604.386    24145632.116
       204.000         147.000
  22369342.999     5652456.83149   4409338.25846  22369342.556    22369355.013
       229.000         182.000
 00  4 20 22 24  0.0000000  0  7G17G30G26G 6G23G 5G10
  21567550.384    -6487151.80349  -5039669.83847  21567549.906    21567561.412
       241.000         203.000
  22059133.923     5421900.97049   4227651.43547  22059135.099    22059149.254
       236.000         191.000
  22946064.667   -10766615.28349  -7640862.89245  22946063.501    22946081.089
       218.000         160.000
  20334568.742    -5327050.33049  -4129654.22448  20334568.761    20334578.300
       247.000         215.000
  23172214.831    -6357825.24849  -4521790.57346  23172213.291    23172234.145
       220.000         167.000
  24165788.112     9469337.49149   7370058.96245  24165790.252    24165817.608
       204.000         140.000
  22385783.120     5738850.24649   4476657.75946  22385782.875    22385794.861
       229.000         181.000
 00  4 20 22 24 30.0000000  0  7G17G30G26G 6G23G 5G10
  21559984.397    -6526911.43749  -5070651.28647  21559983.474    21559995.318
       239.000         203.000
  22075253.029     5506606.37949   4293655.45547  22075254.010    22075268.044
       235.000         191.000
  22931621.528   -10842512.73349  -7700003.39945  22931620.100    22931637.777
       218.000         160.000
  20330252.849    -5349730.56349  -4147327.10848  20330252.469    20330262.320
       246.000         215.000
  23154295.880    -6451987.80749  -4595163.48946  23154293.496    23154314.936
       220.000         168.000
  24185971.070     9575397.64549   7452702.69245  24185971.860    24185998.409
       204.000         135.000
  22402280.587     5825544.73249   4544211.84946  22402280.004    22402292.191
       229.000         181.000
 00  4 20 22 25  0.0000000  0  7G17G30G26G 6G23G 5G10
  21552456.394    -6566470.79549  -5101476.66447  21552455.715    21552467.620
       239.000         203.000
  22091435.904     5591647.20749   4359920.83447  22091437.136    22091451.160
       236.000         191.000
  22917231.441   -10918131.83949  -7758927.03145  22917231.261    22917247.806
       219.000         161.000
  20326007.921    -5372037.28549  -4164708.94048  20326007.738    20326017.506
       246.000         215.000
  23136421.917    -6545913.77949  -4668352.04946  23136419.990    23136441.147
       218.000         167.000
  24206149.801     9681435.65749   7535329.16045  24206149.481    24206176.961
       204.000         132.000
  22418834.931     5912538.12449   4611998.86746  22418834.874    22418846.692
       228.000         181.000
 00  4 20 22 25 30.0000000  0  7G17G30G26G 6G23G 5G10
  21544962.773    -6605849.82249  -5132161.53647  21544962.193    21544973.452
       240.000         203.000
  22107682.915     5677025.01649   4426448.79647  22107683.879    22107698.244
       234.000         190.000
  22902890.369   -10993493.39249  -7817649.97745  22902890.779    22902906.371
       218.000         161.000
  20321835.054    -5393965.76849  -4181796.04748  20321835.136    20321844.781
       246.000         215.000
  23118592.760    -6639604.65249  -4741357.44146  23118590.943    23118610.822
       220.000         167.000
  24226324.257     9787450.88049   7617937.91745  24226326.203    24226352.790
       207.000         141.000
  22435447.595     5999837.87949   4680024.59246  22435446.913    22435459.058
       228.000         181.000
 00  4 20 22 26  0.0000000  0  7G17G30G26G 6G23G 5G10
  21537503.790    -6645046.79649  -5162704.54447  21537503.147    21537514.600
       240.000         203.000
  22123991.874     5762728.22549   4493230.30947  22123992.739    22124007.181
       234.000         190.000
  22888598.767   -11068595.04749  -7876170.41045  22888597.843    22888615.028
       218.000         162.000
  20317735.807    -5415507.47049  -4198581.76448  20317735.594    20317745.250
       246.000         215.000
  23100811.289    -6733044.89349  -4814167.53846  23100809.293    23100829.949
       219.000         168.000
  24246494.020     9893440.82749   7700526.91645  24246494.261    24246522.561
       202.000         141.000
  22452118.176     6087442.20249   4748287.65246  22452117.682    22452129.853
       228.000         181.000
 00  4 20 22 26 30.0000000  0  7G17G30G26G 6G23G 5G10
  21530078.871    -6684064.55949  -5193107.89847  21530078.187    21530089.536
       239.000         203.000
  22140363.434     5848760.38249   4560268.15547  22140364.015    22140379.149
       234.000         189.000
  22874356.928   -11143435.08149  -7934486.98545  22874356.443    22874372.851
       217.000         162.000
  20313714.188    -5436640.97249  -4215049.39748  20313714.118    20313723.830
       246.000         215.000
  23083077.425    -6826234.75149  -4886782.52546  23083075.909    23083095.902
       222.000         169.000
  24266659.994     9999411.70549   7783101.06745  24266661.600    24266688.183
       202.000         137.000
  22468847.175     6175353.31549   4816789.78346  22468846.431    22468858.284
       228.000         181.000
 00  4 20 22 27  0.0000000  0  7G17G30G26G 6G23G 5G10
  21522690.670    -6722889.44849  -5223360.96547  21522690.072    21522701.697
       240.000         203.000
  22156797.488     5935121.23349   4627562.11247  22156798.308    22156813.208
       233.000         189.000
  22860166.556   -11218004.24349  -7992592.51045  22860165.946    22860182.903
       216.000         161.000
  20309773.060    -5457351.58449  -4231187.51448  20309772.777    20309782.441
       246.000         215.000
  23065394.203    -6919159.18949  -4959190.72846  23065392.771    23065412.506
       222.000         171.000
  24286826.971    10105387.59349   7865679.13545  24286827.979    24286855.906
       204.000         138.000
  22485636.803     6263583.58249   4885540.58846  22485636.728    22485648.815
       228.000         180.000
 00  4 20 22 27 30.0000000  0  7G17G30G26G 6G23G 5G10
  21515340.132    -6761516.49049  -5253459.86747  21515339.610    21515350.689
       240.000         203.000
  22173289.769     6021788.17949   4695094.59347  22173290.640    22173305.283
       233.000         189.000
  22846030.786   -11292286.63749  -8050474.55945  22846031.002    22846047.264
       218.000         162.000
  20305910.111    -5477651.48649  -4247005.58948  20305910.131    20305919.678
       247.000         215.000
  23047762.515    -7011812.51249  -5031387.66946  23047760.417    23047780.622
       220.000         168.000
  24306994.166    10211364.52349   7948258.02045  24306994.778    24307023.829
       210.000         142.000
  22502484.698     6352119.77549   4954529.78646  22502484.434    22502496.488
       228.000         180.000
 00  4 20 22 28  0.0000000  0  7G17G30G26G 6G23G 5G10
  21508026.971    -6799947.11949  -5283405.71947  21508026.233    21508037.628
       239.000         203.000
  22189837.633     6108746.93749   4762854.44647  22189838.435    22189852.988
       233.000         189.000
  22831952.095   -11366269.12549  -8108122.93845  22831951.039    22831968.718
       215.000         161.000
  20302124.431    -5497545.37449  -4262507.30048  20302124.352    20302133.933
       245.000         216.000
  23030181.609    -7104198.82249  -5103376.54746  23030180.228    23030199.662
       222.000         169.000
  24327159.097    10317329.57249   8030827.65545  24327160.527    24327188.520
       213.000         143.000
  22519387.170     6440942.84649   5023742.52146  22519387.153    22519398.981
       228.000         179.000
 00  4 20 22 28 30.0000000  0  7G17G30G26G 6G23G 5G10
  21500749.797    -6838188.58849  -5313204.16847  21500749.101    21500760.662
       239.000         203.000
  22206442.719     6196006.40149   4830848.62247  22206443.459    22206458.388
       233.000         188.000
  22817931.539   -11439945.94549  -8165533.12245  22817931.515    22817947.571
       216.000         162.000
  20298415.826    -5517034.23349  -4277693.39648  20298415.859    20298425.443
       245.000         216.000
  23012650.971    -7196321.57149  -5175160.05846  23012649.654    23012668.335
       222.000         171.000
  24347322.709    10423288.15849   8113392.27445  24347323.339    24347351.213
       210.000         142.000
  22536343.241     6530047.04049   5093174.31646  22536342.365    22536354.726
       227.000         179.000
 00  4 20 22 29  0.0000000  0  7G17G30G26G 6G23G 5G10
  21493509.917    -6876233.94949  -5342849.80947  21493509.443    21493520.551
       240.000         204.000
  22223102.807     6283554.96349   4899068.06947  22223103.645    22223118.925
       234.000         189.000
  22803971.541   -11513305.02149  -8222695.71846  22803971.259    22803987.991
       218.000         163.000
  20294781.200    -5536134.32649  -4292576.56248  20294781.055    20294790.470
       245.000         216.000
  22995172.678    -7288168.92449  -5246728.97746  22995171.094    22995190.822
       223.000         171.000
  24367481.725    10529222.39849   8195937.93745  24367482.493    24367510.964
       213.000         144.000
  22553351.821     6619427.50149   5162821.38246  22553351.240    22553363.795
       226.000         178.000
 00  4 20 22 29 30.0000000  0  7G17G30G26G 6G23G 5G10
  21486305.112    -6914095.45049  -5372352.18647  21486304.591    21486315.647
       240.000         204.000
  22239814.226     6371373.04449   4967497.52847  22239815.216    22239830.254
       233.000         188.000
  22790069.409   -11586360.53849  -8279621.78546  22790068.624    22790085.256
       218.000         165.000
  20291215.848    -5554870.30849  -4307176.00348  20291215.804    20291225.400
       245.000         216.000
  22977743.920    -7379756.02049  -5318095.09846  22977742.390    22977761.650
       222.000         172.000
  24387629.269    10635095.91649   8278436.27945  24387630.225    24387658.561
       210.000         146.000
  22570409.161     6709064.58749   5232668.41246  22570408.981    22570421.620
       227.000         178.000
 00  4 20 22 30  0.0000000  0  7G17G30G26G 6G23G 5G10
  21479136.375    -6951767.02149  -5401706.56247  21479135.774    21479146.800
       240.000         204.000
  22256575.534     6459453.36249   5036131.32747  22256576.523    22256591.243
       233.000         188.000
  22776222.669   -11659124.22249  -8336320.44346  22776221.870    22776238.519
       219.000         165.000
  20287720.231    -5573239.97349  -4321490.00748  20287720.284    20287729.786
       245.000         216.000
  22960361.958    -7471096.73549  -5389269.22846  22960360.783    22960379.359
       219.000         171.000
  24407761.780    10740890.66849   8360873.25645  24407762.338    24407790.776
       209.000         143.000
  22587513.277     6798946.91049   5302706.54246  22587512.710    22587524.493
       227.000         178.000
 00  4 20 22 30 30.0000000  0  7G17G30G26G 6G23G 5G10
  21472005.258    -6989240.80949  -5430906.82347  21472004.611    21472015.802
       240.000         204.000
  22273384.367     6547783.68849   5104959.93347  22273385.466    22273400.453
       233.000         188.000
  22762428.697   -11731610.93849  -8392803.29946  22762428.539    22762444.827
       219.000         165.000
  20284293.129    -5591249.56549  -4335523.43348  20284293.026    20284302.560
       245.000         216.000
  22943024.960    -7562201.04049  -5460259.14546  22943024.055    22943042.407
       222.000         171.000
  24427874.495    10846581.73049   8443229.40745  24427876.493    24427903.858
       208.000         142.000
  22604663.388     6889070.92849   5372932.99446  22604663.387    22604674.126
       227.000         177.000
 00  4 20 22 31  0.0000000  0  7G17G30G26G 6G23G 5G10
  21464910.617    -7026523.12049  -5459957.88047  21464909.812    21464921.016
       240.000         204.000
  22290237.961     6636349.01449   5173971.65546  22290238.359    22290253.825
       231.000         187.000
  22748686.627   -11803824.76649  -8449073.50746  22748685.813    22748702.357
       219.000         165.000
  20280932.546    -5608909.40949  -4349284.32548  20280932.473    20280941.828
       245.000         216.000
  22925732.385    -7653072.78449  -5531067.86446  22925731.336    22925749.579
       222.000         171.000
  24447965.235    10952157.66449   8525495.86445  24447966.305    24447993.942
       208.000         144.000
  22621858.527     6979431.51949   5443343.79046  22621857.894    22621870.572
       226.000         177.000
 00  4 20 22 31 30.0000000  0  7G17G30G26G 6G23G 5G10
  21457849.637    -7063628.52149  -5488871.08847  21457849.070    21457860.261
       241.000         204.000
  22307138.012     6725158.63249   5243173.73446  22307138.919    22307153.924
       232.000         186.000
  22734995.770   -11875769.34049  -8505133.90446  22734994.831    22735011.801
       221.000         166.000
  20277641.225    -5626205.31649  -4362761.63248  20277641.141    20277650.783
       245.000         216.000
  22908483.455    -7743714.58149  -5601697.39346  22908482.298    22908500.576
       223.000         172.000
  24468035.890    11057628.07449   8607680.09445  24468036.931    24468065.278
       204.000         144.000
  22639097.039     7070020.45049   5513932.51646  22639096.380    22639109.285
       227.000         177.000
 00  4 20 22 32  0.0000000  0  7G17G30G26G 6G23G 5G10
  21450822.638    -7100555.40949  -5517645.19847  21450821.785    21450833.259
       240.000         205.000
  22324086.282     6814221.43049   5312573.10446  22324087.206    22324102.291
       232.000         186.000
  22721360.418   -11947422.95449  -8560967.59846  22721360.120    22721376.302
       220.000         166.000
  20274424.378    -5643109.86249  -4375933.98848  20274424.308    20274434.059
       245.000         216.000
  22891279.574    -7834120.11349  -5672142.81946  22891277.688    22891297.005
       223.000         172.000
  24488089.163    11163007.01749   8689793.00445  24488089.898    24488119.841
       198.000         141.000
  22656379.237     7160838.74349   5584699.96346  22656379.175    22656391.063
       226.000         176.000
 00  4 20 22 32 30.0000000  0  7G17G30G26G 6G23G 5G10
  21443830.914    -7137296.64349  -5546274.63347  21443830.205    21443841.460
       240.000         205.000
  22341087.988     6903565.03149   5382191.27146  22341089.366    22341104.164
       233.000         186.000
  22707788.080   -12018745.08849  -8616542.97846  22707787.826    22707803.415
       221.000         168.000
  20271287.220    -5659595.72249  -4388780.09648  20271287.370    20271296.772
       245.000         216.000
  22874126.957    -7924255.71249  -5742377.91946  22874124.703    22874144.030
       223.000         172.000
  24508133.696    11268339.56349   8771869.81245  24508134.951    24508164.509
       196.000         139.000
  22673710.231     7251913.26049   5655667.05646  22673709.967    22673721.893
       226.000         176.000
 00  4 20 22 33  0.0000000  0  7G17G30G26G 6G23G 5G10
  21436874.810    -7173850.85049  -5574758.33747  21436874.211    21436885.352
       241.000         205.000
  22358145.779     6993203.29249   5452039.05346  22358146.297    22358162.200
       231.000         186.000
  22694284.983   -12089703.22449  -8671834.72346  22694284.244    22694300.390
       221.000         167.000
  20268233.203    -5675644.74749  -4401285.81148  20268233.204    20268242.580
       245.000         216.000
  22857029.938    -8014099.22149  -5812385.40746  22857029.008    22857046.994
       223.000         172.000
  24528177.806    11373669.88048   8853944.87345  24528178.445    24528209.324
       193.000         138.000
  22691089.806     7343242.95749   5726832.99546  22691089.056    22691101.156
       225.000         176.000
 00  4 20 22 33 30.0000000  0  7G17G30G26G 6G23G 5G10
  21429957.156    -7210203.24749  -5603084.79847  21429956.590    21429967.606
       240.000         205.000
  22375259.689     7083136.74349   5522116.84846  22375260.280    22375275.854
       232.000         185.000
  22680853.738   -12160283.22549  -8726831.80246  22680852.702    22680868.987
       220.000         168.000
  20265265.691    -5691239.22849  -4413437.33648  20265265.708    20265275.362
       245.000         216.000
  22839988.657    -8103649.88949  -5882164.72246  22839986.946    22840004.887
       224.000         172.000
  24548223.144    11479008.06749   8936026.05445  24548223.079    24548253.362
       197.000         133.000
  22708515.869     7434817.51849   5798189.73446  22708514.822    22708527.886
       225.000         175.000
 00  4 20 22 34  0.0000000  0  7G17G30G26G 6G23G 5G10
  21423081.732    -7246333.35649  -5631238.03647  21423080.910    21423092.342
       240.000         205.000
  22392429.921     7173366.02149   5592425.16546  22392430.563    22392446.283
       232.000         185.000
  22667497.888   -12230467.48949  -8781520.52346  22667497.128    22667512.999
       221.000         169.000
  20262385.364    -5706375.51749  -4425231.82548  20262385.333    20262394.905
       245.000         216.000
  22823004.822    -8192899.03349  -5951709.09646  22823003.164    22823021.312
       224.000         172.000
  24568273.113    11584369.55249   9018125.40645  24568273.648    24568301.950
       199.000         136.000
  22725989.881     7526643.87349   5869742.67946  22725989.845    22726001.659
       225.000         175.000
 00  4 20 22 34 30.0000000  0  7G17G30G26G 6G23G 5G10
  21416247.463    -7282247.23649  -5659222.79847  21416246.721    21416257.728
       241.000         205.000
  22409656.855     7263893.52649   5662965.85146  22409657.747    22409673.328
       232.000         185.000
  22654214.109   -12300273.16149  -8835914.24746  22654212.995    22654229.368
       220.000         170.000
  20259587.580    -5721077.71749  -4436688.07348  20259587.489    20259597.123
       245.000         216.000
  22806078.183    -8281847.38449  -6021019.07346  22806076.462    22806094.861
       224.000         174.000
  24588326.239    11689746.31049   9100236.70045  24588327.335    24588357.682
       198.000         139.000
  22743511.432     7618719.79049   5941490.07646  22743510.825    22743523.871
       226.000         175.000
 00  4 20 22 35  0.0000000  0  7G17G30G26G 6G23G 5G10
  21409452.821    -7317952.93649  -5687045.33147  21409452.434    21409463.469
       241.000         205.000
  22426935.404     7354691.89149   5733717.60046  22426936.195    22426951.768
       232.000         185.000
  22640997.654   -12369724.32549  -8890031.72446  22640997.484    22641012.868
       221.000         171.000
  20256868.900    -5735364.49249  -4447820.60448  20256868.941    20256878.393
       245.000         216.000
  22789207.188    -8370503.25949  -6090101.16146  22789205.791    22789223.171
       224.000         173.000
  24608375.467    11795102.86248   9182332.32544  24608385.519    24608403.257
       170.000         124.000
  22761077.685     7711030.61049   6013420.53046  22761077.374    22761088.713
       225.000         174.000
 00  4 20 22 35 30.0000000  0  6G17G30G26G 6G23G10
  21402693.022    -7353475.76149  -5714725.37147  21402692.414    21402703.348
       241.000         206.000
  22444259.918     7445731.67149   5804657.46246  22444260.991    22444276.195
       231.000         185.000
  22627842.819   -12438852.38849  -8943897.43846  22627842.770    22627858.596
       221.000         171.000
  20254224.563    -5749260.57649  -4458648.70648  20254224.532    20254233.922
       245.000         216.000
  22772386.297    -8458896.15849  -6158978.34246  22772385.336    22772401.994
       224.000         173.000
  22778686.486     7803565.18849   6085525.32146  22778685.774    22778698.241
       225.000         174.000
 00  4 20 22 36  0.0000000  0  6G17G30G26G 6G23G10
  21395969.218    -7388809.38349  -5742257.99147  21395968.249    21395979.366
       240.000         205.000
  22461632.937     7537026.38449   5875795.95946  22461633.755    22461649.691
       230.000         184.000
  22614750.281   -12507653.33249  -8997508.23546  22614749.844    22614765.415
       221.000         172.000
  20251658.817    -5762743.65049  -4469154.98048  20251658.848    20251668.174
       245.000         216.000
  22755621.195    -8546995.76949  -6227626.97646  22755619.742    22755637.818
       225.000         173.000
  22796342.149     7896345.91849   6157821.92946  22796342.111    22796353.302
       224.000         173.000
 00  4 20 22 36 30.0000000  0  6G17G30G26G 6G23G10
  21389280.126    -7423960.19649  -5769648.15647  21389279.340    21389290.339
       241.000         205.000
  22479050.307     7628554.30149   5947116.18446  22479051.187    22479066.821
       231.000         183.000
  22601718.672   -12576133.72649  -9050869.25746  22601718.496    22601734.609
       222.000         173.000
  20249171.403    -5775815.04849  -4479340.47148  20249171.440    20249180.716
       245.000         216.000
  22738912.528    -8634798.88349  -6296044.57846  22738910.780    22738929.168
       223.000         173.000
  22814045.068     7989375.83149   6230312.69946  22814043.926    22814056.971
       223.000         172.000
 00  4 20 22 37  0.0000000  0  6G17G30G26G 6G23G10
  21382624.420    -7458936.21549  -5796902.12747  21382624.097    21382634.814
       242.000         206.000
  22496508.574     7720297.40949   6018604.07146  22496509.451    22496524.979
       230.000         183.000
  22588749.581   -12644285.67049  -9103974.33746  22588749.414    22588764.688
       223.000         174.000
  20246762.898    -5788471.74049  -4489202.81448  20246763.088    20246772.265
       245.000         216.000
  22722258.024    -8722317.13849  -6364240.21446  22722256.889    22722274.272
       224.000         174.000
  22831793.705     8082645.46849   6302990.26246  22831792.569    22831805.490
       223.000         172.000
 00  4 20 22 37 30.0000000  0  6G17G30G26G 6G23G10
  21376001.673    -7493739.00149  -5824021.10647  21376000.513    21376011.865
       240.000         206.000
  22514011.450     7812274.93449   6090274.62246  22514011.934    22514028.709
       230.000         182.000
  22575845.452   -12712096.12649  -9156813.34046  22575845.118    22575860.288
       224.000         174.000
  20244435.576    -5800701.88949  -4498732.79148  20244435.529    20244445.050
       245.000         216.000
  22705658.334    -8809547.51049  -6432211.53646  22705657.261    22705674.156
       226.000         175.000
  22849587.632     8176153.29049   6375853.44146  22849587.380    22849600.026
       224.000         172.000
 00  4 20 22 38  0.0000000  0  6G17G30G26G 6G23G10
  21369413.409    -7528359.92249  -5850998.37847  21369412.693    21369423.611
       241.000         206.000
  22531558.605     7904484.91249   6162126.31246  22531559.926    22531575.782
       230.000         182.000
  22563008.240   -12779554.99749  -9209378.38046  22563007.675    22563023.343
       225.000         174.000
  20242187.634    -5812515.05549  -4507937.84448  20242187.475    20242196.936
       245.000         216.000
  22689114.693    -8896483.27849  -6499953.29346  22689113.574    22689130.711
       226.000         176.000
  22867426.670     8269897.55249   6448900.84346  22867426.140    22867438.886
       224.000         171.000
 00  4 20 22 38 30.0000000  0  6G17G30G26G 6G23G10
  21362858.088    -7562808.33649  -5877841.23147  21362857.671    21362868.191
       242.000         206.000
  22549148.377     7996918.87249   6234152.54046  22549149.439    22549164.920
       230.000         182.000
  22550241.679   -12846642.50649  -9261654.05246  22550241.103    22550256.347
       225.000         175.000
  20240014.199    -5823936.37449  -4516837.56048  20240014.070    20240023.670
       245.000         216.000
  22672622.741    -8983147.58749  -6567483.52446  22672622.020    22672638.152
       226.000         177.000
  22885308.261     8363865.83849   6522122.81946  22885308.401    22885320.547
       223.000         171.000
 00  4 20 22 39  0.0000000  0  6G17G30G26G 6G23G10
  21356333.934    -7597092.64349  -5904556.20947  21356333.288    21356343.979
       241.000         206.000
  22566780.000     8089572.60149   6306350.00146  22566780.533    22566796.878
       230.000         181.000
  22537545.503   -12913360.40949  -9313641.74346  22537546.002    22537559.733
       224.000         174.000
  20237915.192    -5834966.63349  -4525432.55548  20237915.223    20237924.615
       245.000         216.000
  22656179.276    -9069557.01449  -6634815.14146  22656177.475    22656194.879
       225.000         177.000
  22903226.859     8458028.46549   6595496.21346  22903226.936    22903238.388
       222.000         170.000
 00  4 20 22 39 30.0000000  0  6G17G30G26G 6G23G10
  21349843.575    -7631199.55849  -5931132.95747  21349842.871    21349853.800
       241.000         206.000
  22584452.717     8182442.46549   6378715.89346  22584453.988    22584469.903
       230.000         181.000
  22524917.808   -12979718.20249  -9365348.81846  22524917.094    22524932.522
       224.000         173.000
  20235892.396    -5845596.48149  -4533715.53948  20235892.073    20235901.648
       245.000         216.000
  22639787.631    -9155694.22849  -6701934.64546  22639786.592    22639803.314
       226.000         177.000
  22921182.375     8552385.10249   6669020.80546  22921181.596    22921194.169
       223.000         170.000
 00  4 20 22 40  0.0000000  0  6G17G30G26G 6G23G10
  21343388.315    -7665121.94849  -5957565.91847  21343387.680    21343398.412
       241.000         206.000
  22602163.140     8275510.35549   6451236.08446  22602163.928    22602180.103
       229.000         179.000
  22512358.778   -13045715.00249  -9416774.61346  22512358.129    22512373.817
       223.000         173.000
  20233948.044    -5855813.93749  -4541677.18348  20233947.919    20233957.565
       245.000         216.000
  22623447.937    -9241558.18249  -6768841.22546  22623446.434    22623463.745
       227.000         178.000
  22939174.722     8646934.80349   6742695.82346  22939174.360    22939186.707
       223.000         170.000
 00  4 20 22 40 30.0000000  0  6G17G30G26G 6G23G10
  21336969.974    -7698850.42849  -5983847.78647  21336969.573    21336980.111
       241.000         207.000
  22619915.546     8368798.62749   6523927.99546  22619917.187    22619933.402
       230.000         180.000
  22499869.109   -13111347.40749  -9467916.45846  22499868.985    22499882.900
       222.000         172.000
  20232089.493    -5865580.64049  -4549287.59148  20232089.326    20232098.882
       245.000         216.000
  22607162.976    -9327134.70149  -6835523.82546  22607161.768    22607178.308
       226.000         178.000
  22957205.748     8741688.13549   6816529.52346  22957205.407    22957217.636
       222.000         170.000
 00  4 20 22 41  0.0000000  0  6G17G30G26G 6G23G10
  21330592.828    -7732362.49249  -6009961.01547  21330592.058    21330602.850
       241.000         207.000
  22637714.056     8462329.20449   6596808.72446  22637714.247    22637731.691
       229.000         180.000
  22487447.014   -13176624.71949  -9518781.57746  22487446.185    22487461.986
       222.000         172.000
  20230322.970    -5874863.69749  -4556521.13048  20230323.039    20230332.452
       245.000         216.000
  22590938.320    -9412394.31749  -6901959.49746  22590937.000    22590953.970
       227.000         178.000
  22975279.793     8836667.40049   6890539.26946  22975279.295    22975291.483
       223.000         170.000
 00  4 20 22 41 30.0000000  0  7G17G30G26G22G 6G23G10
  21324261.600    -7765632.79749  -6035885.85847  21324260.861    21324271.908
       241.000         206.000
  22655567.761     8556150.20749   6669915.74246  22655569.136    22655584.375
       228.000         179.000
  22475102.304   -13241495.36849  -9569329.84346  22475102.560    22475116.407
       221.000         172.000
  24465871.461    -8969811.74749  -6954081.88945  24465870.270    24465883.866
       212.000         139.000
  20228655.733    -5883625.19149  -4563348.25848  20228655.653    20228665.211
       245.000         216.000
  22574782.909    -9497290.04849  -6968111.62546  22574781.814    22574798.395
       227.000         178.000
  22993405.503     8931918.69549   6964761.00146  22993405.377    22993417.402
       223.000         169.000
 00  4 20 22 42  0.0000000  0  7G17G30G26G22G 6G23G10
  21317970.949    -7798690.08349  -6061644.71347  21317970.586    21317981.393
       241.000         207.000
  22673473.753     8650245.98149   6743236.88146  22673474.630    22673491.060
       228.000         177.000
  22462836.477   -13305951.65549  -9619555.22646  22462835.832    22462850.662
       223.000         173.000
  24454289.619    -9030674.90049  -7001507.72545  24454289.468    24454302.851
       210.000         139.000
  20227084.020    -5891884.56849  -4569784.12048  20227083.901    20227093.324
       245.000         216.000
  22558690.571    -9581854.55449  -7034005.66146  22558689.224    22558705.715
       228.000         178.000
  23011578.810     9027419.75749   7039177.33746  23011578.706    23011591.278
       223.000         168.000
 00  4 20 22 42 30.0000000  0  7G17G30G26G22G 6G23G10
  21311713.053    -7831575.38449  -6087269.55047  21311712.329    21311723.015
       242.000         207.000
  22691425.110     8744579.93449   6816743.60246  22691425.873    22691441.995
       229.000         178.000
  22450644.068   -13370021.53449  -9669479.50846  22450643.783    22450658.735
       223.000         174.000
  24442794.178    -9091084.02049  -7048579.77345  24442793.986    24442808.224
       211.000         139.000
  20225597.319    -5899697.25649  -4575871.91548  20225597.230    20225606.711
       245.000         216.000
  22542655.226    -9666118.97449  -7099665.85246  22542654.045    22542670.617
       228.000         179.000
  23029791.152     9123125.57149   7113753.23046  23029790.947    23029802.326
       223.000         168.000
 00  4 20 22 43  0.0000000  0  7G17G30G26G22G 6G23G10
  21305487.421    -7864290.95149  -6112762.12647  21305486.748    21305497.390
       241.000         207.000
  22709416.092     8839122.17949   6890412.63546  22709417.108    22709433.934
       226.000         177.000
  22438530.083   -13433679.79949  -9719083.06846  22438530.339    22438544.252
       224.000         176.000
  24431381.609    -9151057.42549  -7095312.28345  24431380.587    24431394.462
       212.000         139.000
  20224191.277    -5907085.98749  -4581629.35548  20224191.084    20224200.494
       245.000         216.000
  22526679.836    -9750068.94449  -7165081.02346  22526678.435    22526695.033
       227.000         180.000
  23048041.707     9219032.44949   7188485.78746  23048041.263    23048053.808
       221.000         168.000
 00  4 20 22 43 30.0000000  0  7G17G30G26G22G 6G23G10
  21299291.406    -7896850.81249  -6138133.37647  21299291.088    21299301.439
       242.000         207.000
  22727440.944     8933842.89349   6964220.70646  22727442.189    22727458.908
       227.000         177.000
  22426496.182   -13496917.24749  -9768358.71646  22426495.860    22426510.387
       225.000         176.000
  24420049.342    -9210608.76749  -7141715.92145  24420049.362    24420062.032
       212.000         140.000
  20222863.152    -5914065.18549  -4587067.67948  20222863.123    20222872.682
       245.000         215.000
  22510763.946    -9833705.96749  -7230252.37346  22510762.843    22510779.180
       229.000         180.000
  23066327.976     9315126.93249   7263364.52846  23066327.314    23066339.397
       223.000         168.000
 00  4 20 22 44  0.0000000  0  7G17G30G26G22G 6G23G10
  21293127.481    -7929242.55649  -6163373.62947  21293126.995    21293137.650
       241.000         207.000
  22745495.835     9028720.63149   7038151.13946  22745496.381    22745513.440
       227.000         178.000
  22414540.155   -13559745.40449  -9817315.44946  22414539.837    22414554.384
       226.000         176.000
  24408794.600    -9269752.64649  -7187802.07245  24408793.564    24408808.299
       212.000         140.000
  20221611.347    -5920643.33549  -4592193.50548  20221611.190    20221620.754
       245.000         215.000
  22494907.254    -9917031.94549  -7295181.33246  22494906.071    22494922.893
       229.000         182.000
  23084649.530     9411406.81749   7338387.73246  23084649.370    23084661.025
       222.000         167.000
 00  4 20 22 44 30.0000000  0  7G17G30G26G22G 6G23G10
  21286996.005    -7961463.20149  -6188480.55147  21286995.280    21287006.050
       241.000         207.000
  22763578.629     9123745.62549   7112196.31646  22763579.502    22763596.415
       227.000         178.000
  22402659.106   -13622179.88049  -9865965.41746  22402658.822    22402673.251
       226.000         176.000
  24397616.620    -9328493.51549  -7233574.16945  24397615.952    24397629.980
       211.000         139.000
  20220434.630    -5926827.08849  -4597012.00148  20220434.684    20220444.103
       245.000         216.000
  22479111.582   -10000037.27049  -7359860.43846  22479109.976    22479126.377
       229.000         182.000
  23103004.956     9507864.82549   7413549.75246  23103003.803    23103017.114
       221.000         167.000
 00  4 20 22 45  0.0000000  0  7G17G30G26G22G 6G23G10
  21280897.477    -7993510.46449  -6213452.36647  21280896.962    21280907.542
       241.000         207.000
  22781690.059     9218920.55949   7186358.34446  22781691.013    22781707.557
       228.000         177.000
  22390850.688   -13684232.47049  -9914317.80446  22390849.997    22390864.468
       223.000         176.000
  24386516.411    -9386825.15149  -7279027.40245  24386515.387    24386530.170
       213.000         139.000
  20219335.379    -5932603.66349  -4601513.21348  20219335.225    20219344.774
       245.000         216.000
  22463375.011   -10082732.04949  -7424297.56646  22463373.870    22463390.303
       230.000         183.000
  23121394.006     9604500.01949   7488849.82046  23121393.822    23121405.719
       221.000         167.000
 00  4 20 22 45 30.0000000  0  7G17G30G26G22G 6G23G10
  21274834.408    -8025371.78149  -6238279.29947  21274833.929    21274844.617
       242.000         207.000
  22799836.056     9314277.30349   7260662.02046  22799837.151    22799854.077
       227.000         176.000
  22379113.856   -13745908.96749  -9962377.15846  22379114.202    22379126.944
       226.000         174.000
  24375495.297    -9444741.30449  -7324156.89345  24375494.986    24375508.303
       213.000         140.000
  20218319.534    -5937941.87249  -4605672.84548  20218319.709    20218328.990
       245.000         216.000
  22447696.577   -10165121.62049  -7488496.88746  22447695.354    22447710.982
       230.000         183.000
  23139814.797     9701301.15749   7564279.19046  23139814.390    23139826.371
       221.000         167.000
 00  4 20 22 46  0.0000000  0  7G17G30G26G22G 6G23G10
  21268810.816    -8057026.00549  -6262944.85447  21268810.199    21268820.911
       242.000         208.000
  22818021.601     9409841.65249   7335127.47046  22818022.861    22818039.279
       226.000         176.000
  22367452.337   -13807189.52049 -10010127.99446  22367452.605    22367465.737
       223.000         173.000
  24364558.709    -9502214.01349  -7368940.83445  24364557.688    24364572.187
       212.000         139.000
  20217389.603    -5942828.79949  -4609480.82648  20217389.572    20217398.904
       245.000         216.000
  22432076.813   -10247202.63949  -7552455.77946  22432075.747    22432091.815
       231.000         183.000
  23158267.059     9798268.36349   7639837.97446  23158266.885    23158279.091
       221.000         167.000
 00  4 20 22 46 30.0000000  0  7G17G30G26G22G 6G23G10
  21262827.947    -8088465.91449  -6287443.41047  21262827.271    21262837.923
       242.000         208.000
  22836249.768     9505630.07549   7409767.51246  22836251.142    22836267.669
       225.000         176.000
  22355867.773   -13868065.63049 -10057563.68046  22355866.945    22355881.511
       223.000         172.000
  24353709.095    -9559228.53449  -7413367.75545  24353707.929    24353722.609
       212.000         139.000
  20216547.926    -5947251.94949  -4612927.42548  20216547.875    20216557.451
       245.000         215.000
  22416516.109   -10328973.33849  -7616172.86746  22416514.780    22416530.633
       230.000         183.000
  23176750.542     9895399.62349   7715524.57946  23176750.769    23176762.561
       220.000         167.000
 00  4 20 22 47  0.0000000  0  7G17G30G26G22G 6G23G10
  21256884.963    -8119696.44149  -6311778.82547  21256884.515    21256895.116
       242.000         208.000
  22854520.539     9601642.59049   7484582.16446  22854521.814    22854538.564
       227.000         176.000
  22344361.923   -13928527.81749 -10104676.81946  22344361.390    22344374.980
       223.000         172.000
  24342946.547    -9615786.27349  -7457438.73245  24342946.998    24342959.566
       212.000         139.000
  20215796.552    -5951200.40649  -4616004.13748  20215796.595    20215805.989
       245.000         215.000
  22401016.199   -10410424.64049  -7679641.09246  22401015.510    22401030.709
       231.000         183.000
  23195266.143     9992699.56449   7791342.62846  23195266.071    23195278.175
       220.000         167.000
 00  4 20 22 47 30.0000000  0  7G17G30G26G22G 6G23G10
  21250981.407    -8150719.59649  -6335952.64447  21250980.822    21250991.281
       242.000         208.000
  22872833.637     9697877.36249   7559570.00746  22872834.426    22872851.703
       227.000         176.000
  22332938.857   -13988555.36549 -10151451.27946  22332937.919    22332952.562
       224.000         172.000
  24332273.687    -9671873.18649  -7501142.85145  24332273.458    24332286.878
       210.000         138.000
  20215134.338    -5954680.22249  -4618715.67048  20215134.114    20215143.697
       245.000         215.000
  22385578.039   -10491551.36149  -7742856.39446  22385576.378    22385592.330
       231.000         184.000
  23213814.589    10090171.95849   7867295.06146  23213814.471    23213827.256
       220.000         167.000
 00  4 20 22 48  0.0000000  0  7G17G30G26G22G 6G23G10
  21245114.746    -8181548.81249  -6359975.34947  21245114.124    21245124.981
       242.000         208.000
  22891183.674     9794306.50549   7634709.30846  22891185.622    22891201.508
       226.000         174.000
  22321598.642   -14048147.57849 -10197886.51946  22321597.909    22321612.166
       225.000         174.000
  24321689.670    -9727491.60149  -7544481.90045  24321688.985    24321704.704
       210.000         138.000
  20214557.513    -5957711.42449  -4621077.64448  20214557.583    20214566.839
       245.000         215.000
  22370200.209   -10572360.87449  -7805824.53746  22370199.393    22370214.518
       231.000         184.000
  23232399.580    10187836.54049   7943397.23746  23232399.624    23232412.212
       221.000         167.000
 00  4 20 22 48 30.0000000  0  7G17G30G26G22G 6G23G10
  21239281.264    -8212203.75449  -6383862.25647  21239280.672    21239291.384
       243.000         208.000
  22909566.479     9890907.81149   7709982.74646  22909567.816    22909584.677
       225.000         174.000
  22310338.524   -14107318.98049 -10243993.87146  22310338.484    22310352.102
       225.000         175.000
  24311190.628    -9782664.64349  -7587473.90345  24311189.983    24311203.567
       211.000         138.000
  20214065.975    -5960294.69649  -4623090.58648  20214066.043    20214075.385
       245.000         215.000
  22354882.885   -10652853.06749  -7868545.42246  22354881.977    22354897.159
       230.000         184.000
  23251021.293    10285694.08549   8019649.77446  23251021.083    23251033.516
       220.000         166.000
 00  4 20 22 49  0.0000000  0  7G17G30G26G22G 6G23G10
  21233478.447    -8242697.57749  -6407623.61647  21233477.889    21233488.411
       242.000         208.000
  22927979.467     9987667.64649   7785379.71946  22927980.799    22927998.157
       226.000         174.000
  22299158.898   -14166067.53149 -10289771.72046  22299158.983    22299172.700
       227.000         176.000
  24300776.907    -9837389.45949  -7630116.64945  24300775.313    24300790.907
       209.000         138.000
  20213659.033    -5962433.05149  -4624756.83548  20213659.015    20213668.381
       245.000         215.000
  22339626.499   -10733024.40249  -7931016.27646  22339624.999    22339640.250
       232.000         185.000
  23269678.984    10383740.13149   8096049.19946  23269678.667    23269691.608
       220.000         165.000
 00  4 20 22 49 30.0000000  0  7G17G30G26G22G 6G23G10
  21227706.713    -8273028.02549  -6431257.66447  21227706.135    21227716.724
       242.000         208.000
  22946421.428    10084579.28749   7860894.98846  22946422.352    22946439.898
       227.000         176.000
  22288060.589   -14224388.90149 -10335216.70346  22288060.397    22288073.937
       226.000         177.000
  24290450.131    -9891656.85149  -7672402.95445  24290450.701    24290463.601
       211.000         139.000
  20213334.383    -5964139.17249  -4626086.27348  20213334.370    20213343.894
       244.000         215.000
  22324429.206   -10812885.49849  -7993245.39046  22324428.130    22324443.408
       231.000         185.000
  23288371.360    10481968.76049   8172590.89546  23288370.906    23288383.068
       220.000         164.000
 00  4 20 22 50  0.0000000  0  7G17G30G26G22G 6G23G10
  21221965.360    -8303198.95149  -6454767.41147  21221964.720    21221975.405
       242.000         209.000
  22964888.407    10181622.86849   7936513.06046  22964889.868    22964906.849
       227.000         176.000
  22277042.455   -14282288.77349 -10380333.26346  22277042.125    22277056.001
       225.000         176.000
  24280207.559    -9945483.16649  -7714345.54745  24280207.512    24280221.202
       211.000         140.000
  20213094.157    -5965401.63949  -4627070.01148  20213094.176    20213103.659
       245.000         215.000
  22309291.686   -10892432.56449  -8055229.80846  22309290.560    22309305.438
       231.000         185.000
  23307096.051    10580367.07549   8249264.81346  23307095.733    23307108.049
       220.000         164.000
 00  4 20 22 50 30.0000000  0  7G17G30G26G22G 6G23G10
  21216256.240    -8333200.35849  -6478145.07147  21216255.562    21216265.992
       242.000         208.000
  22983384.940    10278821.31449   8012251.81746  22983386.583    22983403.561
       227.000         175.000
  22266107.347   -14339752.49649 -10425109.96646  22266106.985    22266120.927
       225.000         176.000
  24270050.644    -9998858.72549  -7755936.90445  24270049.914    24270064.737
       210.000         141.000
  20212941.532    -5966203.74349  -4627695.02948  20212941.582    20212950.813
       245.000         215.000
  22294217.971   -10971643.89949  -8116952.60846  22294216.725    22294232.140
       231.000         185.000
  23325848.100    10678909.07349   8326050.69046  23325847.752    23325860.142
       220.000         164.000
 00  4 20 22 51  0.0000000  0  7G17G30G26G22G 6G23G10
  21210580.569    -8363026.04649  -6501385.81047  21210579.951    21210590.361
       242.000         208.000
  23001912.574    10376183.85949   8088118.41146  23001912.977    23001931.391
       224.000         173.000
  22255258.230   -14396763.95549 -10469534.23846  22255258.125    22255271.266
       224.000         175.000
  24259979.952   -10051780.67849  -7797174.80945  24259979.436    24259993.354
       210.000         141.000
  20212878.250    -5966536.40249  -4627954.24548  20212878.266    20212887.530
       245.000         215.000
  22279208.283   -11050519.24449  -8178413.61646  22279207.076    22279222.123
       231.000         186.000
  23344626.909    10777591.87849   8402946.28446  23344626.721    23344638.764
       219.000         163.000
 00  4 20 22 51 30.0000000  0  7G17G30G26G22G 6G23G10
  21204938.115    -8392677.00649  -6524490.38747  21204937.587    21204947.955
       243.000         209.000
  23020473.008    10473718.60249   8164119.19646  23020474.807    23020491.938
       227.000         173.000
  22244497.675   -14453310.10449 -10513595.93446  22244497.555    22244511.090
       224.000         174.000
  24249994.318   -10104255.65849  -7838064.40145  24249994.728    24250007.227
       212.000         141.000
  20212907.672    -5966381.86549  -4627833.82448  20212907.825    20212916.884
       245.000         216.000
  22264265.014   -11129045.32949  -8239602.46246  22264263.771    22264278.559
       230.000         186.000
  23363432.314    10876414.61749   8479950.93345  23363431.293    23363444.444
       218.000         162.000
 00  4 20 22 52  0.0000000  0  7G17G30G26G22G 6G23G10
  21199330.536    -8422145.11149  -6547452.48847  21199329.819    21199340.252
       242.000         209.000
  23039069.201    10571440.62549   8240265.92446  23039069.914    23039088.270
       226.000         174.000
  22233827.518   -14509380.98549 -10557287.30746  22233827.252    22233840.988
       224.000         174.000
  24240095.575   -10156273.97149  -7878598.17645  24240095.131    24240109.190
       210.000         142.000
  20213034.043    -5965717.69649  -4627316.29148  20213034.008    20213043.292
       245.000         216.000
  22249390.343   -11207210.66049  -8300510.22346  22249389.178    22249404.718
       231.000         186.000
  23382264.197    10975376.34649   8557063.86245  23382263.206    23382276.360
       218.000         161.000
 00  4 20 22 52 30.0000000  0  7G17G30G26G22G 6G23G10
  21193759.363    -8451421.38849  -6570265.11247  21193758.866    21193769.081
       242.000         209.000
  23057703.721    10669364.50549   8316569.91446  23057705.193    23057722.629
       224.000         174.000
  22223247.877   -14564976.45849 -10600608.23746  22223247.906    22223261.519
       225.000         175.000
  24230287.596   -10207814.88849  -7918759.96245  24230287.631    24230301.277
       213.000         143.000
  20213254.281    -5964560.32149  -4626414.43848  20213254.325    20213263.675
       245.000         216.000
  22234585.946   -11285007.23249  -8361130.63246  22234584.707    22234599.972
       232.000         187.000
  23401125.159    11074491.60749   8634296.43845  23401124.439    23401136.964
       216.000         161.000
 00  4 20 22 53  0.0000000  0  7G17G30G26G22G 6G23G10
  21188223.055    -8480514.69249  -6592935.15847  21188222.509    21188232.955
       243.000         209.000
  23076371.300    10767462.02149   8393009.20646  23076372.580    23076390.758
       224.000         174.000
  22212756.426   -14620108.63649 -10643568.15746  22212756.309    22212768.874
       226.000         175.000
  24220571.341   -10258874.53449  -7958546.71345  24220570.608    24220584.950
       213.000         145.000
  20213564.506    -5962930.30449  -4625144.29148  20213564.341    20213573.681
       245.000         216.000
  22219848.466   -11362452.38449  -8421477.21446  22219847.300    22219862.040
       232.000         187.000
  23420017.153    11173769.18649   8711655.49345  23420018.019    23420029.666
       218.000         161.000
 00  4 20 22 53 30.0000000  0  7G17G30G26G22G 6G23G10
  21182722.535    -8509419.89449  -6615458.63347  21182721.977    21182732.334
       242.000         209.000
  23095066.191    10865703.06149   8469560.31746  23095067.068    23095085.562
       221.000         173.000
  22202349.538   -14674796.19349 -10686181.62246  22202349.823    22202362.431
       226.000         176.000
  24210948.523   -10309442.92649  -7997950.67345  24210946.850    24210962.410
       212.000         145.000
  20213959.387    -5960855.03149  -4623527.19648  20213959.437    20213968.822
       245.000         216.000
  22205175.232   -11439559.57949  -8481560.45447  22205174.318    22205188.510
       232.000         188.000
  23438938.205    11273199.66749   8789133.70745  23438937.801    23438950.637
       218.000         160.000
 00  4 20 22 54  0.0000000  0  7G17G30G26G22G 6G23G10
  21177258.941    -8538131.08649  -6637830.93247  21177258.379    21177268.623
       244.000         209.000
  23113783.587    10964062.56749   8546203.76646  23113784.910    23113803.226
       224.000         171.000
  22192025.450   -14729048.91049 -10728456.24746  22192025.151    22192037.385
       226.000         177.000
  24201418.822   -10359521.79849  -8036973.18745  24201417.677    24201431.944
       212.000         146.000
  20214435.121    -5958355.04749  -4621579.15648  20214435.058    20214444.464
       245.000         215.000
  22190563.326   -11516344.36949  -8541392.47747  22190562.014    22190576.678
       232.000         188.000
  23457889.265    11372787.53749   8866734.53445  23457889.091    23457901.541
       217.000         159.000
 00  4 20 22 54 30.0000000  0  7G17G30G26G22G 6G23G10
  21171829.789    -8566661.44349  -6660062.32147  21171829.048    21171839.280
       244.000         209.000
  23132517.699    11062509.07549   8622915.01946  23132519.120    23132536.942
       225.000         173.000
  22181780.539   -14782885.34049 -10770406.50446  22181779.983    22181793.387
       226.000         177.000
  24191978.835   -10409129.45349  -8075628.51645  24191977.063    24191992.667
       213.000         146.000
  20214990.470    -5955436.70249  -4619305.11948  20214990.483    20214999.853
       245.000         215.000
  22176011.712   -11592812.43549  -8600977.69147  22176010.627    22176025.173
       232.000         188.000
  23476868.430    11472523.44449   8944450.74145  23476867.423    23476881.143
       216.000         158.000
 00  4 20 22 55  0.0000000  0  7G17G30G26G22G 6G23G10
  21166435.426    -8595008.64849  -6682150.98647  21166434.582    21166444.979
       244.000         209.000
  23151266.034    11161030.58249   8699684.70346  23151266.582    23151285.657
       225.000         173.000
  22171618.490   -14836286.38749 -10812017.47546  22171618.098    22171631.010
       226.000         178.000
  24182628.785   -10458264.22449  -8113915.37245  24182627.615    24182642.036
       214.000         146.000
  20215631.148    -5952069.91549  -4616681.64448  20215630.990    20215640.199
       245.000         215.000
  22161520.158   -11668964.89449  -8660316.97247  22161518.510    22161533.510
       232.000         188.000
  23495873.988    11572398.18449   9022275.12345  23495874.594    23495886.232
       217.000         159.000
 00  4 20 22 55 30.0000000  0  7G17G30G26G22G 6G23G10
  21161078.619    -8623158.69249  -6704086.03547  21161078.100    21161088.415
       243.000         209.000
  23170030.717    11259638.63049   8776521.80246  23170032.300    23170050.559
       223.000         172.000
  22161543.072   -14889232.53649 -10853274.00446  22161542.613    22161555.616
       225.000         178.000
  24173368.683   -10506926.23249  -8151833.84745  24173368.225    24173382.138
       215.000         146.000
  20216362.390    -5948227.47249  -4613687.54348  20216362.483    20216371.727
       245.000         215.000
  22147091.209   -11744788.52749  -8719400.05247  22147090.189    22147105.024
       233.000         188.000
  23514907.158    11672417.83249   9100212.41945  23514906.469    23514919.976
       216.000         158.000
 00  4 20 22 56  0.0000000  0  7G17G30G26G22G 6G23G10
  21155757.669    -8651120.18949  -6725874.15747  21155757.144    21155767.328
       244.000         209.000
  23188817.648    11358363.67749   8853450.07046  23188819.095    23188838.099
       224.000         172.000
  22151558.697   -14941700.03449 -10894157.55046  22151558.565    22151571.490
       226.000         179.000
  24164200.064   -10555107.92949  -8189378.04145  24164199.103    24164213.306
       214.000         147.000
  20217189.184    -5943882.70349  -4610302.01548  20217189.101    20217198.500
       245.000         215.000
  22132728.303   -11820265.10849  -8778212.69147  22132727.582    22132741.084
       232.000         189.000
  23533966.722    11772576.10349   9178257.72845  23533965.355    23533979.467
       216.000         158.000
 00  4 20 22 56 30.0000000  0  7G17G30G26G22G 6G23G10
  21150473.485    -8678888.64149  -6747511.85347  21150472.792    21150483.090
       244.000         209.000
  23207630.671    11457225.51049   8930484.92046  23207631.611    23207649.773
       223.000         172.000
  22141668.968   -14993670.27949 -10934653.62646  22141668.982    22141681.127
       227.000         179.000
  24155126.383   -10602790.47649  -8226533.28445  24155125.704    24155139.919
       212.000         147.000
  20218113.003    -5939028.06549  -4606519.17348  20218113.032    20218122.182
       245.000         215.000
  22118432.709   -11895387.56049  -8836749.38047  22118431.978    22118446.127
       233.000         189.000
  23553051.730    11872867.52549   9256406.78745  23553051.132    23553064.293
       217.000         158.000
 00  4 20 22 57  0.0000000  0  7G17G30G26G22G 6G23G10
  21145225.643    -8706465.78049  -6769000.47947  21145224.985    21145235.365
       243.000         209.000
  23226473.150    11556242.09749   9007640.34146  23226474.226    23226493.179
       226.000         172.000
  22131876.119   -15045130.87949 -10974752.58446  22131875.272    22131888.611
       226.000         179.000
  24146147.208   -10649976.50949  -8263301.62345  24146147.010    24146161.169
       213.000         147.000
  20219130.298    -5933682.20249  -4602353.57948  20219130.287    20219139.770
       245.000         215.000
  22104203.612   -11970161.28549  -8895014.36747  22104202.959    22104216.839
       234.000         190.000
  23572162.525    11973294.86649   9334661.77745  23572162.302    23572175.792
       217.000         158.000
 00  4 20 22 57 30.0000000  0  7G17G30G26G22G 6G23G10
  21140010.643    -8733870.68749  -6790354.90047  21140010.036    21140020.354
       244.000         209.000
  23245346.374    11655419.68149   9084921.24146  23245346.701    23245366.085
       225.000         171.000
  22122177.162   -15096098.61749 -11014467.50646  22122176.776    22122190.570
       226.000         179.000
  24137259.764   -10696681.05849  -8299694.78145  24137259.423    24137274.131
       212.000         146.000
  20220236.889    -5927867.04449  -4597822.29348  20220236.911    20220246.177
       245.000         215.000
  22090040.166   -12044589.67649  -8953010.25147  22090038.964    22090053.377
       233.000         190.000
  23591296.745    12073844.81049   9413012.29845  23591295.836    23591310.127
       218.000         158.000
 00  4 20 22 58  0.0000000  0  7G17G30G26G22G 6G23G10
  21134825.692    -8761117.68749  -6811586.26947  21134825.005    21134835.279
       244.000         209.000
  23264248.455    11754749.18149   9162320.53846  23264249.845    23264268.074
       223.000         168.000
  22112570.429   -15146581.70849 -11053804.78346  22112570.406    22112582.654
       228.000         179.000
  24128462.595   -10742910.28149  -8335717.56745  24128462.343    24128476.841
       211.000         146.000
  20221428.369    -5921605.84649  -4592943.44148  20221428.346    20221437.674
       245.000         215.000
  22075943.500   -12118667.14749  -9010732.69147  22075942.663    22075956.676
       234.000         190.000
  23610451.903    12174505.40249   9491449.02845  23610451.644    23610465.082
       218.000         157.000
 00  4 20 22 58 30.0000000  0  7G17G30G26G22G 6G23G10
  21129669.713    -8788212.63249  -6832699.15347  21129669.054    21129679.224
       244.000         210.000
  23283173.714    11854201.06849   9239815.16246  23283175.263    23283193.298
       221.000         165.000
  22103051.826   -15196601.07849 -11092780.72246  22103051.756    22103064.391
       227.000         180.000
  24119751.391   -10788688.06149  -8371388.55645  24119751.004    24119764.723
       211.000         145.000
  20222699.655    -5914925.30849  -4587737.83248  20222699.706    20222708.966
       245.000         215.000
  22061912.387   -12192400.37849  -9068186.90147  22061911.087    22061924.904
       233.000         191.000
  23629628.059    12275276.56849   9569971.93545  23629627.539    23629640.413
       218.000         157.000
 00  4 20 22 59  0.0000000  0  7G17G30G26G22G 6G23G10
  21124541.271    -8815162.33449  -6853698.85647  21124540.895    21124550.942
       244.000         210.000
  23302120.283    11953764.58549   9317396.75746  23302121.667    23302139.589
       222.000         165.000
  22093618.748   -15246171.49849 -11131406.84046  22093618.636    22093630.761
       227.000         180.000
  24111123.724   -10834027.02949  -8406717.63445  24111123.966    24111137.073
       211.000         144.000
  20224051.471    -5907821.47549  -4582202.38848  20224051.381    20224060.885
       245.000         215.000
  22047945.519   -12265795.60549  -9125377.73947  22047944.296    22047957.934
       234.000         190.000
  23648824.182    12376152.21849   9648576.24545  23648824.420    23648837.377
       218.000         157.000
 00  4 20 22 59 30.0000000  0  7G17G30G26G22G 6G23G10
  21119441.101    -8841963.73749  -6874583.00947  21119440.406    21119450.833
       244.000         210.000
  23321083.959    12053417.84149   9395048.29246  23321085.908    23321103.928
       220.000         163.000
  22084272.129   -15295287.53649 -11169678.88846  22084271.887    22084284.377
       228.000         180.000
  24102582.631   -10878910.72749  -8441691.94545  24102580.930    24102596.667
       210.000         144.000
  20225486.431    -5900280.75949  -4576326.51348  20225486.307    20225495.724
       245.000         215.000
  22034043.551   -12338849.57449  -9182302.65847  22034042.949    22034056.219
       233.000         191.000
  23668037.152    12477116.74649   9727249.80945  23668036.649    23668050.120
       216.000         156.000
 00  4 20 23  0  0.0000000  0  7G17G30G26G22G 6G23G10
  21114371.494    -8868604.48349  -6895341.96747  21114371.005    21114381.244
       243.000         210.000
  23340063.307    12153153.57649   9472764.09346  23340063.580    23340083.039
       222.000         163.000
  22075013.412   -15343941.93049 -11207591.21246  22075012.857    22075025.418
       228.000         180.000
  24094131.364   -10923321.84349  -8476298.00145  24094130.351    24094144.814
       209.000         143.000
  20227007.622    -5892286.68249  -4570097.36548  20227007.634    20227017.073
       245.000         215.000
  22020208.642   -12411551.78449  -9238953.47447  22020207.707    22020221.389
       234.000         191.000
  23687268.833    12578179.13349   9805999.63845  23687267.526    23687281.373
       215.000         155.000
 00  4 20 23  0 30.0000000  0  7G17G30G26G22G 6G23G10
  21109333.413    -8895079.52149  -6915971.80747  21109332.663    21109342.969
       244.000         210.000
  23359059.387    12252976.93349   9550548.18546  23359060.529    23359079.681
       225.000         167.000
  22065843.023   -15392132.19849 -11245141.86246  22065842.535    22065855.137
       228.000         181.000
  24085772.929   -10967245.86049  -8510524.51245  24085773.726    24085786.780
       209.000         143.000
  20228620.521    -5883810.98449  -4563492.93248  20228620.637    20228629.854
       245.000         215.000
  22006440.157   -12483904.16049  -9295331.69147  22006438.929    22006452.731
       234.000         191.000
  23706520.040    12679345.24849   9884830.29045  23706519.148    23706533.347
       215.000         155.000
 00  4 20 23  1  0.0000000  0  7G17G30G26G22G 6G23G10
  21104328.256    -8921381.44149  -6936466.74947  21104327.478    21104337.930
       243.000         210.000
  23378073.493    12352895.32449   9628406.32946  23378074.296    23378094.382
       220.000         167.000
  22056764.567   -15439838.95349 -11282315.76846  22056763.890    22056776.270
       228.000         181.000
  24077510.914   -11010662.90249  -8544355.94845  24077509.527    24077524.211
       209.000         143.000
  20230329.062    -5874832.39049  -4556496.63148  20230329.005    20230338.504
       245.000         215.000
  21992740.140   -12555897.36149  -9351430.04647  21992739.193    21992752.979
       235.000         192.000
  23725790.418    12780612.22549   9963739.53245  23725789.927    23725803.674
       216.000         155.000
 00  4 20 23  1 30.0000000  0  7G17G30G26G22G 6G23G10
  21099356.674    -8947507.00349  -6956824.26447  21099356.170    21099366.459
       243.000         210.000
  23397103.999    12452900.33849   9706331.93946  23397104.582    23397124.857
       218.000         164.000
  22047781.858   -15487042.67449 -11319097.67846  22047781.898    22047793.831
       228.000         182.000
  24069346.767   -11053564.80949  -8577786.00645  24069346.838    24069360.217
       208.000         143.000
  20232134.107    -5865346.86449  -4549105.31648  20232134.055    20232143.332
       245.000         215.000
  21979112.849   -12627508.32849  -9407230.54347  21979111.857    21979125.445
       235.000         193.000
  23745080.882    12881984.42549  10042730.76745  23745080.313    23745093.307
       216.000         155.000
 00  4 20 23  2  0.0000000  0  7G17G30G26G22G 6G23G10
  21094420.700    -8973445.54349  -6977036.05547  21094419.997    21094430.150
       244.000         210.000
  23416152.223    12552998.35849   9784330.04545  23416154.054    23416172.339
       220.000         162.000
  22038893.626   -15533749.71449 -11355492.58346  22038893.022    22038905.998
       229.000         182.000
  24061279.833   -11095957.40949  -8610819.18445  24061278.673    24061292.658
       210.000         144.000
  20234034.813    -5855358.63449  -4541322.28348  20234034.799    20234044.131
       245.000         215.000
  21965559.460   -12698730.72649  -9462728.26247  21965558.510    21965571.838
       234.000         193.000
  23764393.135    12983470.60349  10121810.80045  23764392.224    23764406.300
       216.000         155.000
 00  4 20 23  2 30.0000000  0  7G17G30G26G22G 6G23G10
  21089522.343    -8999186.49849  -6997093.88947  21089521.598    21089531.964
       244.000         210.000
  23435217.905    12653187.60949   9862399.23146  23435219.385    23435239.470
       220.000         164.000
  22030101.953   -15579949.57349 -11391492.30546  22030101.368    22030114.161
       229.000         182.000
  24053307.484   -11137852.33949  -8643464.57045  24053306.442    24053321.452
       206.000         145.000
  20236028.713    -5844880.76149  -4533157.71448  20236028.719    20236037.923
       245.000         215.000
  21952077.184   -12769579.69649  -9517935.00947  21952076.244    21952090.105
       234.000         193.000
  23783726.918    13085069.80349  10200978.91945  23783725.869    23783739.867
       217.000         154.000
 00  4 20 23  3  0.0000000  0  7G17G30G26G22G 6G23G10
  21084664.058    -9024716.49349  -7016987.33447  21084663.401    21084673.425
       244.000         210.000
  23454298.823    12753456.90049   9940530.75846  23454300.666    23454319.579
       222.000         167.000
  22021408.440   -15625633.63249 -11427090.11746  22021407.897    22021420.195
       228.000         182.000
  24045429.491   -11179250.99149  -8675723.26345  24045429.306    24045442.790
       207.000         145.000
  20238115.139    -5833916.65449  -4524614.25648  20238115.124    20238124.542
       245.000         215.000
  21938665.749   -12840056.21649  -9572851.53347  21938664.788    21938678.130
       234.000         194.000
  23803080.392    13186772.39049  10280227.58545  23803080.200    23803093.508
       217.000         155.000
 00  4 20 23  3 30.0000000  0  7G17G30G26G22G 6G23G10
  21079847.655    -9050026.64749  -7036709.48247  21079846.936    21079857.084
       243.000         210.000
  23473394.877    12853806.03549  10018724.50746  23473396.726    23473414.930
       224.000         169.000
  22012811.464   -15670810.26849 -11462292.50746  22012811.168    22012823.975
       228.000         181.000
  24037645.293   -11220157.39349  -8707598.35845  24037645.284    24037658.752
       208.000         145.000
  20240295.678    -5822457.96549  -4515685.41248  20240295.635    20240304.959
       245.000         215.000
  21925323.788   -12910167.60549  -9627483.54147  21925322.765    21925336.456
       235.000         194.000
  23822454.177    13288581.73849  10359559.45245  23822453.958    23822466.972
       214.000         155.000
 00  4 20 23  4  0.0000000  0  7G17G30G26G22G 6G23G10
  21075075.853    -9075102.34649  -7056248.94047  21075075.169    21075085.499
       243.000         210.000
  23492509.452    12954252.14049  10096993.85746  23492511.523    23492530.332
       225.000         169.000
  22004310.147   -15715484.07249 -11497103.08246  22004309.893    22004322.355
       227.000         181.000
  24029954.927   -11260570.33049  -8739088.92945  24029954.259    24029967.932
       208.000         145.000
  20242571.658    -5810497.70049  -4506365.72648  20242571.479    20242580.823
       244.000         215.000
  21912048.828   -12979927.18549  -9681841.41347  21912048.165    21912061.544
       235.000         194.000
  23841850.552    13390509.83649  10438983.83745  23841850.171    23841863.428
       215.000         155.000
 00  4 20 23  4 30.0000000  0  7G17G30G26G22G 6G23G10
  21070347.788    -9099948.33449  -7075609.40447  21070347.412    21070357.445
       243.000         210.000
  23511642.232    13054793.75349  10175337.61746  23511643.768    23511663.469
       221.000         170.000
  21995908.457   -15759634.09749 -11531505.54246  21995907.700    21995920.637
       227.000         181.000
  24022359.689   -11300483.55749  -8770190.12245  24022359.287    24022373.450
       210.000         147.000
  20244945.587    -5798022.53849  -4496644.82348  20244945.536    20244955.014
       245.000         215.000
  21898839.294   -13049342.99149  -9735931.42347  21898838.200    21898851.311
       235.000         194.000
  23861269.694    13492557.67949  10518501.54445  23861269.497    23861283.634
       217.000         156.000
 00  4 20 23  5  0.0000000  0  7G17G30G26G22G 6G23G10
  21065660.473    -9124580.19249  -7094803.01347  21065659.857    21065669.883
       243.000         210.000
  23530791.296    13155421.91949  10253748.79046  23530792.411    23530812.655
       220.000         167.000
  21987605.036   -15803268.17349 -11565505.95046  21987605.068    21987617.285
       228.000         181.000
  24014859.356   -11339898.24649  -8800902.83845  24014858.839    24014872.458
       206.000         148.000
  20247415.966    -5785040.58149  -4486529.01848  20247415.886    20247425.315
       245.000         215.000
  21885696.088   -13118409.96649  -9789749.60847  21885694.939    21885708.431
       236.000         195.000
  23880709.740    13594715.36949  10598104.83645  23880708.939    23880722.653
       217.000         157.000
 00  4 20 23  5 30.0000000  0  7G17G30G26G22G 6G23G10
  21061012.458    -9149005.60849  -7113835.76347  21061011.935    21061022.140
       243.000         210.000
  23549959.328    13256149.54049  10332237.44846  23549960.661    23549981.557
       221.000         167.000
  21979403.539   -15846366.69149 -11599089.05546  21979403.765    21979416.019
       229.000         182.000
  24007454.418   -11378811.46449  -8831224.78845  24007453.126    24007468.566
       208.000         148.000
  20249979.821    -5771567.51749  -4476030.53048  20249979.711    20249989.011
       245.000         215.000
  21872621.185   -13187118.16649  -9843288.22947  21872620.090    21872633.484
       235.000         195.000
  23900173.841    13696999.68249  10677806.80645  23900172.845    23900186.313
       217.000         157.000
 00  4 20 23  6  0.0000000  0  7G17G30G26G22G 6G23G10
  21056402.319    -9173232.02549  -7132713.45247  21056401.547    21056411.672
       243.000         211.000
  23569146.473    13356976.71349  10410803.71146  23569147.049    23569167.398
       222.000         167.000
  21971309.542   -15888900.56249 -11632232.17546  21971309.309    21971321.508
       229.000         183.000
  24000147.053   -11417211.37549  -8861146.78045  24000146.554    24000160.877
       210.000         149.000
  20252635.140    -5757613.74449  -4465157.47048  20252635.062    20252644.258
       244.000         214.000
  21859617.505   -13255452.03149  -9896535.17347  21859616.352    21859629.366
       236.000         195.000
  23919661.190    13799405.99149  10757603.83445  23919661.063    23919674.116
       217.000         157.000
 00  4 20 23  6 30.0000000  0  7G17G30G26G22G 6G23G10
  21051818.488    -9197320.02149  -7151483.28047  21051817.780    21051827.901
       243.000         211.000
  23588342.621    13457851.64449  10489407.17846  23588343.809    23588363.653
       220.000         164.000
  21963318.201   -15930894.81849 -11664954.79746  21963317.921    21963330.257
       229.000         184.000
  23992932.187   -11455126.81349  -8890691.24245  23992931.899    23992945.318
       208.000         150.000
  20255373.711    -5743222.36249  -4453943.41448  20255373.757    20255383.040
       245.000         214.000
  21846682.267   -13323426.28549  -9949501.89147  21846681.387    21846694.568
       235.000         196.000
  23939161.504    13901880.14449  10837453.73045  23939161.124    23939174.895
       216.000         158.000
 00  4 20 23  7  0.0000000  0  7G17G30G26G22G 6G23G10
  21047256.920    -9221291.11749  -7170162.02247  21047256.557    21047266.611
       243.000         211.000
  23607546.237    13558765.66749  10568041.09246  23607547.435    23607567.988
       219.000         163.000
  21955425.508   -15972370.64749 -11697273.45846  21955425.285    21955437.512
       228.000         184.000
  23985808.867   -11492559.46549  -8919859.51745  23985807.601    23985822.286
       208.000         149.000
  20258194.868    -5728397.01849  -4442391.21248  20258194.953    20258204.275
       245.000         214.000
  21833818.404   -13391025.26749 -10002176.20047  21833817.593    21833830.146
       236.000         196.000
  23958671.352    14004404.61549  10917342.82445  23958671.107    23958683.380
       215.000         157.000
 00  4 20 23  7 30.0000000  0  7G17G30G26G22G 6G23G10
  21042714.759    -9245160.20549  -7188761.26747  21042714.042    21042724.332
       243.000         211.000
  23626755.899    13659711.18249  10646699.54846  23626758.016    23626777.279
       219.000         164.000
  21947630.725   -16013332.08549 -11729191.30446  21947630.502    21947642.242
       229.000         183.000
  23978779.237   -11529500.18349  -8948644.46045  23978778.007    23978792.268
       208.000         150.000
  20261101.847    -5713120.71749  -4430487.60648  20261101.921    20261111.191
       244.000         214.000
  21821024.517   -13458256.59849 -10054564.02547  21821023.620    21821036.836
       236.000         197.000
  23978188.048    14106965.20549  10997260.05545  23978188.226    23978201.271
       213.000         155.000
 00  4 20 23  8  0.0000000  0  7G17G30G26G22G 6G23G10
  21038194.028    -9268916.63349  -7207272.73147  21038193.622    21038203.523
       244.000         211.000
  23645972.342    13760692.71949  10725386.05545  23645973.903    23645994.268
       216.000         162.000
  21939931.653   -16053790.07649 -11760716.86346  21939931.501    21939942.926
       228.000         182.000
  23971845.194   -11565938.92249  -8977038.25745  23971844.258    23971858.434
       211.000         150.000
  20264100.574    -5697362.31049  -4418208.34748  20264100.535    20264109.809
       244.000         214.000
  21808300.746   -13525119.50049 -10106664.76947  21808300.008    21808312.593
       237.000         197.000
  23997710.530    14209556.51049  11077201.23545  23997709.901    23997723.859
       213.000         155.000
 00  4 20 23  8 30.0000000  0  7G17G30G26G22G 6G23G10
  21033699.522    -9292535.39249  -7225676.91647  21033698.923    21033708.664
       243.000         211.000
  23665198.772    13861727.30849  10804113.91545  23665198.574    23665219.661
       216.000         156.000
  21932327.052   -16093751.81049 -11791855.71846  21932327.026    21932338.563
       229.000         182.000
  23965008.189   -11601867.54549  -9005034.56145  23965007.640    23965021.963
       211.000         151.000
  20267195.818    -5681096.54249  -4405533.73848  20267195.892    20267205.239
       244.000         214.000
  21795649.542   -13591601.45449 -10158468.66947  21795648.527    21795661.867
       237.000         198.000
  24017242.322    14312196.02049  11157179.97345  24017241.110    24017255.128
       212.000         155.000
 00  4 20 23  9  0.0000000  0  7G17G30G26G22G 6G23G10
  21029237.896    -9315981.20149  -7243946.33647  21029237.292    21029247.674
       243.000         211.000
  23684438.847    13962833.18949  10882897.30945  23684439.823    23684460.628
       216.000         155.000
  21924818.952   -16133206.51949 -11822599.49346  21924818.694    21924830.462
       228.000         182.000
  23958268.994   -11637282.49649  -9032630.59945  23958268.276    23958283.255
       210.000         151.000
  20270390.942    -5664305.98849  -4392450.20348  20270390.990    20270400.338
       244.000         214.000
  21783069.150   -13657710.92849 -10209982.33247  21783068.276    21783080.820
       237.000         198.000
  24036786.397    14414900.36149  11237209.23245  24036785.540    24036799.968
       209.000         153.000
 00  4 20 23  9 30.0000000  0  7G17G30G26G22G 6G23G10
  21024814.703    -9339225.11849  -7262058.43747  21024814.094    21024824.138
       243.000         211.000
  23703692.036    14064007.25449  10961733.86245  23703693.275    23703713.631
       218.000         156.000
  21917411.649   -16172131.53749 -11852930.51346  21917411.242    21917423.022
       228.000         183.000
  23951627.745   -11672182.23349  -9059825.18345  23951627.453    23951641.046
       210.000         151.000
  20273684.793    -5646996.96049  -4378962.66048  20273685.050    20273694.259
       244.000         214.000
  21770559.136   -13723450.99049 -10261208.14347  21770558.206    21770570.992
       237.000         198.000
  24056347.570    14517694.78049  11317308.67345  24056345.798    24056361.204
       209.000         152.000
 00  4 20 23 10  0.0000000  0  7G17G30G26G22G 6G23G10
  21020431.079    -9362260.93449  -7280008.38647  21020430.649    21020440.607
       244.000         211.000
  23722957.289    14165245.09249  11040620.08645  23722958.957    23722980.190
       216.000         157.000
  21910106.737   -16210518.27549 -11882842.11146  21910106.589    21910118.628
       229.000         183.000
  23945080.861   -11706586.12949  -9086633.38845  23945080.196    23945094.123
       210.000         151.000
  20277074.183    -5629185.82949  -4365083.87648  20277074.114    20277083.545
       244.000         214.000
  21758120.990   -13788813.13249 -10312139.47047  21758119.847    21758132.788
       237.000         198.000
  24075925.962    14620579.73949  11397478.66545  24075924.674    24075939.307
       206.000         150.000
 00  4 20 23 10 30.0000000  0  7G17G30G26G22G 6G23G10
  21016087.290    -9385087.65549  -7297795.39247  21016086.626    21016096.761
       243.000         211.000
  23742231.815    14266532.05749  11119544.60645  23742233.514    23742254.046
       219.000         156.000
  21902906.528   -16248355.11749 -11912325.21246  21902905.934    21902918.308
       229.000         184.000
  23938627.498   -11740498.74349  -9113058.78245  23938627.703    23938641.463
       211.000         152.000
  20280557.463    -5610881.11949  -4350820.47748  20280557.252    20280566.698
       245.000         214.000
  21745755.711   -13853792.29549 -10362772.36747  21745754.517    21745767.405
       237.000         198.000
  24095521.269    14723554.09849  11477718.31445  24095520.848    24095535.155
       207.000         148.000
 00  4 20 23 11  0.0000000  0  7G17G30G26G22G 6G23G10
  21011782.183    -9407711.18949  -7315424.08547  21011781.666    21011791.456
       244.000         211.000
  23761512.341    14367850.70449  11198493.81045  23761514.096    23761535.250
       220.000         156.000
  21895813.587   -16285628.51549 -11941369.27146  21895813.714    21895825.080
       229.000         185.000
  23932268.092   -11773917.10849  -9139099.06045  23932266.587    23932282.372
       210.000         151.000
  20284133.087    -5592091.09149  -4336178.92148  20284133.177    20284142.511
       244.000         214.000
  21733463.141   -13918389.27349 -10413107.47247  21733462.277    21733474.709
       237.000         199.000
  24115131.615    14826606.89349  11558019.07645  24115130.662    24115145.652
       205.000         147.000
 00  4 20 23 11 30.0000000  0  7G17G30G26G22G 6G23G10
  21007513.275    -9430144.31249  -7332904.39347  21007512.682    21007522.627
       243.000         211.000
  23780797.190    14469191.73949  11277460.44545  23780798.096    23780820.003
       218.000         157.000
  21888827.961   -16322337.58149 -11969973.58046  21888827.620    21888839.762
       229.000         184.000
  23926003.997   -11806834.78649  -9164749.18545  23926003.772    23926017.465
       211.000         152.000
  20287800.791    -5572817.17549  -4321160.30348  20287800.868    20287810.419
       244.000         214.000
  21721244.858   -13982595.83749 -10463138.35047  21721243.786    21721256.535
       237.000         199.000
  24134753.841    14929722.48949  11638368.79245  24134753.608    24134766.770
       206.000         146.000
 00  4 20 23 12  0.0000000  0  7G17G30G26G22G 6G23G10
  21003279.669    -9452391.54049  -7350239.84547  21003278.923    21003289.149
       244.000         211.000
  23800087.678    14570562.24549  11356450.02745  23800088.122    23800110.048
       218.000         159.000
  21881947.327   -16358494.89349 -11998147.95146  21881946.724    21881958.794
       228.000         184.000
  23919837.220   -11839241.67749  -9190001.29045  23919836.472    23919851.382
       211.000         153.000
  20291562.166    -5553050.99349  -4305758.10148  20291562.244    20291571.534
       244.000         214.000
  21709100.298   -14046415.10949 -10512867.44347  21709099.433    21709111.939
       238.000         200.000
  24154383.963    15032878.83949  11718750.27145  24154384.048    24154397.929
       207.000         145.000
 00  4 20 23 12 30.0000000  0  7G17G30G26G22G 6G23G10
  20999083.358    -9474443.00049  -7367422.75047  20999082.877    20999092.807
       244.000         211.000
  23819382.824    14671956.94849  11435458.45245  23819384.353    23819405.655
       218.000         162.000
  21875171.375   -16394102.22649 -12025893.77146  21875170.904    21875182.649
       229.000         184.000
  23913771.220   -11871118.40949  -9214840.29145  23913770.441    23913785.670
       211.000         153.000
  20295417.905    -5532789.19449  -4289969.70448  20295417.965    20295427.283
       245.000         214.000
  21697029.322   -14109847.76849 -10562295.27747  21697028.470    21697040.974
       238.000         200.000
  24174023.033    15136082.73749  11799168.78545  24174022.403    24174036.422
       207.000         145.000
 00  4 20 23 13  0.0000000  0  7G17G30G26G22G 6G23G10
  20994921.519    -9496313.63949  -7384464.76247  20994920.859    20994930.774
       243.000         211.000
  23838683.687    14773381.85649  11514490.42646  23838684.812    23838706.214
       222.000         165.000
  21868500.411   -16429157.64849 -12053209.57246  21868499.953    21868511.657
       230.000         184.000
  23907807.059   -11902460.56649  -9239262.73845  23907805.950    23907821.023
       213.000         154.000
  20299368.593    -5512028.39149  -4273792.48048  20299368.570    20299377.852
       245.000         214.000
  21685032.203   -14172892.19649 -10611420.60347  21685031.345    21685043.717
       238.000         200.000
  24193672.131    15239339.13349  11879628.21645  24193671.490    24193685.938
       208.000         144.000
 00  4 20 23 13 30.0000000  0  7G17G30G26G22G 6G23G10
  20990792.634    -9518010.83549  -7401371.61947  20990792.207    20990802.057
       244.000         211.000
  23857991.593    14874843.87049  11593551.33346  23857992.675    23858014.640
       222.000         165.000
  21861932.875   -16463669.66049 -12080101.90446  21861932.909    21861944.215
       231.000         185.000
  23901942.533   -11933279.19149  -9263277.25345  23901942.040    23901956.094
       212.000         155.000
  20303413.483    -5490772.32749  -4257229.32948  20303413.609    20303422.917
       244.000         214.000
  21673106.052   -14235564.08649 -10660255.63847  21673105.122    21673117.455
       239.000         201.000
  24213331.616    15342649.63949  11960129.80645  24213331.519    24213345.543
       209.000         144.000
 00  4 20 23 14  0.0000000  0  7G17G30G26G22G 6G23G10
  20986697.667    -9539529.92549  -7418139.70247  20986696.892    20986706.869
       244.000         211.000
  23877305.414    14976337.14849  11672636.59646  23877306.984    23877329.410
       222.000         166.000
  21855468.206   -16497641.30949 -12106573.19146  21855467.914    21855479.062
       230.000         185.000
  23896174.894   -11963588.19849  -9286894.65545  23896174.033    23896188.118
       213.000         155.000
  20307551.025    -5469029.73849  -4240287.07548  20307551.135    20307560.589
       244.000         214.000
  21661250.890   -14297862.37049 -10708799.55447  21661249.979    21661262.306
       238.000         201.000
  24233003.672    15446026.53849  12040683.12945  24233004.080    24233017.668
       209.000         145.000
 00  4 20 23 14 30.0000000  0  7G17G30G26G22G 6G23G10
  20982633.669    -9560886.06049  -7434780.80047  20982633.145    20982642.791
       244.000         211.000
  23896622.550    15077847.90649  11751735.46046  23896623.332    23896645.741
       221.000         165.000
  21849107.784   -16531065.10149 -12132617.57446  21849107.608    21849119.265
       230.000         185.000
  23890501.969   -11993399.99049  -9310124.61145  23890501.750    23890516.050
       217.000         156.000
  20311780.163    -5446805.55849  -4222969.55548  20311780.367    20311789.684
       244.000         214.000
  21649467.661   -14359782.91249 -10757049.12947  21649466.816    21649478.482
       238.000         201.000
  24252689.648    15549476.13949  12121293.09945  24252689.263    24252702.796
       211.000         145.000
 00  4 20 23 15  0.0000000  0  7G17G30G26G22G 6G23G10
  20978600.974    -9582078.00149  -7451293.96447  20978600.397    20978610.304
       243.000         211.000
  23915941.440    15179367.56749  11830841.26446  23915943.157    23915964.363
       220.000         164.000
  21842852.340   -16563937.28949 -12158232.14746  21842852.288    21842863.801
       230.000         185.000
  23884922.737   -12022719.51149  -9332970.98345  23884922.432    23884936.554
       216.000         157.000
  20316101.160    -5424098.61949  -4205275.86248  20316101.426    20316110.593
       244.000         214.000
  21637755.110   -14421331.75749 -10805009.06347  21637754.164    21637766.508
       239.000         201.000
  24272385.790    15652979.17449  12201944.72745  24272385.747    24272399.613
       212.000         145.000
 00  4 20 23 15 30.0000000  0  7G17G30G26G22G 6G23G10
  20974602.287    -9603090.74049  -7467667.48947  20974601.645    20974611.459
       243.000         211.000
  23935261.276    15280892.33549  11909951.06245  23935262.922    23935284.351
       218.000         162.000
  21836701.993   -16596257.09349 -12183416.27446  21836701.836    21836712.489
       230.000         186.000
  23879436.794   -12051548.47449  -9355435.10545  23879436.950    23879450.538
       216.000         157.000
  20320514.130    -5400908.58549  -4187205.72248  20320514.131    20320523.384
       244.000         213.000
  21626114.452   -14482502.96149 -10852674.73647  21626113.553    21626125.564
       239.000         201.000
  24292091.635    15756533.01549  12282635.94345  24292090.716    24292104.993
       211.000         144.000
 00  4 20 23 16  0.0000000  0  7G17G30G26G22G 6G23G10
  20970637.973    -9623923.36349  -7483900.66847  20970637.250    20970647.340
       243.000         211.000
  23954580.140    15382411.87949  11989056.71545  23954583.227    23954604.179
       210.000         158.000
  21830658.707   -16628014.27649 -12208162.01546  21830658.110    21830669.890
       230.000         186.000
  23874044.272   -12079886.79149  -9377516.88945  23874044.403    23874057.159
       217.000         157.000
  20325020.272    -5377228.69849  -4168753.88148  20325020.221    20325029.578
       244.000         213.000
  21614549.400   -14543277.10149 -10900031.01247  21614548.849    21614560.568
       240.000         201.000
  24311808.220    15860143.56749  12363371.35745  24311807.226    24311822.799
       212.000         144.000
 00  4 20 23 16 30.0000000  0  7G17G30G26G22G 6G23G10
  20966707.579    -9644577.73749  -7499994.95247  20966707.061    20966716.786
       244.000         212.000
  23973900.183    15483937.36449  12068167.07345  23973900.744    23973924.044
       208.000         152.000
  21824725.033   -16659195.37949 -12232458.84246  21824724.528    21824736.085
       230.000         186.000
  23868746.300   -12107727.55949  -9399210.99645  23868745.661    23868759.319
       215.000         158.000
  20329621.161    -5353050.88849  -4149914.05048  20329621.166    20329630.488
       244.000         213.000
  21603058.698   -14603660.41749 -10947082.75147  21603058.014    21603069.800
       240.000         202.000
  24331531.251    15963788.77849  12444133.77145  24331530.872    24331543.771
       215.000         144.000
 00  4 20 23 17  0.0000000  0  7G17G30G26G22G 6G23G10
  20962812.063    -9665048.85049  -7515946.43647  20962811.348    20962821.259
       244.000         212.000
  23993225.870    15585492.84149  12147300.76545  23993227.015    23993248.643
       211.000         152.000
  21818901.512   -16689797.65749 -12256304.64246  21818901.479    21818912.493
       230.000         186.000
  23863544.589   -12135062.76749  -9420511.14245  23863544.112    23863557.986
       216.000         158.000
  20334317.558    -5328371.26849  -4130683.20048  20334317.715    20334327.124
       244.000         213.000
  21591640.656   -14663662.00649 -10993837.04947  21591639.669    21591651.953
       239.000         202.000
  24351259.700    16067461.76649  12524917.83745  24351258.684    24351271.757
       211.000         144.000
 00  4 20 23 17 30.0000000  0  7G17G30G26G22G 6G23G10
  20958948.284    -9685352.72249  -7531767.60147  20958947.593    20958957.502
       244.000         212.000
  24012558.834    15687086.60549  12226464.30645  24012559.431    24012581.327
       213.000         143.000
  21813186.255   -16719831.25649 -12279707.32646  21813186.475    21813197.032
       231.000         187.000
  23858440.165   -12161886.93349  -9441413.08245  23858439.036    23858452.313
       217.000         158.000
  20339107.589    -5303199.58649  -4111068.92548  20339107.319    20339116.920
       244.000         213.000
  21580295.289   -14723281.61749 -11040293.70347  21580294.623    21580306.321
       240.000         202.000
  24370994.598    16171169.17649  12605728.70845  24370993.842    24371008.684
       212.000         143.000
 00  4 20 23 18  0.0000000  0  7G17G30G26G22G 6G23G10
  20955115.156    -9705495.73249  -7547463.41947  20955114.656    20955124.340
       244.000         212.000
  24031897.647    15788711.35749  12305651.97945  24031899.222    24031921.817
       218.000         146.000
  21807578.426   -16749300.09749 -12302669.94946  21807578.587    21807589.500
       231.000         187.000
  23853433.951   -12188194.45749  -9461912.43845  23853433.582    23853447.529
       216.000         157.000
  20343989.411    -5277545.43549  -4091078.70248  20343989.469    20343999.043
       244.000         213.000
  21569019.475   -14782535.73149 -11086465.55147  21569018.649    21569030.448
       240.000         203.000
  24390732.081    16274890.10249  12686550.12345  24390731.368    24390746.241
       209.000         143.000
 00  4 20 23 18 30.0000000  0  7G17G30G26G22G 6G23G10
  20951310.329    -9725490.46649  -7563043.70047  20951309.930    20951319.739
       243.000         212.000
  24051241.220    15890360.69949  12384858.82045  24051242.072    24051264.671
       214.000         154.000
  21802076.416   -16778213.06349 -12325199.41946  21802076.227    21802087.688
       232.000         187.000
  23848529.138   -12213969.66649  -9481996.99945  23848528.437    23848542.750
       217.000         157.000
  20348963.252    -5251407.78049  -4070711.72248  20348963.266    20348972.657
       244.000         213.000
  21557811.018   -14841435.56149 -11132361.34747  21557810.159    21557821.920
       239.000         202.000
  24410469.015    16378607.52049  12767368.79245  24410468.444    24410482.382
       211.000         143.000
 00  4 20 23 19  0.0000000  0  7G17G30G26G22G 6G23G10
  20947532.611    -9745342.25249  -7578512.59647  20947532.155    20947541.954
       244.000         212.000
  24070582.463    15991997.88849  12464056.18745  24070583.842    24070607.083
       214.000         155.000
  21796676.318   -16806590.33749 -12347311.47246  21796675.855    21796687.762
       232.000         187.000
  23843726.787   -12239206.02749  -9501661.69845  23843726.781    23843740.183
       217.000         157.000
  20354029.549    -5224784.52249  -4049966.35448  20354029.668    20354039.206
       244.000         213.000
  21546673.044   -14899965.17449 -11177968.66447  21546672.149    21546684.161
       240.000         202.000
  24430208.584    16482340.06949  12848199.25745  24430208.249    24430221.152
       215.000         143.000
 00  4 20 23 19 30.0000000  0  7G17G30G26G22G 6G23G10
  20943784.883    -9765036.75949  -7593858.93247  20943784.180    20943794.171
       243.000         212.000
  24089914.456    16093586.48049  12543215.65845  24089915.988    24089938.778
       212.000         157.000
  21791379.687   -16834424.11549 -12369000.01746  21791379.932    21791390.710
       232.000         187.000
  23839025.857   -12263909.73749  -9520911.32545  23839025.856    23839038.911
       217.000         156.000
  20359187.469    -5197679.47849  -4028845.55748  20359187.478    20359196.858
       244.000         213.000
  21535609.180   -14958105.36949 -11223272.54047  21535608.069    21535619.984
       240.000         202.000
  24449951.544    16586089.43149  12929042.83045  24449951.051    24449965.163
       212.000         143.000
 00  4 20 23 20  0.0000000  0  7G17G30G26G22G 6G23G10
  20940069.592    -9784560.52349  -7609072.22547  20940069.182    20940078.823
       244.000         212.000
  24109236.692    16195123.49849  12622334.94045  24109238.452    24109261.481
       213.000         155.000
  21786190.568   -16861692.64149 -12390248.12246  21786190.674    21786201.572
       232.000         187.000
  23834424.909   -12288088.16849  -9539751.64845  23834424.851    23834438.543
       217.000         156.000
  20364438.536    -5170085.13849  -4007343.49748  20364438.613    20364447.869
       244.000         213.000
  21524620.514   -15015850.51249 -11268268.59247  21524619.566    21524631.283
       240.000         203.000
  24469699.688    16689865.97149  13009907.55045  24469698.980    24469712.346
       214.000         142.000
 00  4 20 23 20 30.0000000  0  7G17G30G26G22G 6G23G10
  20936388.387    -9803905.17049  -7624145.93947  20936387.700    20936397.535
       243.000         212.000
  24128547.616    16296601.45549  12701408.20145  24128548.773    24128571.963
       208.000         150.000
  21781110.518   -16888388.13049 -12411049.70047  21781110.571    21781121.305
       232.000         188.000
  23829923.169   -12311745.00049  -9558185.54545  23829922.028    23829936.413
       216.000         155.000
  20369784.060    -5141994.31049  -3985454.55548  20369784.062    20369793.481
       244.000         213.000
  21513709.336   -15073188.28049 -11312947.20747  21513708.619    21513720.049
       241.000         203.000
  24489454.016    16793675.21249  13090797.78645  24489454.014    24489466.266
       214.000         140.000
 00  4 20 23 21  0.0000000  0  7G17G30G26G22G 6G23G10
  20932747.075    -9823040.48749  -7639056.54347  20932746.661    20932756.332
       244.000         212.000
  24147848.968    16398028.96749  12780442.14145  24147851.121    24147873.425
       208.000         147.000
  21776141.946   -16914497.68549 -12431394.69847  21776141.901    21776152.452
       232.000         188.000
  23825519.269   -12334887.20549  -9576218.42045  23825518.527    23825531.692
       216.000         154.000
  20375222.777    -5113413.46749  -3963183.79648  20375222.777    20375232.383
       244.000         213.000
  21502877.124   -15130111.23949 -11357302.59747  21502876.308    21502887.927
       241.000         204.000
  24509215.261    16897520.53849  13171716.11445  24509215.553    24509227.937
       211.000         141.000
 00  4 20 23 21 30.0000000  0  7G17G30G26G22G 6G23G10
  20929146.613    -9841960.93149  -7653799.71047  20929146.094    20929155.923
       244.000         212.000
  24167146.538    16499436.61149  12859460.62545  24167148.251    24167170.852
       207.000         144.000
  21771288.013   -16940005.02549 -12451270.45247  21771288.051    21771299.462
       233.000         188.000
  23821212.475   -12357519.07049  -9593853.62045  23821211.438    23821225.258
       215.000         154.000
  20380755.350    -5084339.91849  -3940529.10648  20380755.447    20380764.734
       245.000         213.000
  21492119.977   -15186639.82949 -11401350.69047  21492119.305    21492131.025
       240.000         204.000
  24528981.076    17001390.05849  13252653.31745  24528979.611    24528994.143
       209.000         140.000
 00  4 20 23 22  0.0000000  0  8G17G30G26G22G21G 6G23G10
  20925583.477    -9860685.18549  -7668390.00447  20925583.060    20925592.563
       244.000         212.000
  24186443.891    16600843.05049  12938478.17145  24186445.262    24186470.042
       208.000         141.000
  21766547.727   -16964914.94549 -12470680.67246  21766548.092    21766558.670
       233.000         187.000
  23817004.394   -12379632.49249  -9611084.86345  23817003.192    23817018.429
       215.000         154.000
                   -624547.02349   -458203.58343
       209.000          74.000
  20386385.828    -5054751.66149  -3917473.35448  20386385.879    20386395.285
       244.000         213.000
  21481435.832   -15242784.90849 -11445099.94747  21481434.822    21481446.405
       240.000         204.000
  24548748.199    17105267.31449  13333596.52445  24548747.836    24548761.632
       211.000         140.000
 00  4 20 23 22 30.0000000  0  8G17G30G26G22G21G 6G23G10
  20922057.699    -9879213.07449  -7682827.28247  20922057.141    20922066.920
       244.000         212.000
  24205741.415    16702250.72049  13017496.68845  24205742.423    24205765.734
       213.000         141.000
  21761918.951   -16989239.26649 -12489634.57946  21761919.057    21761929.844
       233.000         187.000
  23812895.604   -12401224.25549  -9627909.60845  23812894.926    23812909.365
       216.000         154.000
                   -715446.28649   -529032.99243
       212.000          74.000
  20392116.961    -5024634.70849  -3894005.62548  20392117.041    20392126.439
       244.000         213.000
  21470827.674   -15298530.51049 -11488537.92147  21470827.146    21470838.352
       240.000         204.000
  24568513.484    17209134.32349  13414531.75345  24568513.302    24568527.536
       212.000         142.000
 00  4 20 23 23  0.0000000  0  8G17G30G26G22G21G 6G23G10
  20918569.045    -9897546.04549  -7697112.67447  20918568.396    20918578.389
       244.000         212.000
  24225041.760    16803672.89249  13096526.50245  24225043.631    24225066.654
       215.000         144.000
  21757401.881   -17012976.19649 -12508130.77947  21757401.724    21757412.814
       233.000         188.000
  23808886.450   -12422292.60049  -9644326.49645  23808885.232    23808900.735
       215.000         154.000
  24843796.735     -806191.99549   -599743.25645  24843793.919    24843823.570
       214.000         136.000
  20397949.525    -4993984.55549  -3870122.41448  20397949.563    20397959.003
       245.000         213.000
  21460296.381   -15353872.31949 -11531661.25547  21460295.497    21460306.842
       240.000         204.000
  24588279.699    17313005.59149  13495470.30145  24588280.478    24588293.433
       212.000         143.000
 00  4 20 23 23 30.0000000  0  8G17G30G26G22G21G 6G23G10
  20915115.090    -9915696.62949  -7711255.94647  20915114.218    20915124.049
       244.000         212.000
  24244344.826    16905108.80749  13175567.03445  24244347.058    24244369.366
       220.000         148.000
  21752997.892   -17036118.93149 -12526163.97247  21752997.773    21753008.644
       233.000         188.000
  23804977.567   -12442833.64149  -9660332.50545  23804976.478    23804991.586
       214.000         154.000
  24826559.073     -896768.11349   -670321.28345  24826558.821    24826586.073
       212.000         141.000
  20403885.661    -4962789.96649  -3845814.96748  20403885.664    20403895.177
       244.000         213.000
  21449842.594   -15408806.64549 -11574467.06847  21449841.883    21449853.205
       241.000         204.000
  24608048.780    17416892.78349  13576421.26645  24608049.002    24608064.049
       207.000         142.000
 00  4 20 23 24  0.0000000  0  8G17G30G26G22G21G 6G23G10
  20911696.410    -9933661.99649  -7725254.90847  20911695.864    20911705.419
       244.000         212.000
  24263646.070    17006535.60149  13254600.46345  24263647.576    24263671.120
       221.000         152.000
  21748706.789   -17058668.36049 -12543734.86546  21748706.604    21748717.124
       233.000         187.000
  23801169.862   -12462843.53049  -9675924.63345  23801169.683    23801182.918
       214.000         153.000
  24809360.131     -987149.29849   -740747.39945  24809359.608    24809386.461
       215.000         143.000
  20409923.037    -4931063.41649  -3821093.02347  20409923.274    20409932.584
       244.000         212.000
  21439471.920   -15463304.52849 -11616932.81347  21439471.223    21439482.618
       240.000         205.000
  24627823.884    17520811.54749  13657396.81145  24627823.433    24627837.978
       206.000         141.000
 00  4 20 23 24 30.0000000  0  8G17G30G26G22G21G 6G23G10
  20908313.397    -9951439.77049  -7739107.68747  20908312.916    20908322.482
       244.000         212.000
  24282939.809    17107922.61849  13333602.86745  24282941.769    24282965.536
       218.000         155.000
  21744527.238   -17080631.71349 -12560849.06546  21744526.687    21744537.778
       232.000         187.000
  23797461.951   -12482328.75749  -9691107.92745  23797461.071    23797475.579
       214.000         154.000
  24792195.288    -1077350.08649   -811032.99545  24792194.691    24792221.812
       213.000         142.000
  20416055.157    -4898839.26449  -3795983.32647  20416055.229    20416064.741
       244.000         212.000
  21429183.372   -15517370.78249 -11659062.21447  21429182.676    21429194.020
       240.000         205.000
  24647606.959    17624771.97949  13738404.85445  24647607.247    24647621.442
       206.000         140.000
 00  4 20 23 25  0.0000000  0  8G17G30G26G22G21G 6G23G10
  20904962.912    -9969046.73749  -7752827.37147  20904962.346    20904971.898
       244.000         212.000
  24302222.513    17209251.87249  13412560.25645  24302223.970    24302247.483
       216.000         154.000
  21740459.517   -17102007.06349 -12577505.08646  21740459.223    21740469.863
       232.000         187.000
  23793853.221   -12501292.68949  -9705885.04445  23793852.559    23793867.144
       215.000         154.000
  24775059.740    -1167396.25549   -881198.09945  24775057.445    24775085.273
       211.000         141.000
  20422278.544    -4866135.41049  -3770499.83547  20422278.501    20422287.909
       244.000         212.000
  21418972.157   -15571030.43349 -11700874.78847  21418971.565    21418982.633
       241.000         205.000
  24667399.458    17728782.19949  13819451.69445  24667399.425    24667414.180
       203.000         138.000
 00  4 20 23 25 30.0000000  0  8G17G30G26G22G21G 6G23G10
  20901642.894    -9986493.34949  -7766422.10347  20901642.324    20901651.988
       244.000         212.000
  24321490.416    17310503.73749  13491457.33245  24321492.021    24321516.605
       216.000         152.000
  21736503.248   -17122797.02849 -12593704.95946  21736503.342    21736514.052
       232.000         187.000
  23790341.795   -12519746.27949  -9720264.46145  23790341.150    23790355.867
       216.000         155.000
  24757950.455    -1257304.79249   -951255.96145  24757949.308    24757975.097
       210.000         141.000
  20428592.165    -4832957.28349  -3744646.78047  20428592.340    20428601.459
       244.000         212.000
  21408836.862   -15624291.31749 -11742376.63147  21408836.061    21408847.377
       241.000         206.000
  24687196.701    17832817.47149  13900518.00745  24687196.400    24687209.701
       201.000         136.000
 00  4 20 23 26  0.0000000  0  8G17G30G26G22G21G 6G23G10
  20898355.141   -10003770.44049  -7779884.74247  20898354.590    20898364.315
       244.000         212.000
  24340743.475    17411677.53649  13570293.57745  24340745.173    24340769.113
       215.000         152.000
  21732658.552   -17143000.67249 -12609447.96246  21732658.863    21732669.228
       233.000         187.000
  23786928.359   -12537684.10349  -9734241.99045  23786927.743    23786941.201
       214.000         155.000
  24740864.640    -1347089.16149  -1021217.03745  24740863.597    24740889.544
       209.000         141.000
  20434996.064    -4799304.69849  -3718424.01947  20434996.027    20435005.686
       244.000         212.000
  21398777.609   -15677152.47249 -11783566.99747  21398776.975    21398788.040
       241.000         206.000
  24706997.540    17936870.54449  13981598.20945  24706997.931    24707013.190
       201.000         135.000
 00  4 20 23 26 30.0000000  0  8G17G30G26G22G21G 6G23G10
  20895101.563   -10020867.95949  -7793207.44947  20895100.913    20895110.601
       244.000         212.000
  24359986.408    17512798.06749  13649088.29945  24359988.161    24360013.317
       210.000         149.000
  21728928.456   -17162602.20949 -12624721.78747  21728928.816    21728938.853
       233.000         188.000
  23783614.186   -12555099.95649  -9747812.80445  23783613.627    23783627.332
       217.000         155.000
  24723801.136    -1436756.22049  -1091086.69945  24723799.620    24723823.605
       208.000         140.000
  20441492.861    -4765163.89049  -3691820.81947  20441492.769    20441502.419
       244.000         212.000
  21388790.246   -15729636.10449 -11824463.19347  21388789.509    21388800.463
       241.000         206.000
  24726796.663    18040915.77349  14062672.30145  24726797.214    24726811.205
       201.000         137.000
 00  4 20 23 27  0.0000000  0  7G17G30G26G22G21G 6G23
  20891886.487   -10037763.17549  -7806372.52547  20891885.968    20891895.468
       245.000         212.000
  24379224.473    17613893.04349  13727863.14045  24379225.184    24379250.980
       210.000         146.000
  21725317.320   -17181578.52749 -12639508.43147  21725316.736    21725327.977
       232.000         188.000
  23780402.662   -12571976.86149  -9760963.64445  23780401.381    23780416.130
       217.000         155.000
  24706765.303    -1526277.39949  -1160842.71845  24706763.494    24706789.550
       210.000         142.000
  20448087.590    -4730508.39549  -3664816.56848  20448087.783    20448097.141
       244.000         213.000
  21378875.456   -15781737.96549 -11865061.90347  21378874.803    21378885.592
       242.000         206.000
 00  4 20 23 27 30.0000000  0  7G17G30G26G22G21G 6G23
  20888710.793   -10054451.54149  -7819376.41948  20888710.237    20888719.760
       244.000         213.000
  24398454.961    17714947.77549  13806606.62545  24398456.450    24398481.384
       211.000         146.000
  21721822.696   -17199942.41249 -12653817.85847  21721822.715    21721833.556
       233.000         188.000
  23777293.488   -12588314.94249  -9773694.63445  23777291.364    23777306.588
       214.000         155.000
  24689756.737    -1615655.25849  -1230487.07745  24689754.948    24689781.068
       214.000         146.000
  20454777.667    -4695352.01349  -3637422.01248  20454777.622    20454787.326
       245.000         213.000
  21369032.483   -15833462.54749 -11905366.63647  21369031.627    21369042.967
       241.000         207.000
 00  4 20 23 28  0.0000000  0  7G17G30G26G22G21G 6G23
  20885569.035   -10070961.30049  -7832241.13948  20885568.622    20885577.943
       244.000         213.000
  24417671.435    17815928.84349  13885292.66545  24417673.716    24417697.913
       209.000         146.000
  21718439.247   -17217722.35549 -12667672.26546  21718438.988    21718449.348
       232.000         187.000
  23774282.609   -12604137.38949  -9786023.82345  23774282.407    23774297.324
       215.000         155.000
  24672771.675    -1704909.96849  -1300035.49645  24672769.517    24672795.042
       217.000         149.000
  20461556.292    -4659730.26049  -3609664.82948  20461556.319    20461565.946
       244.000         213.000
  21359254.567   -15884845.18549 -11945404.91947  21359253.836    21359264.961
       241.000         206.000
 00  4 20 23 28 30.0000000  0  7G17G30G26G22G21G 6G23
  20882458.647   -10087306.53249  -7844977.65848  20882458.095    20882467.508
       244.000         213.000
  24436871.785    17916825.62349  13963913.06045  24436872.875    24436897.904
       213.000         144.000
  21715166.000   -17234922.91649 -12681075.21646  21715166.063    21715176.624
       232.000         187.000
  23771367.084   -12619458.58549  -9797962.43145  23771366.505    23771380.583
       216.000         155.000
  24655813.014    -1794026.35249  -1369476.13545  24655811.187    24655836.542
       218.000         150.000
  20468422.812    -4623646.77449  -3581547.86347  20468422.736    20468432.064
       244.000         212.000
  21349541.559   -15935886.68149 -11985177.37347  21349540.740    21349551.916
       242.000         207.000
 00  4 20 23 29  0.0000000  0  7G17G30G26G22G21G 6G23
  20879378.881   -10103490.97949  -7857588.89248  20879378.297    20879387.757
       244.000         213.000
  24456054.537    18017629.91449  14042461.40145  24456056.384    24456081.470
       212.000         143.000
  21712001.670   -17251551.01449 -12694032.09546  21712001.664    21712012.106
       233.000         187.000
  23768546.244   -12634282.05149  -9809513.20445  23768545.368    23768560.360
       218.000         155.000
  24638883.027    -1882991.48449  -1438798.93845  24638880.828    24638906.111
       218.000         149.000
  20475379.561    -4587088.72849  -3553061.10147  20475379.600    20475388.858
       244.000         212.000
  21339900.090   -15986552.32349 -12024656.95647  21339899.325    21339910.433
       242.000         207.000
 00  4 20 23 29 30.0000000  0  7G17G30G26G22G21G 6G23
  20876331.285   -10119506.04949  -7870068.14548  20876330.697    20876340.095
       244.000         213.000
  24475221.578    18118351.59449  14120945.36545  24475223.076    24475246.830
       214.000         145.000
  21708948.063   -17267597.36949 -12706535.67247  21708947.798    21708958.558
       233.000         188.000
  23765822.027   -12648598.67649  -9820669.03745  23765821.124    23765836.055
       216.000         156.000
  24621983.825    -1971794.77349  -1507995.61945  24621981.677    24622006.879
       215.000         147.000
  20482430.563    -4550035.70849  -3524188.65147  20482430.598    20482440.024
       244.000         212.000
  21330337.511   -16036803.37549 -12063813.49147  21330336.725    21330347.529
       242.000         208.000
 00  4 20 23 30  0.0000000  0  7G17G30G26G22G21G 6G23
  20873317.415   -10135343.90249  -7882409.30848  20873316.943    20873326.417
       244.000         213.000
  24494377.910    18219017.02549  14199385.50545  24494378.914    24494404.386
       217.000         147.000
  21706008.350   -17283045.08149 -12718572.76547  21706008.153    21706018.703
       233.000         188.000
  23763194.193   -12662408.00349  -9831429.56945  23763193.653    23763207.463
       216.000         155.000
  24605119.604    -2060414.28449  -1577049.11045  24605117.961    24605141.919
       216.000         145.000
  20489581.069    -4512459.67149  -3494908.65147  20489581.008    20489590.363
       244.000         212.000
  21320856.896   -16086623.83449 -12102634.49347  21320856.178    21320867.072
       243.000         208.000
 00  4 20 23 30 30.0000000  0  7G17G30G26G22G21G 6G23
  20870338.817   -10150996.31949  -7894605.97548  20870338.385    20870347.888
       244.000         213.000
  24513527.897    18319648.87649  14277799.50445  24513529.896    24513553.654
       216.000         147.000
  21703185.059   -17297881.58349 -12730133.58647  21703185.098    21703195.445
       233.000         189.000
  23760664.194   -12675702.91349  -9841789.26745  23760664.125    23760677.420
       216.000         155.000
  24588290.610    -2148848.35849  -1645958.11545  24588288.092    24588312.939
       214.000         141.000
  20496832.989    -4474350.67349  -3465213.36347  20496832.778    20496842.558
       244.000         212.000
  21311463.286   -16135987.03649 -12141099.19947  21311462.751    21311473.548
       243.000         209.000
 00  4 20 23 31  0.0000000  0  7G17G30G26G22G21G 6G23
  20867398.063   -10166450.18249  -7906647.92448  20867397.511    20867406.947
       244.000         213.000
  24532672.822    18420254.02849  14356192.68245  24532674.283    24532699.952
       215.000         147.000
  21700481.912   -17312086.15849 -12741201.99947  21700481.629    21700492.357
       233.000         189.000
  23758234.893   -12688469.50149  -9851737.27945  23758234.157    23758249.515
       216.000         156.000
  24571494.893    -2237107.86249  -1714731.09545  24571492.100    24571517.746
       212.000         138.000
  20504185.653    -4435712.14049  -3435105.44847  20504185.518    20504195.319
       244.000         212.000
  21302157.700   -16184887.86249 -12179203.61147  21302156.894    21302167.910
       243.000         209.000
 00  4 20 23 31 30.0000000  0  7G17G30G26G22G21G 6G23
  20864492.789   -10181717.34649  -7918544.38548  20864492.163    20864501.788
       244.000         213.000
  24551810.607    18520822.19249  14434556.91145  24551810.995    24551838.103
       206.000         136.000
  21697901.549   -17325645.56949 -12751767.68947  21697900.986    21697912.139
       232.000         189.000
  23755907.932   -12700697.64949  -9861265.71945  23755907.258    23755921.811
       217.000         155.000
  24554733.546    -2325186.50449  -1783363.13845  24554731.183    24554756.392
       215.000         142.000
  20511635.752    -4396561.77849  -3404598.70447  20511635.870    20511645.422
       244.000         212.000
  21292934.201   -16233357.14049 -12216971.74647  21292933.389    21292944.195
       242.000         208.000
 00  4 20 23 32  0.0000000  0  6G17G26G22G21G 6G23
  20861622.720   -10196799.36149  -7930296.57948  20861622.130    20861631.818
       244.000         213.000
  21695446.442   -17338547.06549 -12761820.70847  21695446.255    21695456.849
       233.000         189.000
  23753684.155   -12712383.35849  -9870371.48645  23753682.558    23753697.033
       215.000         154.000
  24538009.963    -2413066.61449  -1851840.47045  24538008.880    24538031.638
       204.000         139.000
  20519180.558    -4356913.77449  -3373704.18847  20519180.657    20519190.169
       244.000         212.000
  21283791.103   -16281403.78849 -12254410.56647  21283790.498    21283801.429
       242.000         208.000
 00  4 20 23 32 30.0000000  0  6G17G26G22G21G 6G23
  20858779.289   -10211741.45949  -7941939.74648  20858778.568    20858788.380
       244.000         213.000
  21693108.056   -17350835.03249 -12771395.66947  21693108.144    21693118.182
       233.000         189.000
  23751554.976   -12723572.45649  -9879090.28545  23751554.151    23751569.145
       215.000         154.000
  24521312.942    -2500806.79749  -1920208.81345  24521312.239    24521333.885
       209.000         138.000
  20526808.450    -4316828.93849  -3342469.29547  20526808.276    20526817.929
       246.000         212.000
  21274718.808   -16329078.48649 -12291559.56147  21274718.029    21274729.115
       242.000         208.000
 00  4 20 23 33  0.0000000  0  6G17G26G22G21G 6G23
  20855961.426   -10226549.43349  -7953478.40348  20855960.969    20855970.420
       244.000         213.000
  21690880.835   -17362539.01949 -12780515.59547  21690881.105    21690891.521
       233.000         189.000
  23749518.713   -12734272.78249  -9887428.21445  23749518.411    23749531.898
       213.000         153.000
  24504641.751    -2588411.80249  -1988471.85745  24504639.311    24504663.504
       208.000         141.000
  20534517.344    -4276318.52149  -3310902.77247  20534517.379    20534526.939
       246.000         212.000
  21265711.065   -16376413.81349 -12328444.10547  21265710.375    21265721.238
       243.000         209.000
 00  4 20 23 33 30.0000000  0  6G17G26G22G21G 6G23
  20853170.385   -10241216.27849  -7964907.08748  20853169.691    20853179.294
       245.000         213.000
  21688761.680   -17373674.86649 -12789192.81947  21688761.813    21688771.923
       233.000         189.000
  23747574.964   -12744486.98549  -9895387.35845  23747573.897    23747587.714
       215.000         152.000
  24487997.564    -2675875.16449  -2056624.50345  24487994.894    24488020.141
       209.000         144.000
  20542309.378    -4235371.11449  -3278995.74047  20542309.495    20542318.995
       246.000         212.000
  21256768.786   -16423405.43049 -12365060.82847  21256767.986    21256778.964
       243.000         209.000
 00  4 20 23 34  0.0000000  0  6G17G26G22G21G 6G23
  20850413.096   -10255705.76149  -7976197.57048  20850412.590    20850422.159
       245.000         213.000
  21686751.882   -17384236.11649 -12797422.27847  21686752.064    21686762.490
       233.000         189.000
  23745724.164   -12754212.69849  -9902965.85745  23745722.858    23745737.971
       214.000         151.000
  24471377.647    -2763210.84449  -2124677.68045  24471376.828    24471399.536
       210.000         144.000
  20550189.061    -4193963.21449  -3246729.87847  20550189.120    20550198.776
       246.000         212.000
  21247898.374   -16470019.06849 -12401383.02047  21247897.547    21247908.390
       243.000         209.000
 00  4 20 23 34 30.0000000  0  6G17G26G22G21G 6G23
  20847694.609   -10269991.61849  -7987329.38148  20847694.252    20847703.699
       245.000         213.000
  21684856.744   -17394194.81949 -12805182.21647  21684856.446    21684867.084
       233.000         189.000
  23743971.655   -12763422.16949  -9910142.09745  23743970.241    23743984.570
       212.000         150.000
  24454785.297    -2850401.80649  -2192618.06245  24454782.716    24454807.576
       205.000         145.000
  20558163.931    -4152055.16149  -3214074.29047  20558164.049    20558173.624
       246.000         212.000
  21239103.934   -16516233.62749 -12437394.24147  21239103.135    21239114.059
       243.000         209.000
 00  4 20 23 35  0.0000000  0  6G17G26G22G21G 6G23
  20845016.017   -10284067.67949  -7998297.70948  20845015.306    20845025.180
       245.000         213.000
  21683078.047   -17403541.51449 -12812465.28047  21683078.257    21683088.478
       232.000         189.000
  23742319.712   -12772103.32449  -9916906.64845  23742320.124    23742333.144
       214.000         149.000
  24438224.776    -2937425.18249  -2260427.87245  24438223.110    24438245.002
       202.000         144.000
  20566238.376    -4109623.74649  -3181010.89047  20566238.479    20566248.262
       246.000         212.000
  21230389.226   -16562029.17049 -12473078.96047  21230388.588    21230399.299
       243.000         210.000
 00  4 20 23 35 30.0000000  0  6G17G26G22G21G 6G23
  20842377.151   -10297934.88749  -8009103.29448  20842376.653    20842386.429
       244.000         213.000
  21681420.100   -17412253.90149 -12819254.08147  21681420.105    21681430.477
       233.000         189.000
  23740768.207   -12780256.62949  -9923259.90245  23740768.068    23740782.197
       213.000         149.000
  24421697.075    -3024276.31649  -2328103.43545  24421694.892    24421718.462
       204.000         141.000
  20574415.958    -4066650.53949  -3147525.30947  20574416.158    20574425.805
       246.000         212.000
  21221758.076   -16607385.52449 -12508421.44347  21221757.593    21221768.214
       243.000         209.000
 00  4 20 23 36  0.0000000  0  6G17G26G22G21G 6G23
  20839777.454   -10311596.23949  -8019748.47048  20839776.943    20839786.468
       244.000         213.000
  21679885.059   -17420320.19449 -12825539.43647  21679884.748    21679895.321
       233.000         189.000
  23739318.544   -12787874.92049  -9929196.25245  23739318.062    23739331.574
       214.000         149.000
  24405205.008    -3110940.00049  -2395632.93445  24405202.590    24405227.065
       201.000         141.000
  20582698.002    -4023128.24649  -3113611.87547  20582698.165    20582707.796
       246.000         212.000
  21213210.535   -16652302.95549 -12543421.92047  21213210.120    21213220.483
       243.000         210.000
 00  4 20 23 36 30.0000000  0  6G17G26G22G21G 6G23
  20837211.587   -10325079.62949  -8030254.98048  20837210.959    20837220.626
       244.000         213.000
  21678470.490   -17427753.63849 -12831331.67847  21678470.897    21678480.984
       233.000         189.000
  23737971.104   -12794956.05249  -9934714.02445  23737970.945    23737983.890
       210.000         148.000
  24388752.512    -3197394.96449  -2462999.78845  24388750.309    24388774.389
       204.000         143.000
  20591083.658    -3979061.60549  -3079274.28147  20591083.629    20591093.252
       246.000         212.000
  21204742.764   -16696801.15949 -12578095.72947  21204742.422    21204752.646
       244.000         210.000
 00  4 20 23 37  0.0000000  0  6G17G26G22G21G 6G23
  20834679.460   -10338386.18349  -8040623.69648  20834678.882    20834688.323
       244.000         213.000
  21677172.727   -17434573.35849 -12836645.68647  21677172.406    21677183.578
       233.000         189.000
  23736724.832   -12801505.16149  -9939817.24245  23736724.438    23736738.973
       212.000         148.000
  24372338.234    -3283650.29249  -2530211.09045  24372336.642    24372358.627
       206.000         147.000
  20599568.922    -3934471.41449  -3044528.72147  20599569.015    20599578.607
       246.000         211.000
  21196353.685   -16740885.68049 -12612447.18447  21196353.180    21196363.475
       243.000         210.000
 00  4 20 23 37 30.0000000  0  6G17G26G22G21G 6G23
  20832181.611   -10351512.40749  -8050851.89548  20832181.041    20832190.540
       244.000         213.000
  21675992.431   -17440775.73949 -12841478.65047  21675992.453    21676002.709
       232.000         189.000
  23735578.237   -12807530.37349  -9944512.23045  23735577.672    23735592.199
       211.000         147.000
  24355962.202    -3369704.51549  -2597265.69645  24355960.419    24355983.218
       206.000         149.000
  20608150.558    -3889375.10449  -3009388.78247  20608150.484    20608160.106
       245.000         211.000
  21188039.016   -16784579.16549 -12646493.93447  21188038.226    21188048.980
       243.000         210.000
 00  4 20 23 38  0.0000000  0  7G17G30G26G22G21G 6G23
  20829716.700   -10364465.55049  -8060945.22848  20829715.908    20829725.489
       244.000         213.000
                   -147668.32149   -122161.24143
       211.000          74.000
  21674928.122   -17446368.55449 -12845836.64747  21674928.519    21674938.308
       232.000         189.000
  23734530.985   -12813033.93949  -9948800.75345  23734530.107    23734543.814
       210.000         148.000
  24339622.190    -3455569.39549  -2664172.74545  24339620.471    24339642.668
       208.000         150.000
  20616823.183    -3843800.31449  -2973876.01047  20616823.210    20616832.829
       245.000         211.000
  21179794.709   -16827902.76449 -12680252.46847  21179794.024    21179804.453
       243.000         210.000
 00  4 20 23 38 30.0000000  0  6G17G26G22G21G 6G23
  20827282.860   -10377255.28949  -8070911.23048  20827282.342    20827291.817
       245.000         213.000
  21673977.427   -17451363.96149 -12849729.12347  21673977.757    21673988.056
       232.000         189.000
  23733581.515   -12818023.40449  -9952688.65845  23733580.304    23733594.374
       212.000         148.000
  24323314.453    -3541265.33749  -2730948.17545  24323313.500    24323335.150
       212.000         152.000
  20625582.449    -3797770.28349  -2938008.50047  20625582.456    20625592.107
       245.000         211.000
  21171619.565   -16870862.98149 -12713727.83947  21171618.923    21171629.293
       244.000         210.000
 00  4 20 23 39  0.0000000  0  6G17G26G22G21G 6G23
  20824881.459   -10389874.97449  -8080744.73148  20824880.825    20824890.431
       244.000         213.000
  21673140.985   -17455759.39549 -12853154.08447  21673140.737    21673150.664
       232.000         188.000
  23732728.263   -12822507.38749  -9956182.69045  23732727.155    23732740.441
       212.000         148.000
  24307036.345    -3626805.56749  -2797602.28145  24307034.530    24307056.039
       214.000         154.000
  20634425.316    -3751300.71149  -2901798.49647  20634425.225    20634435.124
       246.000         211.000
  21163514.966   -16913452.84549 -12746914.63447  21163514.364    21163524.588
       244.000         211.000
 00  4 20 23 39 30.0000000  0  6G17G26G22G21G 6G23
  20822510.016   -10402336.84149  -8090455.25848  20822509.617    20822518.957
       245.000         213.000
  21672419.425   -17459550.83849 -12856108.40747  21672419.376    21672429.678
       232.000         188.000
  23731970.446   -12826489.82749  -9959285.90945  23731969.669    23731984.170
       212.000         148.000
  24290786.339    -3712197.84149  -2864141.10045  24290784.190    24290806.293
       215.000         155.000
  20643354.012    -3704380.44749  -2865237.29447  20643354.003    20643363.695
       246.000         211.000
  21155480.865   -16955672.04049 -12779812.60047  21155480.256    21155490.321
       244.000         211.000
 00  4 20 23 40  0.0000000  0  6G17G26G22G21G 6G23
  20820170.193   -10414632.51449  -8100036.27648  20820169.706    20820178.999
       245.000         213.000
  21671812.169   -17462741.94749 -12858594.94247  21671812.147    21671821.956
       232.000         189.000
  23731309.636   -12829962.81249  -9961992.14845  23731309.556    23731323.071
       212.000         148.000
  24274563.652    -3797446.05749  -2930567.67645  24274561.491    24274583.738
       216.000         155.000
  20652369.541    -3657003.63349  -2828320.33847  20652369.482    20652379.304
       246.000         211.000
  21147523.122   -16997489.97949 -12812397.89747  21147522.295    21147532.652
       244.000         211.000
 00  4 20 23 40 30.0000000  0  6G17G26G22G21G 6G23
  20817867.446   -10426733.74649  -8109465.78748  20817866.761    20817876.265
       245.000         213.000
  21671320.420   -17465325.85149 -12860608.31747  21671320.397    21671330.796
       232.000         189.000
  23730745.100   -12832929.79649  -9964304.10145  23730744.687    23730758.683
       213.000         148.000
  24258372.028    -3882531.51549  -2996867.43545  24258370.180    24258391.863
       218.000         156.000
  20661474.828    -3609155.35649  -2791036.01747  20661474.839    20661484.505
       245.000         211.000
  21139646.105   -17038883.70949 -12844652.64747  21139645.218    21139655.363
       244.000         211.000
 00  4 20 23 41  0.0000000  0  6G17G26G22G21G 6G23
  20815607.164   -10438611.47249  -8118721.13648  20815606.535    20815616.106
       245.000         213.000
  21670949.451   -17467275.23149 -12862127.27347  21670948.954    21670959.849
       231.000         189.000
  23730277.106   -12835388.99949  -9966220.38045  23730276.022    23730289.682
       213.000         149.000
  24242215.118    -3967434.31849  -3063024.88945  24242213.195    24242235.038
       216.000         155.000
  20670674.746    -3560809.46249  -2753363.94547  20670674.840    20670684.436
       245.000         210.000
  21131852.828   -17079836.84549 -12876564.07847  21131852.023    21131862.413
       244.000         211.000
 00  4 20 23 41 30.0000000  0  6G17G26G22G21G 6G23
  20813393.745   -10450242.89449  -8127784.55948  20813393.108    20813402.391
       244.000         213.000
  21670701.642   -17468577.08549 -12863141.66547  21670701.625    21670712.449
       232.000         188.000
  23729907.647   -12837330.88949  -9967733.55945  23729906.947    23729920.650
       214.000         150.000
  24226094.784    -4052144.87149  -3129032.52345  24226092.515    24226114.617
       215.000         153.000
  20679971.774    -3511953.60649  -2715294.49247  20679971.823    20679981.581
       245.000         210.000
  21124142.857   -17120352.42749 -12908134.55447  21124141.991    21124152.408
       244.000         211.000
 00  4 20 23 42  0.0000000  0  6G17G26G22G21G 6G23
  20811229.465   -10461616.11949  -8136646.78948  20811229.056    20811238.188
       244.000         213.000
  21670578.603   -17469223.06649 -12863644.98447  21670578.501    21670588.580
       231.000         188.000
  23729639.001   -12838742.85849  -9968833.81245  23729638.423    23729652.421
       214.000         150.000
  24210014.941    -4136642.81849  -3194874.51245  24210013.027    24210034.129
       215.000         151.000
  20689362.933    -3462602.74749  -2676839.32147  20689363.032    20689372.745
       245.000         210.000
  21116517.006   -17160426.03149 -12939360.62947  21116516.380    21116526.510
       244.000         211.000
 00  4 20 23 42 30.0000000  0  6G17G26G22G21G 6G23
  20809108.838   -10472759.93049  -8145330.25948  20809108.024    20809117.435
       245.000         213.000
  21670581.366   -17469207.97149 -12863633.17647  21670581.768    21670591.710
       232.000         188.000
  23729470.439   -12839628.90449  -9969524.26745  23729469.460    23729483.755
       215.000         150.000
  24193975.492    -4220928.40549  -3260551.02745  24193972.931    24193995.638
       214.000         151.000
  20698848.095    -3412758.27749  -2637999.51847  20698848.256    20698857.605
       245.000         210.000
  21108970.684   -17200081.77949 -12970261.10947  21108969.914    21108980.269
       244.000         212.000
 00  4 20 23 43  0.0000000  0  6G17G26G22G21G 6G23
  20807022.738   -10483722.53049  -8153872.52248  20807022.308    20807031.622
       244.000         213.000
  21670707.754   -17468543.89749 -12863115.67647  21670707.591    21670717.954
       232.000         188.000
  23729400.229   -12839997.86749  -9969811.80745  23729399.159    23729413.543
       216.000         150.000
  24177973.752    -4305015.73249  -3326073.06045  24177971.808    24177992.781
       214.000         150.000
  20708424.748    -3362432.80549  -2598784.91447  20708424.946    20708434.714
       245.000         210.000
  21101497.273   -17239354.35749 -13000863.01747  21101496.688    21101506.722
       244.000         212.000
 00  4 20 23 43 30.0000000  0  6G17G26G22G21G 6G23
  20804964.485   -10494538.60949  -8162300.60948  20804963.933    20804973.289
       244.000         213.000
  21670952.073   -17467259.80249 -12862115.03947  21670952.372    21670962.262
       233.000         189.000
  23729425.759   -12839864.01849  -9969707.53145  23729425.481    23729439.440
       217.000         151.000
  24162005.860    -4388924.99049  -3391456.36045  24162004.622    24162024.090
       213.000         148.000
  20718088.197    -3311651.09349  -2559214.80047  20718088.306    20718097.745
       245.000         210.000
  21094092.045   -17278268.61449 -13031185.71447  21094091.544    21094101.640
       244.000         212.000
 00  4 20 23 44  0.0000000  0  6G17G26G22G21G 6G23
  20802927.532   -10505242.57949  -8170641.34148  20802926.933    20802936.502
       244.000         213.000
  21671311.583   -17465370.25849 -12860642.63547  21671311.613    21671321.807
       232.000         189.000
  23729543.097   -12839247.83149  -9969227.41745  23729543.059    23729556.383
       216.000         152.000
  24146069.887    -4472666.43249  -3456708.89145  24146067.505    24146088.483
       211.000         147.000
  20727838.289    -3260414.24249  -2519290.03647  20727838.246    20727848.131
       244.000         209.000
  21086755.069   -17316824.24949 -13061228.96947  21086754.424    21086764.414
       245.000         212.000
 00  4 20 23 44 30.0000000  0  6G17G26G22G21G 6G23
  20800911.140   -10515838.48349  -8178897.86148  20800910.529    20800920.231
       244.000         213.000
  21671784.439   -17462885.16549 -12858706.16547  21671784.626    21671795.253
       233.000         189.000
  23729747.997   -12838171.50249  -9968388.73345  23729747.188    23729761.321
       217.000         152.000
  24130163.608    -4556251.81949  -3521839.81445  24130161.956    24130181.940
       209.000         146.000
  20737678.705    -3208702.52249  -2478995.23947  20737678.634    20737688.518
       244.000         209.000
  21079485.119   -17355027.61949 -13090997.73447  21079484.636    21079494.443
       245.000         212.000
 00  4 20 23 45  0.0000000  0  6G17G26G22G21G 6G23
  20798922.450   -10526289.07849  -8187041.15648  20798922.006    20798931.374
       246.000         213.000
  21672370.382   -17459806.02649 -12856306.80547  21672370.900    21672380.537
       232.000         188.000
  23730041.376   -12836630.08449  -9967187.64145  23730040.415    23730055.002
       215.000         153.000
  24114286.466    -4639684.10649  -3586851.42445  24114284.378    24114305.713
       212.000         146.000
  20747610.917    -3156508.42849  -2438324.56847  20747610.998    20747620.708
       244.000         209.000
  21072286.795   -17392854.89749 -13120473.43948  21072286.230    21072296.226
       245.000         213.000
 00  4 20 23 45 30.0000000  0  6G17G26G22G21G 6G23
  20796970.365   -10536547.23349  -8195034.50148  20796969.727    20796979.179
       246.000         213.000
  21673072.540   -17456115.97749 -12853431.40947  21673072.504    21673082.968
       233.000         189.000
  23730427.492   -12834600.63049  -9965606.26345  23730427.237    23730441.421
       216.000         153.000
  24098441.274    -4722949.10249  -3651732.68945  24098439.567    24098460.226
       214.000         149.000
  20757637.260    -3103819.77349  -2397268.52947  20757637.467    20757647.267
       244.000         209.000
  21065169.075   -17430258.38149 -13149618.92648  21065168.048    21065178.397
       245.000         213.000
 00  4 20 23 46  0.0000000  0  6G17G26G22G21G 6G23
  20795059.789   -10546587.52349  -8202858.07748  20795059.090    20795068.511
       246.000         213.000
  21673895.755   -17451789.77949 -12850060.30747  21673895.824    21673906.202
       233.000         189.000
  23730912.397   -12832052.41049  -9963620.65945  23730911.822    23730925.286
       216.000         154.000
  24082632.554    -4806022.17849  -3716464.42445  24082630.852    24082652.021
       215.000         152.000
  20767761.636    -3050616.22349  -2355811.26547  20767761.638    20767771.626
       243.000         208.000
  21058137.661   -17467208.03349 -13178410.76848  21058136.745    21058147.104
       244.000         213.000
 00  4 20 23 46 30.0000000  0  6G17G26G22G21G 6G23
  20793194.854   -10556387.49949  -8210494.39348  20793194.321    20793203.877
       246.000         213.000
  21674843.122   -17446811.19849 -12846180.84847  21674843.048    21674853.550
       233.000         189.000
  23731500.524   -12828961.88249  -9961212.48845  23731499.655    23731513.264
       216.000         153.000
  24066863.816    -4888885.45849  -3781032.68645  24066861.888    24066882.335
       216.000         155.000
  20777981.510    -2996910.57449  -2313962.75547  20777981.503    20777991.439
       245.000         208.000
  21051192.546   -17503704.58149 -13206849.54948  21051191.963    21051201.973
       245.000         213.000
 00  4 20 23 47  0.0000000  0  6G17G26G22G21G 6G23
  20791374.664   -10565952.63449  -8217947.72048  20791374.191    20791383.531
       246.000         213.000
  21675915.210   -17441177.34049 -12841790.79347  21675915.406    21675925.103
       233.000         189.000
  23732192.215   -12825326.38649  -9958379.65445  23732191.516    23732205.621
       215.000         153.000
  24051135.059    -4971538.71249  -3845437.30145  24051133.517    24051153.487
       216.000         155.000
  20788292.901    -2942723.94349  -2271739.45447  20788292.954    20788302.796
       245.000         208.000
  21044334.453   -17539743.50449 -13234931.73748  21044334.031    21044343.909
       246.000         213.000
 00  4 20 23 47 30.0000000  0  6G17G26G22G21G 6G23
  20789594.807   -10575305.63149  -8225235.74748  20789594.383    20789603.808
       246.000         213.000
  21677112.216   -17434886.92749 -12836889.13147  21677112.627    21677122.300
       234.000         189.000
  23732985.797   -12821156.14749  -9955130.14945  23732985.666    23732998.444
       216.000         154.000
  24035449.017    -5053966.91349  -3909666.54945  24035447.626    24035467.681
       217.000         155.000
  20798694.486    -2888063.35849  -2229146.85147  20798694.523    20798704.638
       243.000         208.000
  21037561.254   -17575336.61149 -13262666.53448  21037560.670    21037570.693
       244.000         213.000
 00  4 20 23 48  0.0000000  0  6G17G26G22G21G 6G23
  20787849.406   -10584477.57549  -8232382.70148  20787848.692    20787858.442
       246.000         213.000
  21678431.471   -17427954.23549 -12831487.00247  21678432.104    21678441.691
       233.000         189.000
  23733877.545   -12816469.99349  -9951478.63245  23733876.649    23733890.932
       216.000         154.000
  24019805.462    -5136172.03149  -3973721.96745  24019803.436    24019822.881
       216.000         155.000
  20809184.732    -2832936.82649  -2186191.17347  20809184.711    20809194.783
       244.000         208.000
  21030867.068   -17610514.50749 -13290077.79948  21030866.604    21030876.554
       245.000         213.000
 00  4 20 23 48 30.0000000  0  6G17G26G22G21G 6G23
  20786135.288   -10593485.33449  -8239401.70948  20786134.838    20786144.309
       246.000         213.000
  21679868.557   -17420402.48949 -12825602.48747  21679868.559    21679878.767
       233.000         189.000
  23734862.676   -12811293.49049  -9947445.02545  23734861.947    23734875.987
       217.000         154.000
  24004202.218    -5218165.33649  -4037612.34445  24004200.947    24004220.602
       220.000         157.000
  20819763.877    -2777343.11349  -2142871.44847  20819764.177    20819773.870
       243.000         207.000
  21024248.978   -17645292.56949 -13317177.49448  21024248.356    21024258.220
       245.000         213.000
 00  4 20 23 49  0.0000000  0  6G17G26G22G21G 6G23
  20784452.111   -10602330.35349  -8246293.91148  20784451.414    20784460.925
       246.000         213.000
  21681420.942   -17412244.48949 -12819245.55847  21681420.855    21681431.270
       234.000         189.000
  23735941.342   -12805625.27649  -9943028.26845  23735941.020    23735955.429
       216.000         154.000
  23988638.855    -5299949.95049  -4101340.13345  23988638.151    23988656.978
       219.000         160.000
  20830435.101    -2721265.56649  -2099174.72247  20830435.230    20830445.182
       243.000         207.000
  21017709.349   -17679657.96149 -13343955.63548  21017708.683    21017718.805
       245.000         213.000
 00  4 20 23 49 30.0000000  0  6G17G26G22G21G 6G23
  20782802.513   -10610999.13549  -8253048.78748  20782802.195    20782811.584
       246.000         213.000
  21683089.374   -17403476.79749 -12812413.54947  21683089.350    21683099.254
       233.000         190.000
  23737117.123   -12799446.66649  -9938213.80045  23737116.416    23737130.928
       216.000         155.000
  23973116.206    -5381519.87549  -4164900.59945  23973113.789    23973134.007
       219.000         160.000
  20841200.529    -2664693.33849  -2055092.52747  20841200.567    20841210.582
       244.000         207.000
  21011244.861   -17713628.78949 -13370426.32448  21011244.318    21011254.081
       244.000         213.000
 00  4 20 23 50  0.0000000  0  6G17G26G22G21G 6G23
  20781187.134   -10619487.93849  -8259663.42148  20781186.614    20781195.958
       246.000         213.000
  21684872.014   -17394108.79449 -12805113.77047  21684872.005    21684881.891
       233.000         190.000
  23738390.259   -12792756.54049  -9933000.76145  23738389.485    23738403.048
       217.000         154.000
  23957631.505    -5462890.51249  -4228305.79845  23957629.658    23957648.535
       216.000         159.000
  20852059.383    -2607629.95849  -2010627.62047  20852059.679    20852069.659
       244.000         207.000
  21004851.240   -17747226.78349 -13396606.48948  21004850.555    21004860.594
       244.000         213.000
 00  4 20 23 50 30.0000000  0  6G17G26G22G21G 6G23
  20779609.292   -10627779.36849  -8266124.25848  20779608.716    20779617.923
       246.000         213.000
  21686770.436   -17384132.47349 -12797339.97947  21686770.231    21686780.685
       233.000         190.000
  23739760.344   -12785556.92149  -9927390.70845  23739759.117    23739774.633
       216.000         154.000
  23942181.066    -5544081.00849  -4291570.62045  23942179.704    23942199.405
       214.000         155.000
  20863008.864    -2550090.37749  -1965791.64047  20863008.999    20863019.031
       243.000         207.000
  20998527.477   -17780457.89449 -13422500.77148  20998526.852    20998536.859
       245.000         213.000
 00  4 20 23 51  0.0000000  0  6G17G26G22G21G 6G23
  20778072.536   -10635854.93549  -8272416.89348  20778071.950    20778081.356
       246.000         213.000
  21688787.395   -17373533.16649 -12789080.75347  21688787.205    21688797.526
       233.000         190.000
  23741226.685   -12777851.55349  -9921386.56245  23741225.821    23741240.200
       218.000         154.000
  23926763.300    -5625100.09249  -4354701.89645  23926762.487    23926780.922
       216.000         153.000
  20874043.420    -2492103.60449  -1920607.20247  20874043.580    20874053.575
       243.000         207.000
  20992270.711   -17813337.11449 -13448120.85248  20992270.334    20992280.060
       245.000         213.000
 00  4 20 23 51 30.0000000  0  6G17G26G22G21G 6G23
  20776575.958   -10643719.38549  -8278545.02548  20776575.596    20776584.805
       245.000         213.000
  21690924.786   -17362300.57949 -12780328.06047  21690924.935    21690935.334
       234.000         190.000
  23742784.228   -12769667.01249  -9915009.04145  23742784.143    23742798.108
       218.000         155.000
  23911374.533    -5705966.53149  -4417714.23845  23911373.541    23911391.083
       215.000         151.000
  20885161.170    -2433679.62949  -1875082.09047  20885161.264    20885171.378
       243.000         207.000
  20986078.958   -17845874.73549 -13473474.75648  20986078.360    20986088.135
       245.000         213.000
 00  4 20 23 52  0.0000000  0  6G17G26G22G21G 6G23
  20775117.346   -10651384.23349  -8284517.61848  20775116.866    20775126.142
       246.000         213.000
  21693182.377   -17350436.76049 -12771083.50147  21693182.162    21693192.724
       233.000         189.000
  23744429.813   -12761019.54249  -9908270.79245  23744429.284    23744442.691
       216.000         155.000
  23896015.177    -5786678.80149  -4480606.45545  23896013.884    23896032.515
       214.000         151.000
  20896362.557    -2374816.22049  -1829214.55247  20896362.739    20896372.800
       243.000         207.000
  20979958.215   -17878038.91549 -13498537.66648  20979957.737    20979967.731
       245.000         213.000
 00  4 20 23 52 30.0000000  0  6G17G26G22G21G 6G23
  20773698.214   -10658841.71649  -8290328.62648  20773697.918    20773707.198
       246.000         213.000
  21695563.752   -17337922.48249 -12761332.09047  21695563.924    21695573.429
       233.000         189.000
  23746163.988   -12751906.24049  -9901169.56545  23746163.883    23746177.746
       215.000         153.000
  23880688.633    -5867218.01849  -4543363.81945  23880686.994    23880704.906
       211.000         149.000
  20907649.679    -2315502.22049  -1782995.91347  20907649.805    20907659.883
       243.000         206.000
  20973913.987   -17909801.51049 -13523287.64948  20973913.382    20973923.336
       247.000         214.000
 00  4 20 23 53  0.0000000  0  6G17G26G22G21G 6G23
  20772315.136   -10666109.71449  -8295991.98448  20772314.706    20772323.841
       246.000         213.000
  21698068.306   -17324760.78249 -12751076.19847  21698068.780    21698078.121
       233.000         189.000
  23747986.689   -12742327.89149  -9893705.96745  23747985.002    23748000.757
       214.000         153.000
  23865399.825    -5947558.69049  -4605966.45645  23865397.759    23865417.401
       213.000         149.000
  20919026.960    -2255714.60549  -1736408.21847  20919026.989    20919037.168
       243.000         206.000
  20967950.029   -17941141.85249 -13547708.60448  20967949.521    20967959.309
       247.000         214.000
 00  4 20 23 53 30.0000000  0  6G17G26G22G21G 6G23
  20770965.964   -10673199.55049  -8301516.51648  20770965.610    20770974.908
       245.000         213.000
  21700694.061   -17310962.39149 -12740324.17547  21700694.272    21700704.157
       233.000         189.000
  23749901.329   -12732266.18849  -9885865.76845  23749900.226    23749914.731
       214.000         153.000
  23850152.829    -6027680.09549  -4668398.24945  23850151.873    23850169.093
       217.000         151.000
  20930498.384    -2195431.78349  -1689434.65347  20930498.607    20930508.459
       242.000         206.000
  20962069.621   -17972043.57849 -13571787.77448  20962069.181    20962078.866
       246.000         214.000
 00  4 20 23 54  0.0000000  0  6G17G26G22G21G 6G23
  20769650.958   -10680109.72949  -8306901.05648  20769650.420    20769659.736
       245.000         213.000
  21703439.440   -17296535.18349 -12729082.16447  21703439.412    21703449.557
       233.000         189.000
  23751912.071   -12721700.25249  -9877632.62945  23751912.133    23751926.470
       217.000         154.000
  23834952.244    -6107558.47149  -4730640.69345  23834951.167    23834968.419
       220.000         153.000
  20942062.781    -2134661.05649  -1642080.90547  20942062.862    20942073.094
       242.000         206.000
  20956270.295   -18002519.16849 -13595534.89448  20956269.636    20956279.568
       246.000         214.000
 00  4 20 23 54 30.0000000  0  6G17G26G22G21G 6G23
  20768369.588   -10686843.29949  -8312147.98048  20768369.137    20768378.398
       245.000         213.000
  21706302.635   -17281488.77349 -12717357.65747  21706302.759    21706312.259
       232.000         189.000
  23754016.784   -12710640.46749  -9869014.66445  23754015.687    23754029.743
       218.000         155.000
  23819795.195    -6187207.85049  -4792704.70145  23819793.750    23819812.039
       219.000         155.000
  20953716.837    -2073418.80349  -1594359.73647  20953716.664    20953726.705
       242.000         206.000
  20950546.615   -18032597.08249 -13618972.13848  20950546.059    20950555.699
       246.000         214.000
 00  4 20 23 55  0.0000000  0  6G17G26G22G21G 6G23
  20767124.518   -10693386.11549  -8317246.26348  20767124.039    20767133.375
       245.000         213.000
  21709279.533   -17265844.78549 -12705167.51847  21709279.459    21709289.447
       232.000         189.000
  23756215.825   -12699084.62149  -9860010.17045  23756216.014    23756229.521
       217.000         156.000
  23804679.935    -6266637.01149  -4854597.09445  23804678.424    23804696.614
       219.000         156.000
  20965458.017    -2011718.48849  -1546281.64047  20965458.125    20965468.187
       242.000         205.000
  20944898.096   -18062280.11449 -13642101.68248  20944897.489    20944906.982
       246.000         214.000
 00  4 20 23 55 30.0000000  0  6G17G26G22G21G 6G23
  20765921.028   -10699710.52349  -8322174.35548  20765920.672    20765929.903
       245.000         213.000
  21712372.136   -17249592.72649 -12692503.55647  21712372.267    21712382.308
       233.000         188.000
  23758509.273   -12687032.36049  -9850618.86845  23758509.336    23758523.683
       216.000         156.000
  23789606.153    -6345848.73049  -4916320.07045  23789604.559    23789622.787
       221.000         159.000
  20977284.822    -1949568.47349  -1497853.12247  20977284.938    20977295.249
       242.000         205.000
  20939324.210   -18091570.57149 -13664925.32248  20939323.388    20939333.029
       246.000         214.000
 00  4 20 23 56  0.0000000  0  6G17G26G22G21G 6G23
  20764760.065   -10705811.58249  -8326928.40848  20764759.666    20764768.833
       246.000         213.000
  21715583.354   -17232717.66349 -12679354.13347  21715583.195    21715593.147
       232.000         188.000
  23760893.553   -12674503.15349  -9840855.91845  23760892.327    23760906.992
       217.000         157.000
  23774573.165    -6424845.97349  -4977875.91845  23774571.736    23774589.836
       222.000         162.000
  20989196.757    -1886971.07749  -1449075.99747  20989197.191    20989207.265
       242.000         205.000
  20933825.785   -18120464.31449 -13687439.83648  20933825.224    20933834.858
       246.000         214.000
 00  4 20 23 56 30.0000000  0  6G17G26G22G21G 6G23
  20763644.703   -10711672.97149  -8331495.70648  20763644.318    20763653.445
       244.000         213.000
  21718914.402   -17215212.76649 -12665713.93447  21718914.638    21718924.337
       232.000         188.000
  23763369.510   -12661492.29749  -9830717.63545  23763368.402    23763382.618
       215.000         156.000
  23759581.080    -6503628.53149  -5039264.49146  23759579.805    23759597.056
       221.000         164.000
  21001195.409    -1823917.98649  -1399943.78447  21001195.455    21001205.828
       241.000         205.000
  20928407.838   -18148935.46649 -13709625.06548  20928407.225    20928416.850
       246.000         214.000
 00  4 20 23 57  0.0000000  0  6G17G26G22G21G 6G23
  20762574.957   -10717294.53749  -8335876.11848  20762574.539    20762583.665
       245.000         213.000
  21722368.730   -17197059.98249 -12651568.88447  21722368.577    21722379.200
       232.000         188.000
  23765940.876   -12647979.87749  -9820188.52645  23765940.232    23765954.238
       216.000         154.000
  23744633.748    -6582175.63549  -5100469.59746  23744632.213    23744649.083
       219.000         164.000
  21013281.270    -1760406.76649  -1350454.58947  21013281.498    21013291.660
       242.000         205.000
  20923071.924   -18176975.60749 -13731474.43748  20923071.339    20923080.988
       247.000         214.000
 00  4 20 23 57 30.0000000  0  6G17G26G22G21G 6G23
  20761542.649   -10722719.40949  -8340103.26348  20761541.904    20761551.203
       244.000         213.000
  21725948.125   -17178250.46149 -12636912.09847  21725948.939    21725958.229
       232.000         188.000
  23768606.812   -12633970.73149  -9809272.36045  23768606.286    23768619.733
       217.000         155.000
  23729729.167    -6660497.85149  -5161499.45946  23729727.462    23729744.947
       219.000         163.000
  21025455.004    -1696433.84449  -1300605.62047  21025455.320    21025465.432
       242.000         205.000
  20917813.339   -18204609.28849 -13753007.09648  20917812.740    20917822.334
       246.000         215.000
 00  4 20 23 58  0.0000000  0  6G17G26G22G21G 6G23
  20760541.842   -10727978.59149  -8344201.29848  20760541.346    20760550.392
       245.000         213.000
  21729647.549   -17158809.69649 -12621763.42947  21729647.658    21729657.047
       232.000         188.000
  23771365.377   -12619474.48649  -9797976.64245  23771365.396    23771379.588
       218.000         156.000
  23714862.654    -6738620.19749  -5222373.59246  23714861.563    23714878.583
       219.000         164.000
  21037713.803    -1632013.55849  -1250408.06247  21037713.834    21037724.059
       241.000         204.000
  20912625.676   -18231870.23849 -13774249.32348  20912625.101    20912634.555
       246.000         215.000
 00  4 20 23 58 30.0000000  0  6G17G26G22G21G 6G23
  20759569.298   -10733089.46349  -8348183.76548  20759568.520    20759577.923
       244.000         213.000
  21733463.749   -17138755.45649 -12606136.72847  21733463.836    21733473.601
       232.000         188.000
  23774216.369   -12604493.13249  -9786302.88945  23774215.853    23774228.991
       217.000         157.000
  23700031.495    -6816556.53549  -5283102.78346  23700030.320    23700047.546
       219.000         165.000
  21050053.329    -1567169.13849  -1199880.00847  21050053.261    21050063.508
       241.000         204.000
  20907504.451   -18258782.04649 -13795219.49048  20907504.046    20907513.493
       247.000         215.000
 00  4 20 23 59  0.0000000  0  6G17G26G22G21G 6G23
  20758620.308   -10738076.13649  -8352069.45348  20758619.767    20758628.953
       244.000         213.000
  21737392.955   -17118107.17049 -12590047.15347  21737393.246    21737403.433
       232.000         188.000
  23777153.663   -12589057.59349  -9774275.26345  23777153.579    23777167.937
       217.000         156.000
  23685232.805    -6894322.77349  -5343699.44346  23685231.366    23685248.696
       216.000         164.000
  21062473.598    -1501900.30449  -1149021.25747  21062473.783    21062484.262
       241.000         204.000
  20902446.066   -18285363.80149 -13815932.48148  20902445.348    20902455.043
       247.000         215.000
